GFSCGP_con_sbcape_000.txt.gz
CAPE
0 0 0 0 0 0 0 0 0 0 0 97 73 136 214 210 220 247 280 291 313 201 161 167 241 283 452 602 691 660 947 1309 1689 1546 1522 1417 1254 960 965 853 1013 1051 755 906
0 0 0 0 0 0 0 0 0 0 0 0 100 146 168 241 351 390 413 497 494 515 268 306 509 668 660 674 725 1109 928 1505 1529 1520 1183 1327 1263 1233 1237 1359 1538 1025 905 973
0 0 0 0 0 0 0 0 0 0 3 3 80 76 106 209 256 207 371 542 449 667 450 436 587 610 814 807 1181 1247 1409 1508 1515 1529 1417 1610 1326 1012 809 754 776 201 12 39
0 0 0 0 0 0 0 0 0 16 23 6 25 38 6 74 14 56 135 238 379 467 757 743 705 521 818 1134 1596 1514 1807 1946 1819 1496 1831 1593 674 196 37 165 110 0 0 0
0 0 0 0 0 0 0 0 0 43 28 6 14 15 37 0 0 0 57 162 262 253 874 950 855 688 951 1385 1934 1791 1959 2108 2110 1478 1800 357 0 0 4 0 0 0 0 0
0 0 0 0 0 0 0 0 0 0 0 7 9 6 0 2 16 0 1 215 188 207 758 1022 1072 552 1261 1556 1977 2118 1769 1577 932 357 30 0 0 0 0 0 0 0 0 0
0 0 0 0 0 0 0 0 0 0 0 0 0 19 0 0 13 1 0 135 182 185 239 634 535 624 1468 1721 1702 1978 1603 1146 18 0 0 0 0 0 0 0 0 0 0 0
0 0 0 0 0 0 0 0 0 0 0 0 0 0 0 10 14 2 1 106 165 125 147 245 166 471 1223 1604 1560 1750 1173 770 0 0 0 0 0 0 0 0 0 0 0 0
0 0 0 0 0 0 0 0 0 0 0 0 0 0 0 2 13 0 0 0 63 91 146 190 251 460 924 1319 1536 1692 910 443 14 0 0 0 0 1 0 0 0 0 0 0
0 0 0 0 0 0 0 0 0 0 0 0 0 0 0 31 28 15 0 0 0 46 155 184 259 452 1062 1189 1563 1705 923 528 117 8 0 0 8 11 0 0 0 0 0 0
0 0 0 0 0 0 0 0 0 0 0 0 0 0 0 32 22 27 17 15 0 21 38 195 269 392 1094 1200 1463 1711 1103 762 246 152 0 19 72 14 1 0 0 0 0 0
0 0 0 0 0 0 0 0 0 0 0 0 0 0 0 0 0 13 36 38 1 0 41 88 166 235 825 1063 1477 1611 1377 1015 593 362 123 159 236 66 21 16 2 0 0 0
0 0 0 0 0 0 0 0 0 0 0 0 0 0 0 0 0 0 0 0 0 0 0 29 37 117 501 883 1354 1481 1482 1245 858 580 248 65 30 14 26 28 8 0 0 0
0 0 0 0 0 0 0 0 0 0 0 0 0 0 0 0 0 0 0 0 0 0 0 22 65 58 379 817 1182 1420 1441 1319 836 543 395 15 0 0 11 25 9 0 0 0
0 0 0 0 0 0 0 0 0 0 0 0 0 0 0 0 0 0 0 7 10 4 15 3 153 205 535 779 1018 1316 1387 1137 673 574 374 70 5 0 0 9 0 0 0 0
0 0 0 0 0 0 0 0 0 0 0 0 0 0 0 0 0 0 6 7 0 51 571 47 218 572 873 931 1062 1076 1098 998 578 418 377 164 85 23 12 28 27 11 16 4
0 0 0 0 0 0 0 0 0 0 0 0 0 0 0 0 6 0 0 0 0 1 29 685 632 800 1105 1227 1105 816 757 604 369 281 244 191 155 83 95 127 72 75 58 16
0 0 0 0 0 0 0 0 12 14 10 2 0 0 0 0 0 0 0 0 0 0 0 0 611 752 1168 1536 1173 615 223 281 253 177 254 324 323 241 223 156 130 158 209 191
17 4 10 0 0 0 21 26 18 24 29 15 24 18 0 0 11 33 0 0 0 0 0 0 16 365 802 1354 1020 246 199 200 196 164 217 363 450 402 273 221 214 288 246 159
40 3 49 5 3 3 6 77 60 36 70 44 55 3 14 17 50 64 7 0 0 15 73 225 313 1274 1081 1070 441 365 234 140 141 184 293 366 399 362 282 279 383 447 440 227
72 84 9 0 0 0 20 118 67 39 70 47 0 0 31 111 66 9 0 38 49 196 384 472 1447 1674 1031 493 513 329 171 266 192 204 187 231 523 375 338 437 658 629 269 0
194 179 4 10 5 21 19 134 295 71 26 0 1 3 2 0 3 5 0 0 0 0 174 411 1449 1648 866 551 637 322 242 124 150 65 33 0 0 179 679 887 669 134 38 13
159 37 190 209 36 4 0 0 0 0 0 0 0 0 29 36 78 19 8 0 0 0 3 271 866 1164 777 738 140 3 0 0 2 0 15 0 0 0 0 180 329 151 16 0
63 192 85 0 0 11 0 0 0 0 0 0 0 0 0 8 130 123 198 704 879 750 515 1111 459 161 0 1 0 0 39 0 0 0 0 0 0 0 47 178 115 82 76 13
172 140 241 145 84 0 0 0 0 0 0 0 0 0 0 121 1274 1480 1129 896 478 252 192 306 384 40 0 0 0 0 0 0 0 0 0 2 14 104 27 0 0 0 0 0
36 258 179 143 69 0 0 0 0 0 0 0 0 0 0 0 961 1470 1159 667 284 204 117 59 147 26 0 0 0 0 0 0 0 0 0 1 166 33 0 0 1 0 0 0

GFSCGP_con_sbcape_003.txt.gz
CAPE
0 0 0 0 0 0 0 0 0 0 0 10 40 46 185 232 118 113 168 169 168 193 170 88 286 406 178 317 835 1027 1149 1549 1560 1402 1442 1307 1327 956 761 743 808 597 395 666
0 0 0 0 0 0 0 0 0 0 0 29 36 69 61 59 53 41 53 66 116 130 105 72 132 169 144 240 518 517 722 1065 1602 1349 985 1093 964 809 809 731 944 940 584 605
0 0 0 0 0 0 0 0 0 0 0 43 73 66 106 83 84 61 81 92 89 73 81 68 103 115 214 280 441 566 537 1017 1443 1288 930 1120 1075 960 946 827 1129 805 704 759
0 0 0 0 0 0 0 0 0 0 0 1 53 21 67 119 152 196 217 210 196 169 111 79 151 251 319 320 510 665 707 1165 1329 1157 1180 1359 1435 1053 145 137 464 181 15 2
0 0 0 0 0 0 0 0 0 0 0 2 13 7 39 57 131 174 203 187 300 361 171 121 182 292 423 485 837 882 1094 1416 1495 1301 1445 1236 551 0 0 0 85 0 0 0
0 0 0 0 0 0 0 0 0 0 0 0 4 0 0 33 112 134 90 126 363 266 434 215 214 287 425 719 1132 1395 1442 1575 1660 1492 1445 1069 141 0 0 0 0 0 0 0
0 0 0 0 0 0 0 0 0 0 0 0 0 0 0 1 68 90 63 41 216 284 514 502 491 419 519 977 1298 1628 1616 1609 1498 1368 901 359 0 0 0 0 0 0 0 0
0 0 0 0 0 0 0 0 0 0 0 0 0 0 0 0 12 39 35 17 130 193 248 661 741 604 603 1168 1399 1711 1748 1601 852 373 83 0 0 0 0 0 0 0 0 0
0 0 0 0 0 0 0 0 0 0 0 0 0 0 0 0 2 3 0 0 61 142 138 661 828 619 728 1170 1440 1676 1840 1654 521 40 0 0 0 0 0 0 0 0 0 0
0 0 0 0 0 0 0 0 0 0 0 0 0 0 0 0 0 0 0 0 11 119 115 415 775 475 882 1188 1442 1524 1731 1662 619 0 0 0 0 0 0 0 0 0 0 0
0 0 0 0 0 0 0 0 0 0 0 0 0 0 0 0 0 0 0 0 2 54 93 188 424 373 628 1148 1407 1475 1496 1383 674 36 0 0 0 0 0 0 0 0 0 0
0 0 0 0 0 0 0 0 0 0 0 0 0 0 0 0 0 0 2 0 0 2 60 132 228 321 347 678 1081 1344 1406 1109 687 154 3 0 0 0 0 0 0 0 0 0
0 0 0 0 0 0 0 0 0 0 0 0 0 0 0 0 0 0 0 0 0 0 17 113 165 259 313 612 939 1172 1429 1178 802 229 56 4 45 24 0 0 0 0 0 0
0 0 0 0 0 0 0 0 0 0 0 0 0 0 0 0 0 0 0 0 0 0 0 8 160 255 325 410 914 1129 1504 1410 1028 483 237 64 79 68 28 0 0 0 0 0
0 0 0 0 0 0 0 0 0 0 0 0 0 0 0 0 0 0 0 0 0 0 0 0 6 67 188 273 736 1082 1447 1530 1177 828 478 222 140 51 25 0 0 0 0 0
0 0 0 0 0 0 0 0 0 0 0 0 0 0 0 0 0 0 0 0 0 0 0 0 0 6 28 165 629 935 1363 1572 1275 956 759 301 113 15 1 0 0 0 0 0
0 0 0 0 0 0 0 0 0 0 0 0 0 0 0 0 0 0 0 0 0 0 22 0 0 0 41 179 556 789 1198 1444 1224 1153 607 230 191 23 0 0 0 1 1 0
0 0 0 0 0 0 0 0 0 6 11 2 0 0 0 0 0 0 0 0 0 0 24 238 56 19 292 455 682 763 1049 1176 1069 829 455 313 296 143 6 0 0 17 32 1
0 0 0 0 0 0 4 45 21 34 25 0 2 0 0 0 0 0 0 0 0 0 0 25 441 540 364 783 952 780 739 887 833 505 206 235 226 249 61 7 70 126 12 37
0 0 0 0 0 0 0 1 8 0 35 0 0 0 0 0 33 0 0 0 0 0 0 1 2 266 435 449 1081 614 411 512 579 536 313 240 150 197 86 137 201 232 103 79
1 6 1 1 0 29 0 0 0 63 3 0 0 0 0 0 0 0 0 0 0 6 79 117 466 894 857 697 678 512 300 444 487 365 217 166 52 102 175 93 20 4 147 76
18 98 99 28 21 57 0 9 47 0 0 0 0 0 0 0 0 0 0 0 0 0 0 16 381 1149 683 467 507 202 258 221 212 213 107 1 0 5 1 0 0 0 5 48
68 95 101 0 0 0 0 0 0 0 0 0 0 0 0 63 4 2 6 130 216 299 245 213 322 1024 592 373 271 112 81 208 184 115 0 0 0 0 0 0 0 0 1 0
161 59 0 0 0 0 0 0 0 0 0 0 0 0 0 0 308 351 429 531 456 289 288 450 564 525 352 186 165 14 81 20 45 0 0 0 0 0 0 0 5 184 73 14
7 93 7 0 0 0 0 0 0 0 0 0 0 0 0 0 168 709 479 443 295 136 141 321 159 76 73 118 22 0 0 0 0 0 0 0 0 0 41 1 2 15 0 0
0 272 50 0 0 0 0 0 0 0 0 0 0 0 0 0 0 127 246 383 80 8 51 44 2 0 4 5 0 0 0 0 0 0 0 0 0 38 7 0 1 0 3 0

GFSCGP_con_sbcape_006.txt.gz
CAPE
0 0 0 0 0 0 0 0 1 0 2 15 24 54 311 192 156 165 136 159 292 286 276 260 226 337 309 307 736 1049 1243 1423 1294 1169 1150 1051 1110 898 775 596 623 495 337 602
0 0 0 0 0 0 0 0 0 0 0 13 25 55 229 205 156 111 97 91 91 150 74 24 109 257 106 160 615 840 1121 1214 1361 1039 915 995 894 683 681 539 555 626 597 530
0 0 0 0 0 0 0 0 0 0 0 6 33 34 65 171 163 116 77 68 49 54 50 16 19 155 152 100 307 648 792 1066 1218 1059 681 723 688 740 759 761 893 935 543 554
0 0 0 0 0 0 0 0 0 0 5 1 17 0 14 57 108 90 75 54 51 48 68 40 25 41 135 114 177 431 532 685 812 892 944 1103 1120 1144 670 408 710 718 454 343
0 0 0 0 0 0 0 0 0 0 0 3 20 0 0 28 41 73 82 60 62 41 49 58 42 34 40 121 178 259 319 333 753 890 1059 1004 814 587 0 0 153 115 0 0
0 0 0 0 0 0 0 0 0 0 0 0 0 0 0 4 79 110 121 123 122 87 77 64 42 32 65 106 220 340 396 534 814 907 928 911 793 105 0 0 45 0 0 0
0 0 0 0 0 0 0 0 0 0 0 0 0 0 0 0 48 86 101 131 164 156 137 97 63 77 106 210 354 567 569 690 999 1115 1096 999 620 13 0 0 0 0 0 0
0 0 0 0 0 0 0 0 0 0 0 0 0 0 3 0 0 33 37 90 105 161 230 185 116 133 157 340 445 693 791 841 1114 1333 1266 1032 334 0 0 0 0 0 0 0
0 0 0 0 0 0 0 0 0 0 0 0 0 0 0 0 0 0 16 49 58 135 218 361 223 184 216 349 546 783 1006 1060 1112 1179 1084 328 13 0 0 0 0 0 0 0
0 0 0 0 0 0 0 0 0 0 0 0 0 0 0 0 0 0 0 5 21 69 251 328 430 391 368 417 625 843 1083 1221 1179 963 564 187 0 0 0 0 0 0 0 0
0 0 0 0 0 0 0 0 0 0 0 0 0 0 0 0 0 0 0 2 0 8 113 200 567 651 577 547 653 895 1177 1370 1273 731 220 56 0 0 0 0 0 0 0 0
0 0 0 0 0 0 0 0 0 0 0 0 0 0 0 0 0 0 0 0 0 0 84 126 559 715 741 671 709 980 1230 1445 1524 852 123 8 0 0 0 0 0 0 0 0
0 0 0 0 0 0 0 0 0 0 0 0 0 0 0 0 0 0 0 0 0 1 31 78 296 614 670 632 882 1089 1317 1408 1536 982 34 6 0 2 2 0 0 0 0 0
0 0 0 0 0 0 0 0 0 0 0 0 0 0 0 0 0 0 0 0 0 0 15 63 114 285 402 392 653 1065 1321 1365 1306 662 73 22 13 14 19 0 0 0 0 0
0 0 0 0 0 0 0 0 0 0 0 0 0 0 0 0 0 0 0 0 0 0 0 21 127 161 236 306 377 695 1010 1240 1137 533 218 138 44 18 3 0 1 0 0 0
0 0 0 0 0 0 0 0 0 0 0 0 0 0 0 0 0 0 0 0 0 0 0 0 20 99 162 172 163 581 897 1087 1222 866 494 409 149 101 87 37 1 0 0 0
0 0 0 0 0 0 0 0 0 0 0 0 0 0 0 0 0 0 0 0 0 0 0 0 0 0 0 0 79 448 781 1038 1252 1049 792 572 173 72 0 0 9 0 0 0
1 0 0 0 0 0 0 0 0 0 0 0 0 0 0 0 0 0 0 0 0 0 0 0 0 0 0 0 37 291 592 964 1265 1151 1013 442 113 46 0 0 0 4 1 0
0 0 0 0 0 0 0 0 0 27 13 0 1 0 0 0 0 0 0 0 0 0 0 28 1 0 0 16 137 368 609 940 1156 1146 866 489 240 73 64 43 0 0 0 0
0 0 0 0 0 0 0 0 0 2 17 0 0 0 0 0 0 0 0 0 0 0 0 7 109 73 194 198 441 497 571 798 1005 931 782 546 455 115 0 4 0 0 0 0
0 0 0 0 1 2 0 0 0 31 0 0 0 0 0 0 0 0 0 0 0 1 38 79 259 480 390 356 520 590 444 696 676 540 584 615 447 307 26 0 0 0 10 24
0 69 17 0 13 94 0 6 11 0 0 0 0 0 0 0 0 0 0 1 2 13 57 63 108 340 603 454 563 520 557 402 381 274 132 34 43 27 0 0 0 0 11 9
84 98 28 0 0 0 0 0 0 0 0 0 0 0 0 0 0 1 4 6 37 116 162 301 375 483 296 307 354 421 86 165 41 0 0 0 0 0 0 0 0 0 0 2
136 0 0 0 0 0 0 0 0 0 0 0 0 0 0 0 94 79 252 146 51 68 140 201 203 191 115 59 30 2 37 8 0 0 0 0 0 0 0 0 0 0 0 0
1 20 0 0 0 0 0 0 0 0 0 0 0 0 0 0 0 0 0 75 44 17 78 84 81 53 97 40 1 11 2 0 0 0 0 0 0 0 0 0 0 0 0 12
0 3 0 0 0 0 0 0 0 0 0 0 0 0 0 0 0 0 0 0 1 40 23 2 0 69 5 0 0 0 0 17 20 0 0 0 0 0 0 2 2 0 0 0

GFSCGP_con_sbcape_009.txt.gz
CAPE
0 0 0 0 0 0 0 44 77 52 33 49 91 88 438 520 555 691 1004 1071 1058 1022 1051 1282 1482 1473 1584 1707 1818 2050 2173 2478 2596 2422 2477 2431 2273 2525 2228 2420 2100 1799 1848 1785
0 0 0 0 0 0 0 23 68 17 34 57 53 57 203 527 500 522 662 847 904 977 1084 1201 1317 1216 1253 1541 1680 2002 2274 2534 2805 2474 2596 2457 2484 2430 2247 2298 2290 2083 1889 1962
0 0 0 0 0 0 0 7 23 23 8 38 75 35 100 448 487 419 422 475 533 615 785 852 963 1077 1089 1247 1496 1802 2428 2705 2684 2728 2607 2494 2356 2283 2311 2291 2222 2094 2001 1927
0 0 0 0 0 0 0 0 19 45 30 11 48 23 54 197 528 515 477 404 391 409 507 563 693 859 1021 1090 1175 1642 2141 2631 2603 2790 2501 2566 2281 2242 2228 2096 2045 2114 2099 1800
0 0 0 0 0 0 0 0 0 8 42 1 37 2 0 131 287 571 560 494 400 367 385 462 566 647 788 993 1033 1225 1973 2486 2537 2702 2917 2613 2579 2369 2186 1611 1846 2350 2095 1770
0 0 0 0 0 0 0 0 0 0 0 0 0 4 0 112 197 253 364 414 429 377 395 446 496 503 611 783 911 1133 1889 2371 2242 2341 2641 2681 2646 2580 1949 1284 1017 1348 1548 1089
0 0 0 0 0 0 0 0 0 0 0 0 0 2 10 21 115 156 167 240 284 321 338 403 537 554 654 879 1003 1192 1916 2206 1797 2027 2318 2461 2585 2787 2345 1857 1050 1003 1145 740
0 0 0 0 0 0 0 0 0 0 0 0 0 0 3 47 43 64 121 155 182 218 268 380 532 864 869 911 1065 1210 1767 2178 1823 1881 2507 2649 2770 2438 2095 1660 1002 906 934 637
0 0 0 0 0 0 0 0 0 0 0 0 0 0 0 0 2 3 51 109 229 307 476 528 605 693 1070 1171 1521 1704 1985 2183 1887 1858 2448 2457 2596 2406 2059 1342 819 821 793 244
0 0 0 0 0 0 0 0 0 0 0 0 0 0 0 7 11 54 22 134 258 448 606 661 969 891 1146 1157 1383 1516 1913 2172 2138 1882 2244 2368 2462 2266 2119 1355 569 487 438 230
0 0 0 0 0 0 0 0 0 0 0 0 0 0 0 4 150 74 59 93 253 464 748 993 1076 1044 1166 1218 1321 1593 1621 1992 1980 2082 2552 2518 2250 1925 1821 1224 342 274 334 275
0 0 0 0 0 0 0 0 0 0 0 0 0 0 0 0 0 2 41 24 77 520 872 862 1027 1107 1106 1329 1210 1420 1521 1625 2266 2435 2502 2125 1902 1710 874 1157 145 356 24 210
0 0 0 0 0 0 0 0 0 0 0 0 0 0 0 0 0 0 1 43 98 289 515 848 972 1408 1296 1372 1769 1506 1806 1750 1846 2296 2036 1893 1374 989 1538 216 123 136 205 168
0 0 0 0 0 0 0 0 0 0 0 0 0 0 0 0 5 25 24 85 114 144 628 779 952 1650 1825 1992 2098 2052 1929 1847 1889 1979 2062 1845 1358 1381 467 280 330 169 150 336
33 0 0 0 0 0 0 0 0 0 0 0 0 0 0 20 114 223 197 240 108 169 383 799 1025 1743 2044 2149 2036 1991 1846 2162 2251 2388 2189 1973 1365 1028 1054 394 65 2 0 57
0 33 0 0 0 0 0 0 0 0 0 0 0 0 0 0 39 131 137 265 191 202 351 657 907 1065 1331 1644 1628 1556 1855 2149 2357 2562 2276 1925 1572 1045 723 201 108 1 0 0
319 5 66 0 0 0 0 0 0 0 0 0 0 0 0 0 3 96 270 358 494 470 409 600 992 1252 1121 1145 1298 1313 1560 1764 2155 2434 2204 1881 1594 1066 686 356 214 83 20 0
472 274 0 16 0 0 0 0 0 0 0 0 0 0 0 28 173 93 85 306 542 694 678 560 382 609 795 828 914 1150 1437 1998 2252 2298 2212 1924 1571 1088 681 566 440 149 11 157
299 23 0 0 2 2 0 0 0 0 0 0 0 0 0 0 25 56 0 2 154 204 343 501 379 361 527 538 800 1135 1424 1746 2018 2227 2302 2128 1654 1150 883 804 351 495 162 102
145 164 120 15 1 0 19 0 0 0 0 0 0 1 24 6 26 170 0 6 83 226 482 717 541 554 641 807 904 1247 1483 1721 2006 2155 2285 2225 1627 1386 951 702 299 267 145 21
422 206 183 326 133 5 1 0 16 50 32 0 0 0 19 99 125 45 99 285 457 528 682 1067 1181 1180 1229 1172 1548 1778 1766 1846 2053 2219 2242 1951 1513 1352 1210 576 441 302 226 5
223 253 216 299 238 113 0 23 211 136 20 45 64 50 66 74 99 165 228 315 450 477 475 680 1030 1207 1394 1534 1828 1963 1795 1535 1850 1919 1824 1345 1348 715 385 274 191 435 271 11
184 151 217 137 14 0 0 0 1 134 121 117 209 173 290 306 391 430 456 495 601 795 923 1047 1231 1241 1225 1380 1614 1592 1408 1309 1506 1612 1167 912 969 556 236 230 151 53 16 42
258 83 35 14 0 0 0 0 0 0 0 4 76 42 71 108 427 645 669 655 712 865 959 993 1154 1198 980 930 927 1095 787 1104 1115 1024 822 922 932 590 411 277 198 361 112 27
27 5 17 23 0 0 0 0 0 0 0 0 0 0 0 0 0 270 499 594 668 745 756 930 1251 1176 891 896 894 868 864 814 847 853 663 511 369 454 277 78 1 11 50 0
9 3 7 15 0 1 0 0 0 0 0 0 0 0 0 0 0 0 0 54 158 453 815 921 982 918 674 776 704 703 748 711 701 601 380 193 9 7 0 0 1 0 0 0

GFSCGP_con_sbcape_012.txt.gz
CAPE
0 0 0 0 0 0 2 19 46 53 178 271 184 152 409 792 773 714 990 927 641 469 556 954 1326 1418 1456 1773 2024 2317 2327 2500 3170 1872 1703 1902 1763 1749 1844 1952 2177 2264 2149 1971
0 0 0 0 0 0 0 3 40 88 154 179 140 198 211 441 810 680 794 987 1039 654 555 967 1331 1362 1395 1757 2132 2421 2616 2778 3006 2132 2923 2108 2023 1678 1973 2019 2159 2279 2176 2215
0 0 0 0 0 0 0 0 18 99 144 180 106 187 170 125 491 662 689 674 1003 877 719 794 985 1236 1320 1541 2085 2427 2770 2950 3081 2717 2701 2840 2644 2642 2220 2060 2150 2323 2430 2386
0 0 0 0 0 0 0 0 4 75 109 114 137 108 55 97 315 567 756 684 535 888 923 861 906 1048 1264 1445 1774 2375 2759 3069 3122 3316 3351 3277 2197 1466 1050 1153 944 1112 1734 1868
0 0 0 0 0 0 0 0 0 26 77 93 123 135 31 38 127 379 694 768 537 303 627 852 878 858 1117 1303 1583 2049 2734 3268 3227 3301 3808 2905 2904 1531 1336 1260 1286 1377 1652 1448
0 0 0 0 0 0 0 0 9 29 44 83 89 74 4 11 133 87 300 605 673 232 213 433 621 730 996 1172 1404 1669 2739 3672 3255 3276 3388 3356 2719 2198 1371 1648 1280 790 876 1304
0 0 0 0 0 0 0 0 21 42 45 43 41 47 0 0 10 29 36 273 678 321 216 296 487 724 1008 1201 1354 1584 2372 3316 3058 3118 3106 3320 3293 3039 2695 2398 1476 672 597 545
0 0 0 0 0 0 0 0 7 44 29 32 15 4 0 27 9 0 20 67 493 485 170 271 468 694 1002 1131 1359 1610 2224 3230 2908 2846 3118 3659 3509 3058 2758 2681 1019 701 304 338
0 0 0 0 0 0 0 0 0 34 46 41 6 1 0 4 5 10 29 83 325 585 235 252 457 680 932 1196 1882 2409 3028 2838 2738 2597 2946 3399 3489 3215 2816 2665 2269 1264 920 335
0 0 0 0 0 0 0 0 0 8 70 40 7 18 0 18 0 0 45 117 257 549 575 225 492 677 938 1166 1416 1739 2071 2586 2481 2508 2648 2777 2961 3222 3134 2890 2516 2063 1078 865
0 0 0 0 0 0 0 0 0 1 4 23 37 2 0 0 0 0 3 109 144 472 735 665 467 696 1003 1095 1256 1621 1940 2302 2421 2449 3018 2941 2715 2845 3153 3158 2857 2293 1603 1191
0 1 0 0 0 0 0 0 0 0 1 9 14 2 1 0 0 0 0 3 43 241 735 912 835 856 1000 1260 1233 1413 1647 1872 2219 2984 3207 2837 2943 2890 2852 3601 2886 2746 1871 1007
2 1 13 0 0 0 0 0 0 0 0 84 23 0 0 0 0 9 29 54 77 336 734 1020 1098 1275 1275 1285 1798 1528 1754 1744 1754 2669 2366 2461 2770 2801 3175 3108 2759 1537 1297 788
0 1 0 0 0 0 0 0 0 0 0 0 4 33 12 0 0 0 0 51 88 567 788 1109 1208 1487 1598 1992 2643 2704 1908 1937 1979 1988 2368 3066 2930 2897 2805 3006 2392 1016 425 464
0 6 41 3 0 4 0 0 0 0 0 0 0 4 13 0 0 0 0 0 130 662 824 1127 1386 2368 2734 2785 3024 2687 2264 2419 2395 2635 2424 2877 3193 2853 2530 3017 1927 1003 590 529
0 79 110 70 21 23 33 18 0 0 0 0 0 0 0 0 0 0 0 0 53 857 973 1226 1523 1793 2238 2388 2502 2491 2568 2428 2570 2991 2760 3206 3658 3174 2733 2972 1661 735 294 253
3 38 283 119 76 108 81 6 7 3 0 0 0 0 0 0 0 0 0 26 191 782 1053 1215 1508 1778 2235 2316 2533 2529 2617 2567 2668 2923 2969 3109 3413 3262 2992 2815 1746 974 532 296
209 375 365 327 308 205 8 0 8 4 0 0 0 0 0 0 0 0 20 14 44 852 1096 1280 1335 1651 1987 2001 2182 2239 2423 2728 2967 3049 3088 3145 3180 3059 2676 2170 1842 1436 699 281
73 302 406 301 212 142 64 279 98 42 0 0 0 0 0 0 0 51 293 284 451 874 1334 1417 1389 1712 1957 1765 1939 2123 2152 2462 2610 2781 3003 3001 2957 2824 2516 1917 1166 1139 790 378
215 306 429 301 185 189 473 105 77 188 67 0 0 0 0 0 0 1 456 178 238 624 1200 1366 1138 1362 1682 1616 1715 1965 1924 2191 2458 2619 2922 3021 3021 2835 2272 1996 1715 946 471 327
567 532 273 404 345 303 140 41 295 316 84 248 0 0 0 0 158 530 467 543 608 805 1092 1224 1356 1480 1578 1451 1523 1853 1888 2139 2288 2526 2903 3169 3172 2776 2426 2280 1501 826 437 354
536 527 330 358 530 431 0 187 508 525 536 402 360 164 230 481 584 745 888 1093 1354 1561 1575 1548 1671 1766 1788 1848 2140 2303 2430 2591 2801 2992 3020 3195 2624 2129 1929 1166 859 574 748 1052
544 357 410 460 434 60 25 0 18 345 661 619 575 539 601 614 727 818 824 820 849 868 764 941 1378 1782 1958 2104 2157 2505 2887 2685 2852 2895 2938 1977 1929 1538 1181 678 568 494 748 619
567 556 625 531 209 34 1 0 0 156 491 525 574 568 611 614 674 837 985 1099 1046 983 965 1055 1237 1571 2047 2246 2463 2646 2459 2413 2536 2162 1566 1380 977 794 694 497 499 738 794 681
245 499 511 242 34 1 0 0 0 0 4 24 65 182 533 846 980 1004 1171 1232 1160 1185 1237 1189 1251 1669 2148 2260 2309 2143 2022 2109 2189 1646 1473 1415 989 1182 970 1 146 560 518 130
13 187 554 248 25 60 0 0 0 0 0 0 0 0 2 20 30 13 63 143 525 1285 1547 1620 1582 1688 1926 2012 2145 2083 2029 2140 1931 1558 1507 1349 1208 1113 821 362 20 0 0 0

GFSCGP_con_sbcape_015.txt.gz
CAPE
0 0 0 0 0 0 19 66 12 70 31 94 158 183 258 506 474 266 255 148 172 227 475 587 899 896 951 1175 1564 1937 2460 3670 2634 1982 2686 2118 1906 2163 1524 1369 2007 2571 2308 2338
0 0 0 0 0 0 0 36 65 38 40 63 150 200 296 597 508 537 458 325 223 179 228 478 830 881 1122 1283 2042 3020 3252 4003 3521 2480 2875 2565 2083 1415 1364 1221 2150 2007 2195 2546
0 0 0 0 0 0 0 11 47 74 146 94 129 148 194 220 532 549 438 544 411 208 68 347 620 920 1089 1431 2121 3206 4019 4280 3988 3735 3138 2831 3269 2326 1745 1284 1988 2097 2085 2041
0 0 0 0 0 0 0 0 14 63 57 147 29 160 185 121 194 439 671 553 607 341 189 170 617 954 992 1426 1814 3184 4014 4325 4024 4221 3026 3582 2234 1478 877 1110 901 1588 1557 1450
0 0 0 0 0 0 0 0 14 37 142 202 77 106 58 75 133 174 434 666 638 446 372 257 445 742 909 1159 1441 2529 4175 4430 4485 4462 3650 2669 2904 1146 1007 811 1960 1808 2312 1216
0 0 0 0 0 0 0 0 26 37 73 111 160 125 193 55 126 167 166 433 753 697 364 577 472 651 772 965 1323 2316 4154 4608 4573 4535 4404 4413 4341 2713 1483 1686 1416 835 781 1118
0 0 0 0 0 0 0 0 22 62 72 49 108 140 216 125 89 75 67 115 472 816 571 349 768 644 1116 1528 1894 2453 3952 4599 4578 4107 4090 4077 4339 4269 3348 2656 1401 1419 642 815
0 0 0 0 0 0 0 0 1 30 52 51 53 84 84 109 53 65 43 32 90 540 719 283 395 900 1346 1376 2331 2589 3494 4413 4544 4256 4532 4568 4641 2714 2328 2773 1582 771 633 856
0 0 0 0 0 0 0 0 0 23 71 90 73 62 41 53 108 78 40 20 24 362 666 449 267 379 982 1342 2195 2641 3483 4139 4334 3238 4648 4682 4617 4462 2654 3201 3465 1702 1741 703
0 0 0 0 0 0 0 0 0 15 132 137 80 84 67 67 49 27 29 6 10 130 633 531 332 354 897 882 1501 2422 3071 3942 3641 3764 4137 3927 4284 4659 4431 4495 4161 2856 2343 1931
0 0 0 0 0 0 0 0 0 2 45 80 100 102 80 116 56 23 15 11 18 61 501 651 395 399 634 679 1041 1654 2295 3220 3457 3581 3696 3833 3711 3851 4517 4317 4078 3805 2606 2670
0 0 0 0 0 0 0 0 0 24 28 29 119 88 35 21 21 17 27 25 50 44 261 608 541 500 576 899 769 1037 1522 1582 2649 3060 3814 3886 4009 3961 3808 4364 4249 4189 3441 2714
0 0 0 0 0 0 0 0 0 0 11 164 99 16 19 33 55 61 40 6 32 67 84 518 666 695 761 879 1170 865 1374 1084 1462 2811 3043 3697 3691 4136 3873 4406 4276 4181 3661 3144
0 2 0 0 0 0 0 0 0 0 0 11 14 68 91 69 31 10 8 18 0 3 484 375 774 1326 1436 1667 1856 1737 1423 1058 1345 1798 2101 3089 3737 3765 3893 4382 4290 4343 4014 3034
0 0 0 0 3 7 0 0 0 0 0 3 4 53 62 96 94 33 7 5 0 0 195 866 1099 2330 2724 2519 2651 2527 2100 2269 1811 2401 2431 2942 3741 3980 4128 4119 4437 4395 3657 2711
0 0 0 2 2 1 6 10 0 0 0 0 0 0 23 36 163 57 0 0 0 3 21 937 1220 1703 3066 3016 3326 3262 3071 3059 2789 3370 3204 3519 4338 4131 4172 4404 4527 4369 3764 2785
0 14 8 5 24 77 77 1 2 7 8 0 0 0 0 9 53 57 16 7 0 1 67 250 1117 1533 2412 2500 3635 3523 3828 3418 3640 3969 4528 4299 4818 4753 4784 4624 4542 4130 3722 2411
3 49 45 61 174 215 0 78 31 20 32 35 24 2 0 9 11 24 0 1 59 187 235 176 963 1521 2558 2276 2394 3080 3080 4214 4333 4608 4476 4761 4835 5073 4932 4553 4347 3739 2676 1743
38 34 56 115 120 115 160 277 330 367 213 40 31 65 15 0 0 4 0 6 42 38 166 170 1198 1483 3009 2948 3527 3654 3475 3969 4236 4439 4584 4673 4739 4768 4779 4271 3805 2849 2050 1571
34 121 269 262 139 241 302 495 224 384 161 67 209 217 51 11 10 0 0 0 7 255 233 362 1421 1681 2672 3228 2600 3233 2973 3309 3641 3906 3859 4359 4452 4606 4203 3782 3163 2827 2245 1420
2 72 53 188 239 180 661 275 282 384 311 960 774 747 509 196 6 3 404 10 66 471 456 1544 1925 2759 3292 2861 2643 3613 3404 3197 3024 2911 3007 3634 3816 4184 4108 3652 2891 2463 2136 1409
11 85 80 243 177 193 432 469 468 845 893 969 975 854 812 791 20 571 847 851 909 897 1233 1825 2308 2468 2829 2986 3299 3752 3564 3535 3709 3708 3664 3754 4074 3356 3115 3084 2569 2033 1240 712
160 77 129 377 475 666 452 555 635 732 1067 1055 1080 1044 964 652 922 1027 1349 1596 1757 1804 1699 1759 2036 2295 2691 3120 3176 3710 4618 4303 4160 3959 4254 3999 3467 2721 2650 2371 1872 1391 895 592
269 283 608 951 697 380 313 417 644 898 933 1191 1379 1171 1084 1253 1220 1291 1323 1368 1557 1756 1849 1921 2077 2249 3248 3616 3475 3606 3349 3481 3520 3739 2930 2683 2344 1862 1717 1652 1234 875 806 818
8 187 987 1009 517 408 218 240 352 337 435 724 626 743 1251 1356 1474 1452 1604 1312 1091 1064 1135 1471 1831 2059 2420 2687 2689 2731 2937 3178 3075 2183 1732 1554 1334 1407 726 165 404 821 52 340
10 20 526 730 508 528 57 5 1 1 0 12 44 36 147 367 389 541 863 1326 1276 1137 1151 1271 1580 1969 2418 2587 2684 2769 2915 2721 2375 2120 1744 1574 1409 713 390 39 2 0 0 2

GFSCGP_con_sbcape_018.txt.gz
CAPE
0 0 0 0 0 0 0 0 1 7 19 5 320 32 14 26 163 51 73 62 135 262 408 648 669 701 838 1449 2222 2379 2739 3512 3724 3399 2285 2568 2616 3007 2685 3066 2856 2564 3121 3213
0 0 0 0 0 0 0 0 8 30 40 62 143 416 189 211 235 118 65 27 23 38 224 615 821 716 876 1534 1945 2589 2763 3927 3340 3162 3031 2688 2425 2326 2545 1114 2885 2964 2960 3361
0 0 0 0 0 0 0 0 0 0 24 35 46 60 219 202 194 202 111 108 28 30 41 579 788 795 1051 1458 2155 2780 3083 3438 3059 3429 2922 3304 3083 2588 2500 2557 3078 2382 3210 3000
0 0 0 0 0 0 0 0 0 2 31 20 22 39 367 124 453 284 227 250 251 93 81 281 699 1061 1035 1520 2261 2909 3212 3317 3617 3110 3136 3110 2193 2454 2655 3014 2581 3151 2708 2728
0 0 0 0 0 0 0 0 0 0 5 80 191 76 240 315 395 558 328 295 277 552 178 129 561 885 1019 1531 1990 2799 3511 3768 3555 3754 3084 3158 2830 2392 2081 1886 3295 2906 3634 2511
0 0 0 0 0 0 0 0 0 0 1 25 43 56 141 270 104 18 258 371 503 496 569 336 429 751 1054 1340 2064 2228 3703 3747 3639 3884 3479 3721 2712 2310 2355 3099 2536 2578 2097 2078
0 0 0 0 0 0 0 0 0 1 27 8 51 119 109 154 142 44 0 157 583 701 743 606 520 833 1173 1368 1812 2457 3498 3711 3700 3910 3825 3395 3918 3421 3724 3973 2589 1785 945 1546
0 0 0 0 0 0 0 0 0 0 1 4 16 34 114 345 93 34 41 152 368 713 638 714 786 748 1274 1276 1866 2284 3407 3683 3976 3569 4179 3927 3808 3862 3033 3513 2655 2236 1786 1833
0 0 0 0 0 0 0 0 0 0 0 23 21 33 23 102 171 5 9 67 76 546 721 776 880 985 1403 1379 1611 2241 3391 3757 4022 3952 3842 4215 3663 3705 3251 3121 3133 2439 2180 2863
0 0 0 0 0 0 0 0 0 0 1 15 22 77 103 173 291 188 13 57 64 44 829 883 773 1083 1265 1549 1647 2266 2870 3649 4056 4015 3907 3870 3929 3594 3337 3322 3448 2300 2706 2169
0 0 0 0 0 0 0 0 0 0 0 2 26 30 156 393 593 436 120 49 49 21 593 715 877 706 1269 1466 1686 2026 2438 3442 3918 3887 3803 3954 3945 3965 3565 3886 3275 2995 3075 2296
0 0 0 0 0 0 0 0 0 0 0 0 0 20 73 199 163 303 127 124 69 71 216 640 970 724 858 1115 1377 1917 2310 2862 3473 3681 3550 3837 3983 3965 4038 3502 3988 3593 3121 3153
0 0 0 0 0 0 0 0 0 0 0 1 2 0 12 168 0 96 155 76 208 463 726 776 902 812 830 945 1318 1714 2094 2386 3155 3340 3286 3534 3473 3695 3672 4042 3458 3983 3422 2681
14 0 0 0 0 0 0 0 0 0 0 0 1 6 72 313 204 61 194 98 199 638 1486 933 811 1130 947 1124 1338 1483 1773 1964 2386 3023 3061 3154 3302 3370 3366 3607 3977 3797 3699 2975
0 1 0 0 0 3 0 0 0 0 0 0 0 0 80 167 470 242 390 52 223 666 857 1234 1264 2068 1613 1545 1530 1449 1469 1579 1711 2394 2673 2982 3276 3367 3481 3519 3873 3779 3930 3500
0 7 0 0 0 0 6 1 0 0 0 0 0 0 0 58 226 556 9 133 316 416 606 1415 1672 2757 3021 2056 1883 1556 1451 1544 1677 1857 2407 2758 3065 3444 3384 3781 3580 4121 3973 3830
12 2 39 0 0 4 54 0 1 0 0 0 0 0 4 43 75 295 592 219 377 257 330 888 1847 2006 2339 3174 2420 1856 1702 1904 1774 2330 2462 2567 3025 3393 3590 3598 3878 3835 3987 3940
91 17 5 6 27 67 0 3 0 3 8 2 0 0 0 0 0 4 21 164 255 404 322 659 378 1908 2411 1984 2546 2688 2400 2382 2702 2697 3023 3056 3386 3657 3779 3748 3806 4047 4085 3995
38 51 68 91 13 0 0 0 51 68 16 22 42 170 34 10 0 17 0 0 2 95 946 796 173 380 2611 2310 2929 3064 3367 2925 3128 3440 3950 3913 4544 4447 4301 4234 4309 4285 4290 3974
2 143 100 88 39 18 47 127 391 241 131 413 569 336 295 305 351 158 2 8 6 0 67 401 725 1215 2754 3104 2996 3534 3277 3741 3333 3597 4157 4576 4929 5096 4906 4903 4765 4640 3588 2677
54 112 100 57 22 1 277 511 302 284 290 945 885 779 633 623 896 1176 888 375 1087 324 44 253 2437 2538 3034 3577 3229 3665 3483 4005 3986 4103 4760 4741 4978 4992 5082 5068 4172 2865 2278 2020
58 23 97 244 161 184 598 175 158 851 941 685 786 732 922 1089 929 948 1117 1173 941 1428 536 1305 3833 4000 3991 3772 4190 4093 4171 4470 4580 4683 4592 4756 4925 4372 4515 4242 3337 2384 2076 1624
36 61 31 113 103 1672 648 1012 895 783 976 1536 1720 1324 766 724 957 899 1677 1355 1136 1979 2152 2091 3614 4332 4357 4307 4684 4350 4833 4303 4260 4150 4445 4607 4606 4179 3319 2802 2443 2046 1557 1055
198 327 332 289 767 891 777 786 957 1027 1388 1315 1682 1915 1930 1337 1483 1624 1688 1827 2509 2571 2335 3285 3401 3671 4205 4533 4533 4391 4008 4373 4213 4600 4426 3403 3064 2687 2412 2072 1872 1297 1008 884
190 104 500 949 1189 681 686 691 710 775 851 699 772 690 829 839 908 1757 1998 2367 2608 2831 3174 3480 3526 3713 4501 4557 4250 4239 4305 4415 3944 3328 2744 2002 1586 1738 337 0 423 1007 192 705
0 119 439 987 193 529 531 280 102 31 169 236 155 20 70 17 13 90 383 1164 2005 2224 2552 2334 2394 2686 3273 3512 3651 4000 4007 3230 2677 2159 1801 1561 1012 752 531 127 0 0 1 0

GFSCGP_con_sbcape_021.txt.gz
CAPE
0 0 0 0 0 0 0 0 0 0 18 47 17 4 7 0 0 0 34 0 60 79 83 236 195 357 633 1259 1069 1221 1309 1468 1280 1741 1767 1870 1368 1730 1129 1130 1460 1572 1555 1693
0 0 0 0 0 0 0 0 0 0 20 44 106 18 0 0 0 0 1 8 36 64 49 172 163 191 482 1068 1057 972 1377 2367 1549 1577 1515 1484 1458 1592 1575 1590 1986 1827 1754 1741
0 0 0 0 0 0 0 0 0 0 0 50 116 56 0 0 0 0 0 1 28 31 49 163 148 164 254 797 1188 1201 1300 2292 2099 1629 1654 1586 1566 1633 1353 1407 1589 1831 1870 1941
0 0 0 0 0 0 0 0 0 0 0 0 78 43 7 0 10 4 0 0 2 32 61 126 182 184 206 744 1293 1261 1479 2355 1669 1872 1476 1474 1201 1167 1375 1530 1710 1950 1816 1628
0 0 0 0 0 0 0 0 0 0 0 7 0 0 44 38 20 27 0 0 0 0 2 70 264 185 318 803 1082 1555 1574 1742 1769 1983 1437 1394 1303 942 1316 1017 1408 2168 1557 1523
0 0 0 0 0 0 0 0 0 0 0 1 0 0 1 56 14 27 44 7 1 0 0 41 135 280 252 851 1218 1823 1786 1758 2166 1358 1813 1691 1686 1419 1277 1192 1795 1657 1580 1168
0 0 0 0 0 0 0 0 0 0 0 0 0 0 0 16 11 124 118 59 78 22 0 0 100 321 359 882 1451 1875 1879 1982 2144 2195 1809 1856 1765 1252 1101 1605 1391 1418 871 635
0 0 0 0 0 0 0 0 0 0 0 0 0 0 0 44 39 167 115 6 92 66 18 2 98 197 482 683 1297 2051 2156 2106 2469 2351 2415 1993 2220 1472 1466 1854 1182 574 603 571
0 0 0 0 0 0 0 0 0 0 0 0 0 0 0 13 40 68 10 4 2 0 178 70 59 128 405 601 1418 1467 2483 2311 2403 2624 2584 2257 2012 2476 2533 1900 1900 706 124 720
0 0 0 0 0 0 0 0 0 0 0 0 0 0 0 0 30 27 5 2 7 0 157 192 73 145 457 637 1206 1535 2577 2489 2570 2092 2725 2830 2474 2195 2419 1876 1788 1455 673 1374
0 0 0 0 0 0 0 0 0 0 0 0 0 0 0 0 82 62 3 1 1 0 37 260 206 225 594 718 1062 1539 2328 2519 2689 2637 2303 2769 3006 2505 2304 2310 1798 1454 1399 954
0 0 0 0 0 0 0 0 0 0 0 0 0 0 0 0 80 98 38 0 0 0 171 314 350 353 792 791 841 1529 2633 2683 2815 2948 2737 2467 2806 2851 2396 2148 2119 1912 1218 1133
0 0 0 0 0 0 0 0 0 0 0 0 0 0 0 0 4 4 0 7 0 7 338 398 296 601 867 931 846 1387 2213 2832 2953 3030 2995 2852 2617 2904 2793 2327 2318 2519 1675 1656
38 0 0 0 0 0 0 0 0 0 0 0 0 0 0 10 37 0 0 2 6 52 113 217 355 501 767 1035 1111 1123 1678 2553 2891 3134 3007 2896 2853 2858 2917 2921 2352 2525 2544 1783
0 0 0 0 0 0 0 0 0 0 0 0 0 0 0 0 122 72 74 6 3 108 607 414 359 320 637 775 962 1200 1441 1666 2570 2900 2987 2747 2833 2914 2943 2876 3039 2505 2571 2243
0 0 0 0 0 0 0 0 0 0 0 0 0 0 0 0 152 147 88 48 1 0 643 611 455 359 386 542 764 1008 1373 1556 1761 2621 2757 2700 2553 2701 2677 2781 2781 3121 2502 2737
0 0 0 0 0 0 0 0 0 0 0 0 0 0 0 0 0 212 305 55 0 13 505 529 601 935 531 667 809 1014 1250 1463 1633 1902 2518 2542 2456 2558 2593 2650 2695 3063 3059 3013
0 0 0 0 3 11 0 0 0 0 1 0 0 0 0 0 0 0 0 0 0 36 216 770 989 1183 1509 986 877 1006 1074 1273 1420 1468 2024 2298 2378 2466 2665 2713 2931 2833 3238 3091
0 0 0 0 0 0 0 0 0 0 0 6 76 17 52 14 0 0 0 0 0 0 0 30 669 1100 1233 1678 1213 979 972 1216 1180 1283 1450 2025 2237 2501 2555 2836 2804 3060 3006 3224
0 0 0 0 0 0 0 0 4 266 127 697 488 384 246 90 32 68 631 448 272 3 0 0 0 332 1464 1248 1718 1309 1125 1145 1252 1222 1762 1908 2089 2354 2737 2914 2955 3090 3232 3259
4 59 25 1 0 0 0 0 217 240 173 718 636 606 588 503 524 448 482 343 518 509 0 0 0 270 1378 1535 2221 1989 1498 1357 1693 1836 2072 2378 2724 2805 3108 3094 3267 3380 2683 1755
79 0 0 20 19 8 421 207 289 351 944 973 595 516 479 513 389 286 326 542 352 1090 988 143 0 1004 1810 1913 2424 2544 2625 2277 2010 3619 3194 4325 4111 4104 4123 3713 3027 2451 2001 1613
28 1 41 78 664 567 947 941 847 1460 1461 1652 1642 1725 1781 1638 1385 1403 1997 1946 2151 2027 2628 3142 3203 3267 3175 2801 2899 2967 3782 3763 3852 3797 3970 4038 3636 3845 3196 2677 1988 1499 1420 1179
10 85 79 297 223 151 371 463 1149 753 700 597 974 1181 1135 626 585 729 1179 1793 2510 2747 2940 3074 3153 3608 3955 4040 3965 3981 3707 3623 3663 3693 3422 2744 2721 2315 2081 1752 1494 1200 917 795
10 32 159 185 305 101 763 916 623 446 153 168 54 37 184 155 81 183 333 1048 1651 2089 2590 3237 3808 3669 3641 3671 3719 3534 3550 3547 3016 2646 2187 1776 1338 578 0 1 339 662 209 545
23 121 158 206 7 5 13 15 51 42 30 2 0 0 0 0 0 0 0 17 412 1504 1663 1694 2652 3012 3268 3426 2976 2735 2772 2467 1956 1439 1168 619 552 124 1 0 0 0 0 0

GFSCGP_con_sbcape_024.txt.gz
CAPE
0 0 0 0 0 0 0 0 0 0 0 3 6 2 0 344 357 400 432 426 373 301 273 101 484 397 191 409 856 776 850 817 861 1191 1248 1046 796 958 941 759 485 661 1256 1313
0 0 0 0 0 0 0 0 0 0 0 2 10 15 0 1 74 227 214 242 299 227 210 139 160 414 399 806 904 800 778 677 504 996 1068 1109 931 986 1003 762 924 649 1064 1337
0 0 0 0 0 0 0 0 0 0 0 15 11 21 1 0 0 0 78 110 144 96 72 89 89 288 344 795 752 709 863 859 649 749 1038 935 905 975 1126 1054 1425 1513 1284 1373
0 0 0 0 0 0 0 0 0 0 0 0 4 1 11 0 0 0 0 12 75 66 32 40 92 81 291 577 703 700 1027 1115 935 997 1275 1205 1189 1079 851 889 1083 1424 1422 1357
0 0 0 0 0 0 0 0 0 0 0 0 0 0 0 8 0 0 0 4 19 20 16 8 84 59 161 451 597 544 924 1576 1364 1194 1151 1146 833 691 692 832 1124 1082 1358 1261
0 0 0 0 0 0 0 0 0 0 0 0 0 0 0 0 0 0 0 0 0 3 0 0 39 42 46 313 657 662 665 1451 1499 1235 1131 1067 860 624 622 692 818 1324 1188 1057
0 0 0 0 0 0 0 0 0 0 0 0 0 0 0 0 0 0 0 0 0 0 0 0 17 13 25 189 616 789 782 991 1294 1389 1036 977 914 691 659 533 988 1163 1028 551
0 0 0 0 0 0 0 0 0 0 0 0 0 0 0 0 0 0 7 0 0 0 0 1 2 59 37 138 620 1001 935 872 1253 1206 1381 1103 983 1053 943 715 928 1121 1024 522
0 0 0 0 0 0 0 0 0 0 0 0 0 0 0 0 0 0 9 9 0 0 0 0 48 101 109 245 728 1124 1131 1014 1376 1321 1098 1338 1503 1277 1131 815 713 780 701 256
0 0 0 0 0 0 0 0 0 0 0 0 0 0 0 0 0 0 0 10 0 1 0 3 0 83 172 197 822 1093 1317 1229 1389 1650 1514 1343 1258 1629 1411 1187 1144 533 181 398
0 0 0 0 0 0 0 0 0 0 0 0 0 0 0 0 0 0 7 28 24 31 27 13 2 68 154 256 857 1288 1492 1362 1663 1742 1740 1784 1615 1297 1693 1878 1329 992 284 245
0 0 0 0 0 0 0 0 0 0 0 0 0 0 0 0 0 0 0 1 36 83 13 66 59 27 96 371 885 1290 1847 1630 1765 2019 2035 2024 1909 1769 1565 1766 1762 1252 741 354
0 0 0 0 0 0 0 0 0 0 0 0 0 0 0 0 0 0 0 4 0 0 0 41 115 12 88 361 683 1225 1885 1994 1969 2008 2001 2276 2335 2202 1878 1639 1718 1417 1213 606
0 0 0 0 0 0 0 0 0 0 0 0 0 0 0 0 0 0 0 0 1 0 1 31 90 42 186 422 638 1178 1521 2174 2198 2275 2050 2004 2314 2590 2327 2001 1738 1751 1592 976
0 0 0 0 0 0 0 0 0 0 0 0 0 0 0 0 0 0 0 0 0 0 17 51 140 141 398 567 644 1019 1615 2141 2299 2416 2465 2250 2154 2371 2624 2381 2037 1801 2101 1541
0 0 0 0 0 0 0 0 0 0 0 0 0 0 0 0 0 0 0 0 0 0 0 24 276 333 319 645 715 838 1417 2296 2415 2578 2619 2615 2515 2372 2389 2574 2508 2142 1942 2354
0 0 0 0 0 0 0 0 0 0 0 0 0 0 0 0 0 0 0 0 0 0 8 11 209 310 513 766 851 842 1260 2068 2500 2611 2735 2697 2651 2637 2607 2554 2589 2682 2279 2033
0 0 0 0 0 0 0 0 0 0 0 0 0 0 0 0 0 0 0 0 0 0 0 201 307 371 649 756 879 1065 1093 1568 2295 2465 2673 2781 2646 2602 2646 2681 2656 2601 2817 2295
0 0 0 0 0 0 0 0 0 0 0 0 0 0 0 0 0 0 0 0 0 0 0 45 291 347 359 399 580 857 1117 1402 1686 2063 2452 2653 2623 2495 2557 2546 2560 2550 2760 2810
0 0 0 0 0 0 0 0 0 0 0 140 0 0 0 0 0 0 61 74 0 0 0 0 530 851 914 480 536 693 884 1295 1528 1793 1865 2455 2480 2402 2392 2512 2452 2566 2655 2868
62 13 2 0 3 0 0 0 19 2 0 234 37 5 0 21 0 0 47 59 100 19 183 0 0 56 848 1140 721 651 759 928 1403 1618 1713 1871 2327 2315 2339 2374 2527 2581 2618 2716
77 85 18 0 0 0 0 5 5 33 445 136 330 35 14 591 1665 1992 1566 1032 450 59 192 438 0 0 3 845 1170 878 712 814 1059 1221 1266 1305 1844 2127 2163 2297 2544 2515 2571 2376
84 87 3 0 6 0 67 289 800 1039 1203 981 1079 924 1093 1273 1430 1778 2153 2248 2464 2459 2446 2355 319 0 0 627 1409 1246 946 902 895 1069 1044 1546 1672 1864 2306 2521 2722 2613 1999 1658
141 184 46 0 30 0 0 0 116 217 129 96 145 231 425 778 783 1280 1497 1792 2103 2185 2441 2551 2726 2326 2316 1804 1039 1335 1437 1175 1455 1615 1819 2621 2860 3071 2901 2744 2486 2092 1610 1099
45 107 97 3 7 15 0 0 0 0 0 0 0 0 0 6 18 86 154 479 1277 1854 1824 1948 2217 2363 2397 2418 2592 2762 2739 1990 2747 2999 3127 3152 2529 2056 751 29 704 894 420 753
17 160 19 85 14 0 2 0 0 0 0 0 0 0 0 0 0 0 0 0 31 897 1273 975 759 922 1117 1221 1753 2883 2818 2615 2355 2104 1299 743 230 1 1 1 1 4 1 0

GFSCGP_con_sbcape_027.txt.gz
CAPE
0 0 0 0 0 0 0 0 0 0 0 0 0 0 422 379 326 379 755 821 862 735 642 546 395 379 348 287 302 360 391 345 541 440 642 539 353 338 603 629 623 793 988 1155
0 0 0 0 0 0 0 0 0 0 0 0 0 0 0 393 391 339 364 501 640 702 459 152 353 268 264 259 336 417 375 271 480 679 701 787 481 381 493 638 481 446 1002 1067
0 0 0 0 0 0 0 0 0 0 0 0 0 0 0 288 447 448 382 295 260 255 184 42 122 302 223 122 331 471 445 420 450 683 637 581 554 634 746 627 642 651 495 987
0 0 0 0 0 0 0 0 0 0 0 0 0 0 0 24 361 353 316 306 242 189 173 93 73 286 248 149 235 493 480 478 377 592 818 874 726 645 664 781 784 1136 1297 1004
0 0 0 0 0 0 0 0 0 0 0 0 0 0 0 0 0 0 75 141 154 164 162 126 38 194 281 272 378 553 512 503 410 317 700 679 585 643 499 519 841 823 984 982
0 0 0 0 0 0 0 0 0 0 0 0 0 0 0 0 0 0 0 9 45 56 92 102 79 45 224 320 549 550 517 558 510 387 574 696 721 559 461 388 666 730 830 961
0 0 0 0 0 0 0 0 0 0 0 0 0 0 0 0 0 0 0 0 2 4 16 28 8 28 34 201 544 594 529 760 729 661 706 829 786 539 438 360 462 606 817 717
0 0 0 0 0 0 0 0 0 0 0 0 0 0 0 0 0 0 0 0 0 0 4 3 2 6 32 89 347 510 521 828 993 947 851 833 803 620 552 240 351 605 862 759
0 0 0 0 0 0 0 0 0 0 0 0 0 0 0 0 0 0 0 0 0 0 0 0 2 2 28 25 168 437 449 646 1128 1122 949 858 775 697 574 367 354 582 730 778
0 0 0 0 0 0 0 0 0 0 0 0 0 0 0 0 0 0 0 0 0 0 0 0 0 2 4 19 69 394 512 506 806 1174 1076 896 833 800 683 464 544 598 583 509
0 0 0 0 0 0 0 0 0 0 0 0 0 0 0 0 0 0 0 0 0 0 0 0 7 10 14 19 28 302 568 575 605 916 1053 1081 1037 991 832 734 697 670 334 122
0 0 0 0 0 0 0 0 0 0 0 0 0 0 0 0 0 0 0 0 0 0 0 0 2 12 23 49 43 339 653 692 673 923 945 902 933 1070 1249 1115 946 855 502 73
0 0 0 0 0 0 0 0 0 0 0 0 0 0 0 0 0 0 0 0 0 0 0 0 0 0 2 42 76 499 707 901 816 966 1117 1104 1087 1033 1032 1285 1414 1098 844 210
0 0 0 0 0 0 0 0 0 0 0 0 0 0 0 0 0 0 0 0 0 0 0 0 0 0 1 33 125 564 874 1038 1003 1160 1282 1320 1374 1370 1249 1104 1146 1341 1238 612
0 0 0 0 0 0 0 0 0 0 0 0 0 0 0 0 0 0 0 0 0 0 0 0 0 0 0 14 161 540 946 1277 1186 1346 1525 1510 1534 1575 1524 1405 1249 1252 1335 1060
0 0 0 0 0 0 0 0 0 0 0 0 0 0 0 0 0 0 0 0 0 0 0 0 0 0 1 42 138 434 895 1536 1476 1521 1666 1683 1758 1842 1827 1732 1517 1297 1295 1376
0 0 0 0 0 0 0 0 0 0 0 0 0 0 0 0 0 0 0 0 0 0 0 0 0 18 29 70 241 418 890 1240 1792 1784 1787 1746 1688 1792 2036 2077 1902 1635 1457 1534
0 0 0 0 0 0 0 0 0 0 0 0 0 0 0 0 0 0 0 0 0 0 0 0 0 0 118 178 334 489 795 1310 1851 1930 1995 2053 1925 1880 1867 2013 2144 2030 1722 1607
0 0 0 0 0 0 0 0 0 0 0 0 0 0 0 0 0 0 0 0 0 0 0 0 0 0 55 231 524 634 785 1330 1902 2026 2086 2174 2262 2180 2091 2046 2102 2170 2159 1825
0 0 0 0 0 0 0 0 0 0 0 0 0 0 0 0 0 0 0 0 0 0 0 0 0 2 109 379 651 724 730 1150 1840 2110 2175 2291 2344 2296 2258 2248 2224 2213 2281 2393
0 0 0 0 0 0 0 0 0 0 0 0 0 0 0 0 0 0 0 0 0 0 0 0 0 202 63 189 550 810 846 918 1369 1950 2175 2204 2385 2361 2284 2269 2225 2284 2300 2409
43 74 10 0 4 0 0 1 25 0 1 0 0 0 0 0 359 309 282 694 745 786 1125 836 0 0 94 208 324 633 787 985 1093 1341 1609 1940 2141 2411 2316 2254 2334 2342 2418 2573
41 82 3 3 0 0 0 5 0 0 0 16 2 360 1036 1378 1457 1531 1822 1998 2215 2305 2378 2215 2019 1424 1017 0 403 387 573 816 972 1135 1287 1392 1754 2256 2277 2205 2304 2272 2375 2540
90 137 71 163 79 6 80 4 0 0 0 0 0 311 883 1213 1166 1227 1202 1575 1968 1984 1990 2082 2338 2240 1839 2029 1718 582 750 544 589 824 1124 1240 1252 1881 2079 2119 2260 2398 2607 2593
57 160 36 125 90 17 42 0 0 0 0 0 0 0 0 1 0 11 19 209 751 1053 772 765 1082 875 497 253 137 111 314 1217 611 667 800 941 1086 1283 1202 241 1385 2532 1991 2235
125 90 117 67 17 0 0 0 0 0 0 0 0 0 0 0 0 0 0 0 100 631 811 891 925 950 147 0 0 0 0 0 152 1647 1200 1641 669 97 1 55 0 2 265 443

GFSCGP_con_sbcape_030.txt.gz
CAPE
0 0 0 0 0 0 0 0 0 0 0 0 0 0 170 225 360 541 549 576 537 514 405 386 294 321 383 278 385 395 461 462 410 210 152 257 360 294 311 275 434 645 738 995
0 0 0 0 0 0 0 0 0 0 0 0 0 0 76 274 348 423 577 579 606 584 478 474 310 192 303 228 230 317 409 411 436 418 288 325 400 177 353 496 499 638 824 954
0 0 0 0 0 0 0 0 0 0 0 0 0 0 0 192 227 324 522 532 560 588 564 462 386 205 185 144 207 210 320 359 327 468 345 271 219 313 352 370 470 367 686 1020
0 0 0 0 0 0 0 0 0 0 0 0 0 0 0 10 199 205 159 366 535 562 605 419 339 311 107 131 106 200 206 238 215 336 423 546 625 619 549 434 464 608 488 640
0 0 0 0 0 0 0 0 0 0 0 0 0 0 0 0 97 212 221 163 202 239 341 401 81 92 252 108 72 154 215 220 230 293 454 461 543 541 220 341 534 583 852 854
0 0 0 0 0 0 0 0 0 0 0 0 0 0 0 0 0 135 241 254 249 190 134 117 54 6 71 143 41 114 192 239 235 240 443 474 494 295 214 260 491 498 632 793
0 0 0 0 0 0 0 0 0 0 0 0 0 0 0 0 0 11 50 88 156 210 164 122 74 7 83 128 80 64 230 257 283 235 332 484 529 360 356 276 497 407 531 678
0 0 0 0 0 0 0 0 0 0 0 0 0 0 0 0 0 0 0 7 1 12 59 83 87 41 4 142 136 201 264 330 333 297 259 373 452 437 438 326 403 400 528 663
0 0 0 0 0 0 0 0 0 0 0 0 0 0 0 0 0 0 0 0 0 0 0 5 23 37 45 29 122 298 341 322 345 408 378 370 464 532 514 355 283 384 498 675
0 0 0 0 0 0 0 0 0 0 0 0 0 0 0 0 0 0 0 0 0 0 0 0 0 0 8 18 71 247 411 392 457 552 561 563 592 663 616 350 289 385 438 759
0 0 0 0 0 0 0 0 0 0 0 0 0 0 0 0 0 0 0 0 0 0 0 0 0 3 5 19 11 101 332 409 494 806 787 762 743 753 671 416 434 414 477 551
0 0 0 0 0 0 0 0 0 0 0 0 0 0 0 0 0 0 0 0 0 0 0 0 0 0 4 4 19 39 270 366 451 849 969 912 824 801 755 602 583 557 465 399
0 0 0 0 0 0 0 0 0 0 0 0 0 0 0 0 0 0 0 0 0 0 0 0 0 0 0 0 1 23 161 402 434 605 975 1009 923 848 842 774 777 664 581 354
0 0 0 0 0 0 0 0 0 0 0 0 0 0 0 0 0 0 0 0 0 0 0 0 0 0 0 0 0 3 120 350 502 516 768 922 1009 977 1019 1020 981 835 796 422
0 0 0 0 0 0 0 0 0 0 0 0 0 0 0 0 0 0 0 0 0 0 0 0 0 0 0 0 8 31 172 371 556 637 725 879 900 932 984 1068 1158 1190 1115 829
0 0 0 0 0 0 0 0 0 0 0 0 0 0 0 0 0 0 0 0 0 0 0 0 0 0 0 0 28 109 340 556 775 789 859 971 1067 1067 1080 1059 1032 1123 1280 1259
0 0 0 0 0 0 0 0 0 0 0 0 0 0 0 0 0 0 0 0 0 0 0 0 0 0 0 0 38 169 471 788 939 955 1024 1164 1236 1308 1353 1365 1271 1141 1171 1313
0 0 0 0 0 0 0 0 0 0 0 0 0 0 0 0 0 0 0 0 0 0 0 0 0 0 0 0 0 209 426 907 1138 1148 1186 1428 1503 1490 1536 1580 1529 1424 1303 1282
0 0 0 0 0 0 0 0 0 0 0 0 0 0 0 0 0 0 0 0 0 0 0 0 0 0 0 0 0 162 434 840 1356 1409 1422 1598 1730 1716 1732 1822 1853 1759 1588 1442
0 0 0 0 0 0 0 0 0 0 0 0 0 0 0 0 0 0 0 0 0 0 0 0 0 0 0 0 14 171 428 922 1294 1727 1746 1802 1797 1714 1682 1810 1990 2053 1985 1835
0 0 0 0 0 0 0 0 0 0 0 0 0 0 0 0 0 0 0 0 0 0 0 0 0 0 0 0 110 321 440 853 1278 1655 1882 1951 1977 1949 1817 1792 1859 1951 2153 2155
0 0 1 0 0 0 0 0 2 0 0 0 0 0 0 0 0 0 0 1 81 748 1434 394 308 224 0 0 233 419 522 795 1064 1586 1821 1962 2118 2202 2159 2162 2125 2098 2180 2296
0 3 4 0 0 0 0 0 0 0 0 0 1 0 0 0 33 641 1330 1540 1650 1906 1853 1513 1657 1806 1758 144 0 73 22 451 787 1005 1563 1973 2142 2369 2395 2393 2246 2213 2332 2434
11 5 43 17 0 0 52 0 0 0 0 0 0 1 109 723 729 809 1039 967 826 892 1611 1573 1407 884 742 572 377 467 830 1260 329 715 963 1301 1870 2223 2457 2384 2320 2271 2381 2444
0 0 0 5 0 113 41 0 0 0 0 0 0 0 0 0 1 25 45 199 279 188 71 85 7 0 0 0 0 0 0 345 924 242 336 803 1226 1493 2235 1279 1345 2358 2369 2350
0 0 0 0 0 96 17 0 0 13 0 1 0 0 0 0 0 0 0 0 4 0 0 33 292 356 28 0 0 0 0 0 136 1127 1184 771 980 501 12 25 0 1 524 1315

GFSCGP_con_sbcape_033.txt.gz
CAPE
0 0 0 0 0 0 0 0 0 0 0 0 0 0 26 514 717 826 808 654 617 584 518 537 604 717 732 863 1006 1147 1137 1537 1080 919 731 504 307 423 831 1269 1591 1700 1766 2015
0 0 0 0 0 0 0 0 0 0 0 0 0 0 2 408 713 793 872 852 786 706 580 585 634 737 827 973 1124 1399 1574 1655 1355 1075 1093 612 736 607 1226 1657 1740 1756 1919 2239
0 0 0 0 0 0 0 0 0 0 0 0 0 0 0 143 465 658 901 840 835 833 747 726 699 735 858 1123 1307 1670 1991 1960 1620 1529 1037 907 1032 1227 1370 1601 1766 1853 2034 2280
0 0 0 0 0 0 0 0 0 0 0 0 0 0 0 6 391 553 659 850 866 925 856 838 827 842 778 1280 1238 1730 1816 2079 1700 2004 1478 1639 954 837 1016 1500 1738 1803 2052 2176
0 0 0 0 0 0 0 0 0 0 0 0 0 0 0 0 107 427 588 734 805 861 908 915 951 1173 926 832 945 1164 1806 1993 2014 1987 1946 1627 1618 1099 1121 1357 2156 2703 2229 2081
0 0 0 0 0 0 0 0 0 0 0 0 0 0 0 0 0 91 400 562 706 854 865 972 1034 1075 992 866 771 839 1678 1896 1990 1956 2009 2163 2144 1959 1378 1479 1473 1470 1525 1693
0 0 0 0 0 0 0 0 0 0 0 0 0 0 0 0 0 0 105 477 560 636 902 969 1081 1064 1268 1381 1232 1200 1558 1723 1850 1789 1874 2024 2093 2298 2321 2059 1485 1793 1504 1573
0 0 0 0 0 0 0 0 0 0 0 0 0 0 0 0 0 0 0 83 466 634 608 704 1067 1327 1194 1131 1421 1257 1432 1639 1756 1701 1813 1988 2137 1641 1828 1864 1388 1440 1376 1639
0 0 0 0 0 0 0 0 0 0 0 0 0 0 0 0 0 0 0 0 100 411 623 707 831 1019 1032 1030 1273 1397 1391 1551 1677 1628 1753 1862 1997 2034 1885 2197 2273 1526 2175 1537
0 0 0 0 0 0 0 0 0 0 0 0 0 0 0 0 0 0 0 0 0 50 233 492 820 1044 1050 789 1180 1347 1345 1506 1629 1669 1678 1660 1760 1976 2062 2246 2224 2161 2212 2055
0 0 0 0 0 0 0 0 0 0 0 0 0 0 0 0 0 0 0 0 0 0 30 67 513 893 1123 842 900 1258 1409 1550 1705 1743 1757 1766 1737 1849 2021 2105 2207 2283 2380 2095
0 0 0 0 0 0 0 0 0 0 0 0 0 0 0 0 0 0 0 0 0 1 65 28 31 274 467 1031 984 923 1337 1477 1632 1727 1847 1883 1943 1959 2021 2121 2209 2316 2400 2279
0 0 0 0 0 0 0 0 0 0 0 0 0 0 0 0 0 0 0 0 0 0 0 17 2 52 548 823 975 905 1062 1174 1347 1740 1815 1934 1982 2077 2140 2261 2290 2331 2415 2461
0 0 0 0 0 0 0 0 0 0 0 0 0 0 0 0 0 0 0 0 0 0 1 26 63 418 599 804 1001 1018 1067 1139 1258 1486 1826 2078 2179 2174 2182 2333 2357 2347 2450 2488
0 0 0 0 0 0 0 0 0 0 0 0 0 0 0 0 0 0 0 0 0 0 0 26 142 822 977 1061 1173 1072 1067 1346 1406 1696 1784 2076 2293 2390 2352 2402 2421 2406 2447 2426
0 0 0 0 0 0 0 0 0 0 0 0 0 0 0 0 0 0 0 0 0 0 0 0 152 389 495 959 1147 1084 1189 1267 1597 1795 1766 2051 2405 2508 2438 2444 2449 2507 2490 2523
0 0 0 0 0 0 0 0 0 0 0 0 0 0 0 0 0 0 0 0 0 0 0 0 0 79 554 580 1057 1088 1238 1324 1607 1861 1935 2050 2302 2499 2534 2536 2598 2615 2600 2584
0 0 0 0 0 0 0 0 0 0 0 0 0 0 0 0 0 0 0 0 0 0 0 0 0 0 459 298 222 977 1182 1545 1711 1931 2069 2107 2212 2370 2402 2474 2514 2672 2701 2762
0 0 0 0 0 0 0 0 0 0 0 0 0 0 0 0 0 0 0 0 0 0 0 0 0 0 225 484 841 1133 1312 1702 1913 2099 2189 2237 2026 2059 2440 2497 2535 2541 2567 2670
0 0 0 0 0 0 0 0 0 0 0 0 0 0 0 0 0 0 0 0 0 0 0 0 0 0 0 293 408 1184 1208 1718 2114 2262 2285 2348 2407 2464 2603 2696 2727 2765 2729 2675
0 0 0 0 0 0 0 0 7 3 0 0 0 0 0 0 0 0 0 0 0 0 0 0 0 140 426 422 681 1435 1619 1996 2118 2001 2178 2576 2830 2791 2771 2976 3018 3064 2828 2783
0 0 2 0 0 0 0 0 0 17 1 0 0 0 0 0 0 76 0 0 1 428 201 0 0 22 149 727 1237 2023 2345 2119 2093 2419 2742 3206 3212 2602 2580 3125 2911 3093 2987 3434
5 1 29 0 0 0 0 0 0 2 0 0 10 0 0 0 0 122 0 1099 1712 2212 2132 2267 2280 1588 993 1140 1614 1889 1789 1870 2257 2565 2998 3023 3134 3194 3418 3263 2955 2879 3391 3244
4 42 58 31 0 0 0 0 0 62 56 64 38 18 1 1 273 114 1296 2542 2875 2163 2344 2437 2300 2001 1528 1583 1936 2167 2220 1989 2276 2572 3005 3172 3132 3175 3465 3141 2510 2912 2997 3122
13 26 20 11 1 0 0 0 0 0 0 3 11 4 1 259 868 1336 1976 1757 1340 874 493 309 156 24 38 86 191 494 1716 2645 2354 2123 2183 2467 2735 2835 3361 3588 3480 3202 3435 3166
11 1 9 0 0 56 0 0 40 130 22 29 0 2 28 223 534 1087 920 646 682 854 938 970 815 586 311 100 29 120 297 1100 2678 2669 2025 1655 1845 2234 2661 3096 1238 1 104 1902

GFSCGP_con_sbcape_036.txt.gz
CAPE
0 0 0 0 0 0 0 0 0 0 0 0 0 0 3 173 534 719 1055 1166 1117 1051 861 795 847 732 816 954 1125 1297 1383 1850 1655 1485 1267 968 622 437 298 538 911 1689 1990 2345
0 0 0 0 0 0 0 0 0 0 0 0 0 6 12 104 536 779 971 1036 1169 1148 957 856 924 898 880 1075 1336 1727 1724 1957 2085 1561 1523 711 512 167 289 790 1373 2323 2569 2637
0 0 0 0 0 0 0 0 0 0 0 0 0 0 4 6 180 451 799 933 997 1170 1110 927 850 886 863 977 1282 1846 2400 2329 2315 2306 1360 1085 593 489 485 1018 1784 2449 2481 2679
0 0 0 0 0 0 0 0 0 0 0 0 0 1 29 9 44 97 302 901 963 1149 1222 1035 829 865 879 1163 1362 2104 2398 2725 2485 2431 1947 2455 888 645 550 1259 1566 1750 2488 2548
0 0 0 0 0 0 0 0 0 0 0 0 0 0 0 0 0 21 108 481 950 1171 1216 1213 995 807 834 1108 1296 1713 2425 3236 3344 2754 2640 1893 2072 727 713 903 2715 3261 2738 2607
0 0 0 0 0 0 0 0 0 0 0 0 0 0 0 0 0 8 63 290 715 996 1128 1285 1275 895 834 951 1293 1706 2931 3568 3075 2853 2579 3480 3292 2443 1258 1805 1720 1833 1789 2006
0 0 0 0 0 0 0 0 0 0 0 0 0 0 0 0 0 0 0 47 585 1081 1059 1154 1377 1369 1005 1050 1363 1632 2680 3337 3120 2780 2844 2929 3349 3342 3468 2710 2042 2528 1511 1376
0 0 0 0 0 0 0 0 0 0 0 0 0 0 0 0 0 0 0 0 158 836 1114 1090 1351 1540 1579 1475 1927 2094 2753 3286 3334 2985 3668 3843 3969 2357 2270 2866 2100 1932 1558 1633
0 0 0 0 0 0 0 0 0 0 0 0 0 0 0 0 0 0 0 0 0 576 971 1193 1251 1442 1734 1924 2476 2645 3080 3390 3019 2602 3708 3826 3713 3503 2461 3172 3429 2302 2999 1789
0 0 0 0 0 0 0 0 0 0 0 0 0 0 0 0 0 0 0 0 0 68 738 885 1214 1387 1602 1867 2060 2526 3012 3383 3372 2749 2918 2802 3106 3752 3632 3737 3725 3344 2940 2994
0 0 0 0 0 0 0 0 0 0 0 0 0 0 0 0 0 0 0 0 0 28 392 770 872 1054 1286 1544 1866 2028 2420 2939 2985 3062 3300 3261 2858 2913 3191 3492 3773 3840 3234 3654
0 0 0 0 0 0 0 0 0 0 0 0 0 0 0 0 0 0 0 0 0 0 55 179 360 644 1022 1362 1493 1612 1861 2092 2244 2895 3458 3329 3107 3231 3003 3356 3496 3955 3839 3549
0 0 0 0 0 0 0 0 0 0 0 0 0 0 0 0 0 0 0 0 0 0 3 86 132 182 599 1091 1492 1409 1560 1730 1873 2653 2362 2577 2681 2778 3342 3721 3588 3725 3905 4026
0 0 0 0 0 0 0 0 0 0 0 0 0 0 0 0 0 0 0 0 0 0 0 0 5 71 179 887 1798 2189 1420 1476 1625 1815 2113 2908 3113 3265 3287 3587 3712 3792 3949 4064
0 0 0 0 0 0 0 0 0 0 0 0 0 0 0 0 0 0 0 0 0 0 0 0 46 239 785 1057 1511 2167 1633 1791 1754 2553 2074 2920 3338 3573 3566 3603 3831 3849 3990 3917
0 0 0 0 0 0 0 0 0 0 0 0 0 0 0 0 0 0 0 0 0 0 0 0 0 377 1030 1259 1500 1513 2212 1901 1910 2802 2835 3057 3580 3804 3786 3821 3947 4116 4075 4023
0 0 0 0 0 0 0 0 0 0 0 0 0 0 0 0 0 0 0 0 0 0 0 0 0 41 274 754 1263 1475 2190 1845 2442 2748 3169 3412 3840 3946 4072 4067 4156 4165 4118 4112
0 0 0 0 0 0 0 0 0 0 0 0 0 0 0 0 0 0 0 0 0 0 0 0 0 0 0 86 16 604 1180 2779 2846 3115 3269 3522 3714 3959 4106 4202 4133 4185 4206 4106
0 0 0 0 0 0 0 0 0 0 0 0 0 0 0 0 0 0 0 0 0 0 0 0 0 0 0 0 21 129 852 1693 2231 3184 3410 3595 3663 3345 3581 4190 4235 3907 3630 3882
0 0 0 0 0 0 0 0 0 0 0 0 0 0 0 1 0 0 0 0 0 0 0 0 0 0 0 73 151 528 808 1505 2763 3130 2948 3472 3605 3758 3803 4166 4267 4126 3648 3559
0 1 0 0 0 0 0 0 7 0 46 4 0 0 0 78 121 252 317 142 31 1 0 0 0 0 22 173 475 738 1030 1599 2161 2287 2358 3217 3801 4035 4031 4360 4279 4053 3934 3508
27 12 1 0 0 0 0 0 0 0 0 0 0 0 0 0 0 1 158 452 449 230 0 18 218 52 291 1264 1433 1647 3068 2270 2482 2594 2594 3577 3937 3053 2919 4330 4429 4322 4074 4169
17 10 8 0 0 0 0 0 0 0 0 0 0 0 0 0 0 0 83 682 858 224 197 921 341 638 1132 1959 1815 2224 3179 2795 2891 2993 3615 3406 3413 3388 3808 4137 4000 3523 3983 3246
33 47 52 30 1 0 2 0 0 0 0 0 0 0 0 0 0 0 487 1352 770 1247 2063 2202 2321 1818 2288 2588 2583 2716 3077 2927 2929 3167 3371 3551 3720 3604 3512 3378 3501 3373 3342 3335
35 62 49 38 24 21 12 1 0 0 0 0 0 0 0 0 0 1 1220 1659 1856 2592 2720 2789 2747 2410 2473 2668 2910 2983 2957 2846 3119 3297 3334 3457 3385 3512 3721 3822 3415 3345 3672 3028
4 10 22 20 26 60 43 29 15 0 0 0 0 0 0 0 30 497 1569 1961 2382 2153 1667 1429 1236 1070 825 938 1223 1484 2295 3095 2869 2831 2683 2556 2582 3035 3201 3343 3592 1082 220 1

GFSCGP_con_sbcape_039.txt.gz
CAPE
0 0 0 0 0 0 0 6 11 91 22 25 53 77 50 85 317 595 1064 1202 1162 1023 733 647 719 598 578 717 992 1958 1980 2879 2092 1533 1319 1183 720 847 547 438 845 1307 1689 2031
0 0 0 0 0 0 0 5 29 43 23 6 61 54 72 106 330 569 923 1068 1140 1089 958 632 725 630 525 809 1574 2424 2758 3431 2973 1890 2176 1307 1407 435 394 305 1789 1514 2035 2462
0 0 0 0 0 0 0 0 0 17 33 3 11 33 81 83 161 583 787 886 1018 1161 1164 948 725 733 655 1012 1982 2344 3125 3444 3124 2824 2418 2254 1506 1241 364 454 871 1711 2129 2474
0 0 0 0 0 0 0 0 0 0 10 35 0 31 39 41 104 261 717 845 893 1063 1199 1215 843 742 706 1075 1346 2744 3452 3682 3459 3524 2149 2415 967 480 214 461 500 1672 2605 2437
0 0 0 0 0 0 0 0 0 0 0 7 12 47 46 47 57 93 177 582 777 923 1144 1238 1137 785 704 898 1036 2119 3733 3933 3708 3617 3095 2008 1935 445 386 384 1874 2622 3740 2725
0 0 0 0 0 0 0 0 0 0 0 0 0 0 9 18 62 77 82 109 438 776 993 1255 1267 976 697 623 865 1858 3520 4155 4213 4088 3756 4045 2643 2048 881 955 1077 1364 1533 2454
0 0 0 0 0 0 0 0 0 0 0 0 0 0 0 4 15 41 43 111 150 625 1079 1206 1255 1117 1032 1161 1538 2004 3438 4207 4295 4224 3873 3773 3709 3339 4059 3209 1279 1846 1276 1125
0 0 0 0 0 0 0 0 0 0 0 0 0 0 0 0 3 19 27 81 130 288 908 1194 1340 1307 1626 1498 1980 2020 3287 4203 4362 4177 4226 4220 4215 2671 2460 2814 1687 1520 1296 1233
0 0 0 0 0 0 0 0 0 0 0 0 0 0 0 0 0 0 0 13 32 164 796 1079 1274 1423 1879 1723 2230 2467 3198 4015 4277 4129 4239 4387 4314 3965 2768 3140 3566 2597 2796 1534
0 0 0 0 0 0 0 0 0 0 0 0 0 0 0 0 0 0 0 0 0 61 609 1089 1197 1409 1987 1698 1913 2543 3068 3941 4192 4046 4208 4245 4345 4357 3945 3916 3977 3200 3335 3723
0 0 0 0 0 0 0 0 0 0 0 0 0 0 0 0 0 0 0 0 0 0 376 996 1226 1333 1714 1785 1821 2215 2750 3673 4089 4189 4162 4170 4211 4119 4352 4092 4149 4112 4082 4442
0 0 0 0 0 0 0 0 0 0 0 0 0 0 0 0 0 0 0 0 0 0 154 838 928 1248 1394 1716 1918 2123 2528 2459 3573 3655 4175 4143 4197 4104 4164 4278 4157 4315 4402 4246
0 0 0 0 0 0 0 0 0 0 0 0 0 0 0 0 0 0 0 0 0 1 40 273 685 1045 1032 1302 2162 1950 2446 2318 2374 3264 3371 4040 4067 4156 4061 4253 4291 4371 4410 4447
0 0 0 0 0 0 0 0 0 0 0 0 0 0 0 0 0 0 0 0 0 0 0 49 208 453 634 1192 2260 2583 2033 2158 2325 2596 2918 3582 4060 4013 4031 4126 4387 4307 4481 4481
0 0 0 0 5 0 0 0 0 0 0 0 0 0 0 0 0 0 0 0 0 0 0 0 1 114 885 1678 2644 3040 2075 2457 2230 3057 3205 3556 4094 4250 4225 4180 4312 4339 4456 4471
0 0 2 0 0 0 0 0 0 0 0 0 0 0 0 0 0 0 0 0 0 0 0 0 0 43 336 743 1499 2354 3107 2658 2512 3368 3219 3611 4140 4340 4379 4413 4375 4547 4472 4532
0 1 22 10 0 1 0 0 0 0 0 0 0 0 0 0 0 0 0 0 0 0 0 0 0 0 95 652 1261 1579 2797 2854 2946 3194 3902 3758 4194 4308 4488 4576 4612 4536 4591 4614
1 4 7 15 5 5 0 0 0 0 0 0 0 0 0 0 0 0 0 0 0 0 0 0 0 0 73 66 44 1196 1399 3537 3524 3831 3544 4101 4101 4381 4505 4638 4660 4699 4688 4659
0 2 8 1 6 0 0 0 0 0 0 0 0 0 0 0 0 0 0 0 0 0 0 0 0 0 105 0 4 68 690 2641 3727 3777 4007 3834 4343 4402 4625 4653 4649 4705 4707 4711
0 0 1 12 2 13 7 0 0 0 0 0 0 0 0 0 0 0 20 21 202 147 68 135 3 0 0 4 0 5 67 638 3438 3799 4119 4295 4440 4534 4640 4720 4872 4837 4748 4670
0 1 1 5 8 4 0 21 6 1 147 20 1 0 11 21 145 285 157 84 135 355 549 422 329 44 372 380 99 968 1215 1259 2231 3395 3893 4437 4551 4690 4618 4733 4919 4907 4769 4364
30 7 3 8 9 3 0 0 26 9 0 0 6 4 1 1 0 1 36 99 193 360 704 676 468 639 558 596 830 2270 2840 2873 3580 3641 3892 4270 4578 4239 4042 4850 4917 5033 4877 4781
11 7 13 5 1 1 0 1 4 0 0 0 0 0 0 0 0 0 0 3 106 672 1368 1068 357 890 975 1072 1484 2988 4019 4640 4389 4355 4596 4623 4741 4717 4565 4774 4991 4591 4783 4222
28 19 5 18 2 0 0 0 0 0 0 0 0 0 0 0 0 0 0 0 114 876 1556 1456 1639 1698 1995 2155 2476 2908 3601 3756 4473 4630 4866 4792 4875 4801 4653 3952 3959 3861 3644 3723
45 41 34 13 2 0 1 0 0 0 0 0 0 0 0 0 0 0 0 1 177 1061 1986 2539 2796 2877 2653 3109 3256 3223 3406 3492 3428 3739 3654 3974 3762 3990 4462 4259 3620 3594 4062 2573
15 41 79 45 33 40 19 14 3 0 0 0 0 0 0 0 0 0 0 96 537 1905 2601 2495 2401 2451 2079 2383 2731 3254 3703 3414 3568 3576 3560 3485 3450 3879 3767 3972 3959 1068 1430 0

GFSCGP_con_sbcape_042.txt.gz
CAPE
0 0 0 0 0 0 12 10 0 46 109 21 22 19 52 21 32 682 608 940 744 706 722 837 667 596 764 1086 1635 1593 1965 2549 2078 1841 1701 1680 1175 1466 1758 1877 2214 3105 3129 3237
0 0 0 0 0 0 0 2 1 2 67 38 37 25 22 71 80 682 852 938 913 698 668 876 827 625 579 1006 1597 1948 1933 2600 2399 2017 1903 1685 1994 1314 1303 1591 2507 2571 2776 3094
0 0 0 0 0 0 0 0 0 13 19 3 14 40 71 33 1 214 728 830 928 1007 826 802 859 735 629 1224 1579 2002 2101 2847 2637 2262 2383 2700 2483 2680 1867 1294 1394 2207 2842 3252
0 0 0 0 0 0 0 0 0 10 62 58 51 56 104 46 90 247 461 545 993 1122 1136 908 962 905 781 1074 1463 2041 2242 2379 2724 2707 2103 2354 1409 1124 985 1263 1238 1855 2279 2721
0 0 0 0 0 0 0 0 0 0 0 5 16 23 77 55 88 278 407 558 646 1117 1091 1055 909 957 894 1032 1485 1953 2356 2541 2834 2167 2911 2026 1855 1168 1094 1338 1597 2417 2819 3243
0 0 0 0 0 0 0 0 0 0 0 1 0 16 46 35 32 59 205 705 703 974 1201 1346 1109 1047 974 1128 1631 1865 2582 2677 2955 2887 2318 3335 1995 1893 960 1047 1471 2127 2847 2756
0 0 0 0 0 0 0 0 0 0 0 0 0 0 0 22 65 39 235 206 806 933 1197 1523 1500 1222 1068 1196 1546 1891 2754 2810 2866 3138 2684 2311 3415 1991 2467 3258 1055 1508 1800 2402
0 0 0 0 0 0 0 0 0 0 0 0 0 0 0 0 3 25 111 102 233 615 1016 1337 1652 1460 1243 1172 1430 1813 2765 3005 3227 3080 3181 2633 2940 2833 1641 2592 1732 1281 1730 1898
0 0 0 0 0 0 0 0 0 0 0 0 0 0 0 0 0 4 33 129 155 413 696 1101 1745 1636 1429 1212 1405 1619 2308 3004 3233 3069 3292 3333 2495 3152 2289 1855 2735 2677 2099 2552
0 0 0 0 0 0 0 0 0 0 0 0 0 0 0 0 0 0 11 37 153 294 635 1282 1627 1725 1585 1313 1362 1661 2189 2784 3236 3341 3233 3422 3274 2928 2760 2410 2809 2339 3304 2694
0 0 0 0 0 0 0 0 0 0 0 0 0 5 23 22 0 2 2 0 38 365 613 1028 1564 1781 1831 1549 1464 1636 1900 2880 3354 3514 3569 3495 3565 3267 2972 2684 2913 3488 2859 4182
0 0 0 0 0 0 0 0 0 0 0 0 0 1 0 1 0 0 0 0 4 194 767 983 1438 1674 1979 1899 1693 1748 1962 2355 3228 3781 3784 3594 3600 3834 3562 3055 2945 3210 3788 3239
0 0 0 0 1 0 0 0 0 0 0 0 0 0 0 3 7 0 0 5 80 302 883 1089 1260 1551 1919 2096 2090 1909 1993 2096 3034 3590 3887 3882 3788 3779 3832 3694 3145 3264 3188 3812
0 0 0 0 0 0 0 0 0 0 0 0 0 0 0 0 0 4 13 72 142 650 736 1018 1107 1578 1769 2144 2343 2360 2232 2192 2328 3219 3624 3759 4005 3917 3908 3856 3924 3372 3617 3243
0 0 0 0 0 7 0 0 0 0 0 0 0 0 0 1 0 0 26 135 324 703 462 981 1089 1930 2013 2305 2549 2623 2524 2616 2534 2508 3239 3355 3640 3998 3909 3912 3998 4079 3725 3803
0 0 0 0 0 0 0 0 0 0 0 0 0 6 0 0 0 1 74 46 129 231 128 218 50 844 1670 3125 2828 2727 2696 2874 2800 2967 2946 3233 3523 3648 3995 3870 3862 4007 4165 4014
0 0 0 0 0 0 2 0 1 0 0 0 0 15 18 3 6 0 0 0 0 0 0 1 45 570 1245 1583 3020 3274 2892 2747 3197 3134 3480 3478 3672 3868 4002 4030 4024 3938 4126 4152
0 0 0 0 0 2 0 1 0 2 1 0 0 34 176 144 73 2 0 0 12 0 0 35 0 92 573 122 167 1633 3139 3472 3141 3994 3448 3937 4110 3949 4121 4145 4106 4164 4088 4218
0 0 0 0 0 0 6 0 0 0 0 9 26 2 5 1 2 3 0 0 0 0 22 14 39 25 1528 1193 1821 1763 2066 3425 3703 3299 4110 3523 4176 4076 4159 4243 4182 4177 4253 4214
0 0 0 0 0 1 10 0 0 0 0 36 3 2 0 0 0 311 621 250 218 344 697 1114 919 853 1029 1945 1053 2421 2120 2808 3377 3339 3312 4151 3549 4190 4209 4264 4341 4351 4346 4349
0 0 0 0 0 0 0 0 0 2 67 26 34 61 3 51 356 258 116 68 164 482 784 1057 1293 1424 1629 1563 1641 2418 2618 1611 2935 3557 3647 3790 4295 3871 4287 4360 4480 4443 4402 4387
10 0 0 0 0 0 0 0 3 21 0 0 0 0 0 0 0 0 0 10 63 281 517 1386 1552 1911 1876 1764 2089 3079 3058 4410 4108 3443 4155 4298 4512 4056 3934 4489 4625 4561 4537 4471
0 0 4 0 0 13 3 0 0 0 0 0 0 0 0 0 0 0 0 0 0 150 523 1184 2200 1892 2175 2053 3252 3742 3840 4942 4774 4908 5037 4547 4664 4561 4241 4597 4567 4609 4649 4534
2 15 11 2 0 0 0 0 0 0 0 0 0 0 0 0 0 0 0 0 0 140 569 881 2139 3340 3864 4036 2698 4315 4641 4696 5213 4984 5401 4989 4826 4698 4562 4377 4442 4439 4424 4593
0 0 2 9 0 0 0 0 0 0 0 0 0 0 0 0 0 0 0 0 0 406 549 1356 2680 4224 4553 4719 4579 4609 4812 4847 4878 5129 4949 5009 4648 4534 4727 4347 3887 4329 4391 3799
9 2 21 32 2 1 0 0 0 0 0 0 0 0 0 0 0 0 0 0 29 390 761 2099 3408 3369 3554 3233 3769 4028 4374 4948 4861 4799 4522 4300 3946 4437 4296 4540 3964 0 60 2

GFSCGP_con_sbcape_045.txt.gz
CAPE
0 0 0 0 0 0 0 0 0 0 30 13 17 0 168 73 199 372 539 412 370 235 73 416 402 135 0 117 318 77 519 569 350 1203 925 943 449 533 616 499 1569 1565 1573 1740
0 0 0 0 0 0 0 0 0 0 0 1 0 0 21 122 269 291 389 267 388 369 255 172 47 59 65 364 257 410 700 879 517 856 540 734 705 480 577 424 1327 1716 1773 1827
0 0 0 0 0 0 0 0 0 0 0 0 1 2 21 221 225 83 250 377 356 388 320 177 76 69 131 465 313 477 570 1215 762 888 812 801 809 668 707 470 243 1634 1475 1558
0 0 0 0 0 0 0 0 0 0 0 21 0 0 0 12 224 210 531 619 279 358 302 264 153 127 148 499 577 438 771 1551 1061 1094 1028 858 696 508 754 343 329 1037 1661 1749
0 0 0 0 0 0 0 0 0 0 0 0 0 0 0 2 0 310 616 320 116 420 313 320 255 263 107 364 790 681 748 1309 1344 1139 939 1016 837 601 221 510 316 917 986 1266
0 0 0 0 0 0 0 0 0 0 0 0 0 0 0 0 1 538 512 374 391 632 455 285 356 316 213 543 852 984 839 1107 1372 1228 1264 870 1004 476 562 95 237 796 1380 1546
0 0 0 0 0 0 0 0 0 0 0 0 0 0 0 0 0 37 201 410 286 483 521 434 397 330 345 584 703 1086 1031 943 1401 1253 958 1464 834 849 352 318 58 588 1784 1625
0 0 0 0 0 0 0 0 0 0 0 0 0 0 0 0 0 4 174 346 472 419 639 559 398 412 355 424 742 1152 1136 1126 1155 1627 1173 766 1648 1065 752 921 810 209 1105 1425
0 0 0 0 0 0 0 0 0 0 0 0 0 0 0 0 0 0 0 379 241 291 657 623 492 501 365 535 866 962 1356 1177 1407 1543 1638 1193 941 2036 867 364 996 338 715 1057
0 0 0 0 0 0 0 0 0 0 0 0 0 0 0 0 0 0 0 6 227 446 797 815 668 596 483 509 851 1014 1395 1460 1525 1618 1786 1786 1260 932 1829 681 586 1555 844 736
0 0 0 0 1 0 0 0 0 0 0 0 0 0 0 0 0 0 0 0 14 391 858 1118 953 804 617 498 770 1023 1316 1806 1847 1881 1707 2049 1939 1493 1344 1674 685 1279 1418 1914
0 0 0 0 0 0 0 0 0 0 0 0 0 0 0 0 0 0 0 0 0 190 706 1247 1143 1045 832 628 692 917 1202 1867 2045 2164 2135 2012 2288 2243 1531 1555 1830 666 1842 1559
1 0 0 0 0 0 0 0 0 0 0 0 0 0 0 0 0 0 0 0 0 53 539 1140 1274 1194 1082 813 676 833 957 1614 1997 2289 2317 2333 2274 2472 2255 1877 1506 1998 1138 2229
37 0 0 0 0 0 0 0 0 0 0 0 0 0 0 0 0 0 0 0 0 273 509 965 1316 1307 1304 1044 837 798 952 1174 2048 2261 2555 2623 2611 2561 2597 2486 2209 1459 2124 1854
0 0 0 0 0 0 0 0 0 0 0 0 0 0 0 4 31 4 2 13 43 93 532 880 1223 1310 1421 1287 1070 986 1000 1221 1411 2411 2678 2780 2873 2713 2691 2685 2796 2620 1922 2357
0 0 0 0 0 0 0 0 0 0 0 0 0 0 0 0 25 0 0 0 33 176 511 295 752 1098 1408 1554 1367 1270 1184 1248 1377 1912 2543 2829 2964 3034 2892 2968 2881 2979 2897 2310
0 0 0 0 0 0 0 0 0 0 0 0 0 0 0 0 10 0 0 0 0 0 0 35 27 578 1569 1665 1718 1713 1636 1501 1496 1616 1881 2579 2907 3026 3118 3141 3190 3130 3210 3225
0 0 0 0 0 0 0 0 3 0 0 0 0 12 0 12 71 20 0 0 0 29 0 0 40 8 6 915 1892 1780 1877 1939 1904 1821 1887 1936 2721 2898 3012 3152 3162 3212 3198 3340
0 0 0 0 0 0 0 0 0 15 3 2 144 100 56 139 186 148 93 134 217 306 425 460 380 377 294 137 1 1885 2234 2240 2461 2379 2480 2360 2690 2827 2990 3049 3247 3232 3220 3203
0 0 0 0 0 0 0 0 0 0 0 0 16 314 63 179 106 79 0 17 43 150 232 617 523 532 465 349 524 1159 2192 2428 2295 2482 2850 3053 2941 3114 3060 3252 3280 3397 3349 3352
0 0 0 0 0 0 0 0 0 0 0 0 0 0 0 0 0 0 0 0 17 46 77 225 563 971 929 846 519 893 566 1306 2484 2430 2494 3176 3166 3296 3415 3288 3502 3511 3547 3522
11 12 0 0 1 1 0 0 0 0 0 0 0 0 0 0 0 0 0 0 0 3 52 123 181 424 867 1133 670 268 1344 897 2449 2415 2678 2685 3384 2941 3329 3483 3624 3728 3697 3699
0 0 0 0 0 2 0 0 0 0 0 0 0 0 0 0 0 0 0 0 0 0 49 68 112 701 824 1956 1184 850 1300 2785 2732 2624 3080 3038 2947 3478 2683 3754 3584 3939 3834 3896
0 0 0 0 0 0 0 0 0 0 0 0 0 0 0 0 0 0 0 0 0 0 0 19 171 807 2553 3475 3353 3388 3710 3202 2678 3249 3151 3842 3782 3978 3362 3675 3864 4049 4173 4088
1 0 0 0 0 0 0 0 0 0 0 0 0 0 0 0 0 0 0 0 0 0 0 0 158 393 2220 2447 3539 3065 3239 3110 3834 3497 4397 4459 4042 3982 3949 2094 1732 3467 3792 3627
0 0 6 1 0 0 0 0 0 0 0 0 0 0 0 0 0 0 0 0 0 0 0 0 0 268 1958 2167 2257 2235 2308 2557 2967 4187 4372 4356 3892 3845 3990 1332 0 1 0 0

GFSCGP_con_sbcape_048.txt.gz
CAPE
0 0 0 0 0 0 0 0 0 0 0 64 10 59 48 556 413 521 458 397 304 260 187 134 138 119 98 65 55 33 21 243 318 438 270 99 42 14 104 153 626 735 877 1243
0 0 0 0 0 0 0 0 0 0 0 8 38 63 74 451 411 445 466 492 427 393 234 260 156 90 102 87 93 50 17 15 412 331 344 126 7 0 43 25 875 848 1010 1269
0 0 0 0 0 0 0 0 0 0 0 0 15 8 62 93 428 464 435 451 441 322 331 243 258 140 154 50 108 78 57 4 162 414 202 308 257 100 128 66 365 996 1095 1281
0 0 0 0 0 0 0 0 0 0 0 0 0 0 2 74 175 365 379 330 277 257 272 333 301 242 131 20 73 173 215 141 57 436 254 426 455 572 178 101 0 915 1101 1248
0 0 0 0 0 0 0 0 0 0 0 0 0 1 1 44 205 139 86 48 39 287 215 129 298 199 70 63 109 140 528 322 269 506 358 228 272 297 78 142 61 255 1027 903
0 0 0 0 0 0 0 0 0 0 0 0 0 0 0 25 209 122 26 40 58 274 300 168 76 14 15 126 58 244 605 527 454 548 434 352 251 186 187 74 25 14 486 737
0 0 0 0 0 0 0 0 0 0 0 0 0 0 0 19 204 72 66 141 187 331 324 247 115 52 54 261 205 178 398 808 660 597 611 496 410 241 232 87 4 7 591 651
0 0 0 0 0 0 0 0 0 0 0 0 0 0 0 0 0 186 139 297 508 138 226 269 198 97 73 270 432 311 340 548 873 734 617 551 366 493 289 96 0 0 295 891
0 0 0 0 0 0 0 0 0 0 0 0 0 0 0 0 0 71 339 542 546 256 163 344 268 186 157 263 560 576 418 373 845 889 796 804 660 535 582 254 24 0 91 990
0 0 0 0 0 0 0 0 0 0 0 0 0 0 0 0 0 0 245 569 679 357 507 278 278 314 215 259 480 715 656 511 594 1008 825 636 726 1278 775 297 251 839 14 647
0 0 0 0 0 0 0 0 0 0 0 0 0 0 0 0 0 0 5 401 466 427 621 244 426 394 282 292 518 756 827 734 773 805 1143 990 695 479 1368 692 98 178 648 144
0 6 0 0 0 0 0 0 0 0 0 0 0 0 0 0 0 0 0 183 363 448 450 300 579 444 389 345 524 659 957 917 886 1019 1095 1313 1204 873 518 1368 836 381 362 713
16 6 2 0 0 0 0 0 0 0 0 0 0 0 0 0 0 0 0 0 184 507 402 424 664 542 484 338 515 761 859 1167 1086 1162 1260 1357 1547 1493 1168 702 1243 1101 557 587
40 21 5 0 0 0 0 0 0 0 0 0 0 0 0 0 0 0 0 0 0 381 376 644 786 667 587 429 472 751 886 1316 1382 1448 1536 1448 1650 1902 1830 1465 944 1266 1267 483
9 9 0 0 0 0 0 0 0 0 0 0 0 0 0 0 0 0 0 0 1 388 828 964 951 838 772 566 474 694 936 1149 1674 1777 1847 1898 1790 1837 2111 2035 1667 1317 1195 1599
5 4 0 0 0 0 0 0 0 0 0 0 0 0 0 0 0 0 5 0 2 338 980 1201 1091 1008 967 768 594 622 785 1104 1474 1865 2007 2013 2120 2064 2049 2227 2239 1875 1663 1162
5 0 0 0 0 0 0 0 0 0 0 0 0 0 0 2 10 19 0 0 0 36 697 1254 1128 1071 1104 995 766 645 746 847 1317 1818 1858 2157 2174 2396 2353 2321 2354 2480 2360 2060
0 0 0 0 0 0 0 0 0 0 0 0 0 6 34 202 101 60 56 113 128 74 24 0 49 411 1055 1149 963 823 765 826 1046 1244 2035 2157 2503 2512 2669 2583 2555 2551 2625 2724
0 0 0 0 0 0 0 0 0 0 0 0 0 70 217 95 20 0 1 12 6 105 133 84 11 9 77 541 1233 1142 1054 1041 1043 1186 1226 2134 2350 2755 2799 2857 2850 2817 2908 2850
0 0 0 0 0 0 0 0 0 0 0 0 0 0 0 5 0 0 0 0 0 0 15 68 380 554 235 93 306 1327 1494 1515 1450 1312 1385 1453 1860 2541 2818 2911 2885 3037 3007 3054
0 0 0 0 0 3 0 0 0 0 0 0 0 0 0 0 0 0 0 0 0 0 1 5 126 460 686 672 20 377 1278 1885 1883 1890 1728 1800 1686 1935 2492 2662 2831 2835 3007 3012
8 5 3 0 0 5 0 0 0 0 0 0 0 0 0 0 0 0 0 0 0 0 0 27 309 684 1357 1365 284 84 217 270 1200 2062 2067 2416 2489 2212 2443 2555 2630 2820 2853 3043
2 2 9 1 3 0 0 0 0 0 0 0 0 0 0 0 0 0 0 0 0 0 0 0 39 627 1410 2820 1309 2491 2591 2215 2518 1225 1886 2063 2396 2469 2668 2813 2741 2887 3025 3131
0 0 0 0 0 0 0 0 0 0 0 0 0 0 0 0 0 0 0 0 0 0 0 0 0 13 529 2142 2375 2488 2414 2413 2747 2365 1927 2350 2302 2302 2279 2858 2951 3148 3317 3365
5 0 7 0 0 0 0 0 0 0 0 0 0 0 0 0 0 0 0 0 0 0 0 0 0 0 20 1182 1697 1786 1710 2120 2274 2528 3112 2974 2982 2493 2560 418 1325 2545 2673 2659
11 17 15 4 0 1 0 0 0 0 0 0 0 0 0 0 0 0 0 0 0 0 0 0 0 0 0 167 1296 1441 1414 1690 1851 1909 1984 2977 3564 2889 1179 1 1 0 0 2

GFSCGP_con_sbcape_051.txt.gz
CAPE
0 0 0 0 0 0 0 0 0 0 0 62 56 15 688 409 331 284 184 150 197 196 99 11 72 45 23 0 0 0 0 0 80 53 62 0 0 2 109 237 447 518 848 231
0 0 0 0 0 0 0 0 0 0 0 11 68 42 510 473 333 315 247 194 224 179 124 57 86 28 23 0 0 0 0 0 107 31 171 0 0 0 8 54 393 481 696 942
0 0 0 0 0 0 0 0 0 0 0 1 9 50 9 568 461 413 286 218 220 237 135 87 80 105 16 0 0 0 0 0 117 77 2 11 0 7 0 13 215 545 698 1047
0 0 0 0 0 0 0 0 0 0 0 0 0 0 17 279 460 403 374 296 230 251 189 132 95 108 70 0 0 0 0 0 44 47 70 102 6 3 0 0 0 631 804 1004
0 0 0 0 0 0 0 0 0 0 0 0 0 0 0 93 424 389 337 349 350 280 246 192 133 130 114 2 16 0 0 0 0 91 43 20 0 0 0 0 0 247 750 894
0 0 0 0 0 0 0 0 0 0 0 0 0 0 0 5 62 368 402 365 386 347 328 293 191 189 151 59 23 0 0 0 0 66 31 0 15 9 22 41 0 0 469 717
0 0 0 0 0 0 0 0 0 0 0 0 0 0 0 0 0 17 238 378 346 282 322 253 248 224 241 156 43 0 18 15 0 37 81 0 3 0 20 1 5 0 21 361
0 0 0 0 0 0 0 0 0 0 0 0 0 0 0 0 0 19 85 256 215 103 62 299 189 282 293 207 54 60 97 76 53 74 129 71 2 0 3 0 0 0 4 165
0 0 0 0 0 0 0 0 0 0 0 0 0 0 0 0 0 0 31 104 60 98 89 195 242 208 163 160 96 91 102 201 149 152 181 166 92 70 36 0 0 0 0 192
0 0 0 0 0 0 0 0 0 0 0 0 0 0 0 0 0 0 75 102 92 77 99 213 250 177 97 129 142 71 114 227 301 270 274 279 247 208 169 19 0 0 0 48
0 0 0 0 0 0 0 0 0 0 0 0 0 0 0 0 0 0 0 100 137 142 175 132 156 225 154 121 255 170 111 153 284 431 383 376 386 333 308 208 84 75 8 0
5 4 6 0 0 0 0 0 0 0 0 0 0 0 0 0 0 0 0 84 184 232 341 265 93 211 193 107 215 319 237 174 200 455 469 451 496 629 746 481 120 65 207 46
9 11 2 0 0 0 0 0 0 0 0 0 0 0 0 0 0 0 0 0 78 332 428 369 181 217 228 165 154 398 468 405 291 322 548 617 516 384 461 1095 1008 238 17 39
5 12 0 0 0 0 0 0 0 0 0 0 0 0 0 0 0 0 0 0 0 199 381 376 301 256 246 218 183 337 572 590 523 498 506 730 856 794 543 378 728 1103 637 276
0 8 2 0 0 0 0 0 0 0 0 0 0 0 0 0 0 0 0 0 0 0 156 252 334 319 264 229 176 415 518 742 689 666 758 752 945 1070 1089 930 553 557 1069 1001
1 0 0 0 0 0 0 0 0 0 0 0 0 0 0 0 0 11 0 0 0 0 137 250 328 400 340 306 244 406 593 737 906 862 894 947 967 1186 1404 1389 1294 861 673 1103
3 1 0 0 0 0 0 0 0 0 0 0 0 0 0 36 12 1 1 1 0 0 193 272 313 480 473 410 341 364 655 762 1156 1159 1161 1207 1268 1268 1461 1720 1754 1592 1245 1009
1 15 5 0 0 1 0 0 0 0 0 0 0 0 28 7 0 0 0 5 24 0 98 246 387 629 582 546 459 389 616 836 1137 1477 1538 1607 1662 1720 1673 1695 1912 1989 1884 1630
1 12 4 0 0 0 0 0 0 0 0 0 0 0 0 0 0 0 0 0 0 0 76 58 231 489 574 694 564 464 564 710 1100 1344 1682 1812 1909 1900 2055 2075 1996 2124 2208 2261
3 5 15 4 6 3 0 0 0 0 0 0 0 0 0 0 0 0 0 0 0 0 57 119 393 97 505 562 644 585 580 674 839 1138 1603 1809 1960 2156 2167 2355 2384 2304 2372 2375
25 22 9 17 13 5 0 0 0 0 0 0 0 0 0 0 0 0 0 0 0 0 0 227 1251 768 392 3 844 877 825 852 891 903 977 1266 2063 2212 2433 2471 2521 2623 2592 2622
15 12 15 11 17 10 0 0 0 0 0 0 0 0 0 0 0 0 0 0 0 0 0 0 732 1627 1042 4 396 552 1031 434 1400 1324 1035 1067 1232 1840 2240 2442 2633 2651 2741 2820
8 7 10 7 3 10 1 0 0 0 0 0 0 0 0 0 0 0 0 0 0 0 0 0 1 635 1355 1967 2156 2414 2251 1853 1136 1425 1640 1826 1700 1581 1583 2194 2404 2566 2625 2685
1 1 2 0 0 0 0 0 0 0 0 0 0 0 0 0 0 0 0 0 0 0 0 0 0 0 105 997 1380 1603 1864 2018 2360 2642 2145 1714 1739 2099 2131 2160 2175 2244 2483 2633
15 7 3 1 0 0 0 0 0 0 0 0 0 0 0 0 0 0 0 0 0 0 0 0 0 0 0 198 952 1003 1239 1287 1490 1823 1925 2230 2578 1744 1725 806 1121 2082 2395 2030
11 5 4 1 0 3 0 0 0 0 0 0 0 0 0 0 0 0 0 0 0 0 0 0 0 0 0 0 247 788 771 874 890 877 1180 1144 1306 2527 1211 1 1 0 1 2

GFSCGP_con_sbcape_054.txt.gz
CAPE
0 0 0 0 0 0 0 0 0 0 0 33 40 70 493 177 64 9 0 0 0 0 0 57 57 80 78 0 0 0 0 0 0 0 0 0 28 13 46 113 405 515 645 699
0 0 0 0 0 0 0 0 0 0 0 17 21 28 520 285 160 115 90 60 32 15 1 36 55 30 81 0 0 0 0 0 0 0 0 0 0 0 0 29 352 551 808 689
0 0 0 0 0 0 0 0 0 0 0 0 15 5 224 394 273 125 92 81 81 104 85 28 35 49 19 6 0 0 0 0 0 0 0 0 0 0 0 11 189 403 672 1010
0 0 0 0 0 0 0 0 0 0 0 0 0 0 0 348 319 225 171 126 69 86 102 70 40 42 3 0 0 0 0 0 0 0 6 40 27 25 0 0 4 426 592 836
0 0 0 0 0 0 0 0 0 0 0 0 0 0 0 83 321 304 229 153 122 81 115 100 70 43 47 0 0 0 0 0 0 0 10 23 0 0 0 0 0 151 547 699
0 0 0 0 0 0 0 0 0 0 0 0 0 0 0 0 162 367 339 276 213 132 133 140 78 46 24 0 0 0 0 0 0 0 0 0 0 0 0 0 0 0 313 616
0 0 0 0 0 0 0 0 0 0 0 0 0 0 0 0 9 186 335 370 337 251 156 140 105 69 42 21 0 0 0 0 0 0 0 0 0 0 0 0 0 0 0 410
0 0 0 0 0 0 0 0 0 0 0 0 0 0 0 0 0 102 157 301 288 311 233 183 124 118 93 67 31 11 0 0 0 0 0 0 0 0 0 0 0 0 0 120
0 0 0 0 0 0 0 0 0 0 0 0 0 0 0 0 0 0 27 68 188 281 260 246 240 168 139 99 31 26 3 0 0 0 0 1 0 0 0 0 0 0 0 48
0 0 0 0 0 0 0 0 0 0 0 0 0 0 0 0 0 0 0 0 61 240 237 195 202 219 182 155 97 0 23 3 30 14 6 26 19 0 0 0 0 0 0 19
0 0 0 0 0 0 0 0 0 0 0 0 0 0 0 0 0 0 1 29 84 181 213 76 42 137 171 213 174 32 23 10 17 62 80 93 112 77 54 0 0 0 0 0
0 2 0 0 0 0 0 0 0 0 0 0 0 0 0 0 0 0 0 10 137 155 126 122 91 75 78 165 189 79 52 49 113 154 171 186 198 193 141 94 16 0 0 0
3 20 0 0 0 0 0 0 0 0 0 0 0 0 0 0 0 0 0 0 4 87 138 113 104 114 121 36 103 101 64 84 146 242 240 252 266 280 249 210 160 99 109 61
18 0 0 0 0 0 0 0 0 0 0 0 0 0 0 0 0 0 0 0 0 68 127 131 112 94 189 77 72 142 107 80 125 207 353 350 377 397 450 455 437 134 90 183
0 0 0 0 0 0 0 0 0 0 0 0 0 0 0 0 0 0 0 0 0 0 75 126 191 89 113 142 73 216 228 161 138 186 408 473 461 424 429 571 895 919 324 188
0 0 4 2 0 0 0 0 0 0 0 0 0 0 0 0 0 0 0 0 0 0 0 48 225 274 137 180 134 267 429 424 360 293 364 507 626 619 563 435 393 635 1034 923
0 1 22 0 0 0 0 0 0 0 0 0 0 0 0 0 0 0 0 0 0 0 0 0 42 215 181 234 230 320 492 573 582 519 504 525 624 856 883 906 834 571 512 851
0 0 31 0 0 0 0 0 0 0 0 0 0 0 0 0 0 0 0 0 0 0 0 0 0 214 259 274 284 346 449 626 726 676 710 805 842 884 1060 1237 1250 1221 1009 727
0 0 36 0 0 0 0 0 0 0 0 0 0 0 0 0 0 0 0 0 0 0 1 31 54 215 259 278 269 361 529 634 939 959 991 1040 1107 1126 1205 1381 1560 1619 1621 1478
0 0 8 14 1 125 11 0 0 0 0 0 0 0 0 0 0 0 0 0 0 0 1 498 50 157 202 234 256 385 608 742 1079 1243 1324 1412 1434 1533 1568 1530 1588 1811 1935 2004
37 36 8 4 16 17 2 0 0 0 0 0 0 0 0 0 0 0 0 0 0 0 0 598 548 130 207 310 333 413 563 786 964 1200 1542 1690 1805 1800 1857 1923 2004 1997 2093 2205
31 6 19 12 15 26 1 0 0 0 0 0 0 0 0 0 0 0 0 0 0 0 0 7 1144 1326 763 237 482 476 528 513 616 863 1378 1703 1837 2037 2090 2114 2251 2413 2376 2431
19 19 3 5 9 12 1 6 0 0 0 0 0 0 0 0 0 0 0 0 0 0 0 0 5 599 987 1499 1370 1485 1449 733 1029 842 1042 1142 1739 2046 2222 2391 2473 2540 2654 2749
11 8 8 3 1 10 0 0 0 0 0 0 0 0 0 0 0 0 0 0 0 0 0 0 0 0 0 467 838 1152 1644 2050 1628 1456 1476 1598 1404 1462 1815 2246 2492 2680 2782 2855
13 8 5 2 1 8 3 7 0 0 0 0 0 0 0 0 0 0 0 0 0 0 0 0 0 0 0 0 331 509 621 696 1235 1614 1867 2177 1909 1577 2035 1595 1169 2262 2355 2091
24 3 3 3 1 4 2 16 2 0 0 0 0 0 0 0 0 0 0 0 0 0 0 0 0 0 0 0 0 33 415 458 548 735 904 834 1196 2176 1283 91 0 0 1 2

GFSCGP_con_sbcape_057.txt.gz
CAPE
0 0 0 0 0 0 0 0 0 0 6 54 107 91 649 424 190 167 116 93 80 26 0 72 209 357 473 643 567 585 622 758 515 401 384 485 492 633 795 1039 1306 1562 1547 1667
0 0 0 0 0 0 0 0 0 0 0 9 56 88 330 590 406 218 118 93 96 22 14 81 220 260 392 565 617 631 650 702 694 428 606 624 866 885 1117 1282 1473 1691 1663 1934
0 0 0 0 0 0 0 0 0 0 0 0 3 27 87 614 557 393 90 41 28 19 22 62 218 241 311 477 619 653 845 849 815 851 662 697 839 767 876 1196 1550 1724 1859 1997
0 0 0 0 0 0 0 0 0 0 0 0 0 22 17 285 700 524 437 206 30 0 6 15 139 253 296 567 436 710 806 915 723 974 915 1356 765 825 859 1117 1282 1803 1926 2004
0 0 0 0 0 0 0 0 0 0 0 0 0 0 0 104 628 747 618 491 380 215 52 23 39 158 183 287 380 258 793 1110 1127 1166 1224 993 1196 886 942 782 1316 1816 2037 1948
0 0 0 0 0 0 0 0 0 0 0 0 0 0 0 0 268 692 746 688 552 447 408 383 210 125 216 145 280 298 770 903 1123 999 1167 1561 1658 1233 846 832 846 938 1328 1722
0 0 0 0 0 0 0 0 0 0 0 0 0 0 0 0 6 226 624 754 740 634 492 493 451 339 320 509 464 544 661 841 942 970 1172 1336 1537 1762 1529 1293 781 995 824 1260
0 0 0 0 0 0 0 0 0 0 0 0 0 0 0 0 0 2 181 509 696 758 620 554 532 604 673 698 742 655 689 814 824 900 1213 1403 1550 747 680 1138 652 619 491 803
0 0 0 0 0 0 0 0 0 0 0 0 0 0 0 0 0 0 1 246 629 778 755 643 604 527 702 709 853 770 891 875 828 503 1126 1347 1394 1330 944 1375 1117 672 1060 450
0 0 0 0 0 0 0 0 0 0 0 0 0 0 0 0 0 0 0 102 415 728 828 793 670 684 689 542 685 761 893 924 962 833 899 1094 1243 1324 1333 1270 1345 1305 860 759
0 0 0 0 0 0 0 0 0 0 0 0 0 0 0 0 0 0 0 2 71 427 756 810 836 805 779 519 752 838 722 1029 986 831 940 1044 1063 924 999 1016 1165 1526 1045 1067
0 0 0 0 0 0 0 0 0 1 0 0 0 0 0 0 0 0 0 14 38 198 614 761 794 795 762 965 894 821 717 598 800 980 1053 1033 1104 1139 844 1186 1098 1373 1592 1097
24 11 0 0 0 0 0 0 0 0 0 0 0 0 0 0 0 0 0 0 46 279 525 719 691 879 969 1118 1116 982 838 618 575 933 718 939 953 992 1373 1331 1283 1368 1447 1430
55 2 0 0 0 0 0 0 0 0 0 0 2 0 0 0 0 0 0 0 0 21 296 510 600 879 1065 1229 1322 1308 980 712 681 674 730 1168 1300 1357 1328 1605 1644 1327 1606 1535
29 1 0 0 0 0 0 0 0 0 0 0 0 0 0 0 0 0 0 0 0 0 5 350 588 1001 1083 1232 1399 1425 1240 1142 955 1161 1140 1315 1473 1528 1648 1748 1775 1538 1698 1759
51 7 0 0 0 0 0 0 0 0 0 0 0 0 0 0 0 0 0 8 24 79 76 11 413 683 1091 1266 1148 1275 1283 1184 1281 1361 1407 1585 1709 1774 1818 1913 1846 2027 1800 1670
32 11 4 0 0 3 0 0 0 0 0 0 0 0 0 0 0 0 0 0 0 0 75 169 52 536 1079 1152 1167 1155 1284 1308 1350 1454 1557 1811 1900 1894 1953 1999 2163 2304 2299 1732
21 8 30 0 0 6 0 0 0 0 0 0 0 0 0 48 0 0 0 0 0 0 0 46 245 116 1279 812 792 1079 1108 1507 1461 1539 1595 1839 1985 1984 2046 2085 2090 2143 2079 2483
38 53 35 12 26 16 121 0 1 0 0 0 0 0 0 0 0 0 0 0 0 0 0 41 294 511 68 1226 1321 1416 1540 1679 1661 1704 1727 1791 1954 2103 2218 2281 2316 2273 1949 2009
14 87 76 15 38 72 14 7 1 7 1 0 0 0 0 0 101 0 0 0 0 0 2 396 1213 706 150 1400 1387 1557 1523 1852 1905 1985 1957 1998 1998 2113 2302 2476 2624 2679 2421 2105
25 52 31 40 52 25 5 1 0 18 1 0 0 0 0 0 0 0 0 0 0 1 4 1173 806 890 1633 1598 1334 1698 1812 1974 1894 1803 1742 2234 2358 2451 2529 2722 2875 2630 2683 2766
18 42 30 23 39 13 4 0 8 2 0 0 0 0 0 0 0 0 0 0 0 0 0 300 1294 954 1132 1546 1706 1931 2180 2202 2487 2514 2237 2638 2778 2272 2215 3023 2778 2996 3125 3222
77 29 44 31 13 5 20 11 18 10 0 0 0 0 0 0 0 0 0 0 0 0 0 0 328 626 1476 1511 1380 1615 1892 2202 2556 2756 3015 2950 3023 2801 3269 3298 3225 2890 3194 2944
7 12 10 7 10 15 17 18 24 15 1 0 0 0 0 0 0 0 0 0 0 0 0 0 0 0 97 995 1450 1901 2192 1883 2199 2592 2907 2908 2865 2935 3189 2923 2950 2968 3079 3129
17 11 8 8 13 10 0 29 34 21 6 1 0 0 0 0 0 0 0 0 0 0 0 0 0 0 0 1 273 954 1310 2496 2364 2090 2072 2194 2325 2677 3017 3115 2644 3184 3515 2745
19 21 7 7 24 33 19 13 10 11 18 13 8 4 2 3 0 0 0 0 0 0 0 0 0 0 0 0 0 0 200 1300 1570 1845 2352 1792 2860 2240 2549 2642 912 0 0 2

GFSCGP_con_sbcape_060.txt.gz
CAPE
0 0 0 0 0 0 0 0 0 0 215 350 449 429 927 706 770 792 783 619 422 345 312 240 184 166 100 282 550 668 521 576 585 401 296 451 651 942 1164 1184 1566 2007 1869 2080
0 0 0 0 0 0 0 0 0 0 21 262 399 342 340 933 699 825 824 754 514 420 322 241 353 238 141 295 443 749 727 786 820 261 469 355 743 890 1056 1371 1855 2107 2079 2230
0 0 0 0 0 0 0 0 0 0 0 6 263 371 304 533 811 721 717 757 590 460 429 265 375 294 207 331 581 739 958 952 913 630 321 937 1131 1295 1577 1626 1626 1978 2186 2271
0 0 0 0 0 0 0 0 0 0 0 0 63 276 259 279 876 849 764 742 697 555 416 363 356 389 289 356 607 892 1085 1151 990 887 953 1798 1197 874 682 1126 992 1484 2190 2199
0 0 0 0 0 0 0 0 0 0 0 0 1 106 136 231 468 968 891 722 631 590 443 355 374 535 416 398 573 938 1306 1948 1855 1647 1490 1074 1581 453 580 847 1589 2057 2473 2314
0 0 0 0 0 0 0 0 0 0 0 0 0 7 40 97 212 452 866 818 765 578 450 368 351 476 549 492 459 823 1878 2078 2076 1602 977 1795 2073 1477 839 1457 1318 1267 1334 1904
0 0 0 0 0 0 0 0 0 0 0 0 0 0 0 40 151 176 436 800 897 920 667 438 329 325 627 642 623 770 1645 2394 2163 1554 1304 1345 1595 1944 1599 1583 1255 1661 829 1036
0 0 0 0 0 0 0 0 0 0 0 0 0 0 0 0 3 55 178 628 969 1070 1010 918 619 450 424 637 696 800 1464 2252 2047 1814 2329 2274 2322 1142 1294 1468 1103 974 725 735
0 0 0 0 0 0 2 0 0 0 0 0 0 0 0 0 0 0 14 179 392 702 957 1033 1100 1063 786 609 1081 1297 1754 1695 1892 1355 2370 2441 2427 2134 1335 2353 1543 1077 1803 739
0 0 0 0 0 0 0 0 0 0 0 0 0 0 0 0 0 0 0 4 134 424 872 1008 1108 1193 1158 839 784 868 1039 1680 1505 1508 1623 1673 1636 2104 2122 1755 2180 1843 1262 1400
0 0 0 0 0 0 0 0 25 4 1 0 0 0 0 0 0 0 0 0 16 425 901 1041 1094 1139 1215 1062 815 928 1002 1178 1342 1584 1869 1779 1546 1472 1681 1584 1723 1932 1711 1580
0 0 0 0 0 11 2 36 16 57 12 0 0 1 0 0 0 0 0 0 11 81 474 904 965 1070 1182 1234 977 890 1013 1088 1187 1760 2303 1892 1841 1859 1381 1744 1788 1908 1987 1833
8 0 0 0 0 0 0 1 32 46 59 32 10 0 0 0 0 0 0 0 29 76 132 492 757 1042 1202 1260 1255 954 997 1018 1044 1520 1284 1474 1564 1501 1914 2006 1870 2266 2038 2168
0 0 2 0 0 0 4 29 43 16 57 28 36 32 6 0 0 0 0 0 2 48 195 389 737 909 1321 1548 2081 1911 1114 978 989 1074 1138 1813 1831 1840 1674 2417 2460 1957 2465 2369
39 24 22 2 0 0 0 0 0 0 5 39 35 41 53 0 0 0 0 0 0 0 2 214 685 1055 1599 1865 2260 2037 1359 1537 1370 2034 1280 1829 2467 2327 2412 2668 2806 2564 2624 2288
100 62 24 18 0 0 0 0 0 0 0 0 0 5 43 17 0 0 0 11 33 31 53 8 323 722 1208 1569 2141 2427 2418 1892 1842 2481 2175 2431 2922 2912 2964 3090 3126 3313 3141 2684
119 108 76 34 6 1 0 0 0 0 0 0 0 0 2 15 1 50 18 5 0 4 64 187 281 258 735 1214 1617 2009 2641 2184 2377 2722 2661 2850 3175 3271 3262 3268 3475 3478 3413 2996
117 194 129 56 54 4 0 0 27 0 0 0 0 0 1 1 91 1 0 3 0 15 40 108 180 325 475 703 879 1574 1781 2787 2820 3028 2997 3103 3304 3300 3403 3521 3649 3696 3242 3289
88 199 139 91 79 8 24 54 19 16 23 79 8 0 0 0 215 319 0 0 4 56 148 261 375 544 712 751 895 1361 1559 2212 2374 2983 3177 3244 3349 3271 3256 3368 3518 3388 3049 3258
125 248 277 136 72 68 107 0 1 3 177 0 0 2 0 0 1 66 0 0 0 90 226 469 793 1261 1363 1352 775 1132 1544 1866 2701 2816 2994 3228 3376 3475 3439 3482 3628 3557 2818 2796
206 167 259 221 126 35 16 0 0 135 91 8 7 3 1 39 0 0 0 0 0 0 38 565 1582 1946 1788 1656 835 2021 1996 2185 2424 2084 2097 2944 3112 3539 3553 3873 3703 3421 3176 3195
126 212 208 187 131 40 13 4 7 4 6 7 5 6 1 2 0 0 0 0 0 0 0 220 1889 1865 1422 1005 1118 2880 2827 2452 2560 2568 2486 3277 3288 2595 2578 4035 3672 3490 3698 3772
85 90 93 77 85 18 8 17 9 0 14 16 7 18 6 1 0 0 0 0 0 0 0 0 285 1730 2075 1527 1503 2067 3363 3085 2931 2877 3304 3161 2941 2865 3514 3377 3521 3190 3573 3228
5 7 67 11 6 5 15 24 55 45 36 37 10 15 3 4 0 0 0 0 0 0 0 0 0 0 659 1888 2212 2093 2379 2585 2906 3259 3279 3031 3091 3050 2893 3088 3213 3121 3104 3151
2 9 3 8 11 16 20 23 36 25 56 32 24 19 11 10 4 0 0 0 0 0 0 4 1 0 0 107 470 1571 2406 2515 2692 2877 3015 3168 3204 3084 3322 3498 2920 3281 3700 2480
25 29 15 14 21 25 27 31 16 8 8 4 1 1 1 3 3 1 0 0 0 0 0 9 4 2 0 0 0 5 535 2592 2642 2648 2652 2680 2868 3258 3266 3357 2918 0 0 2

GFSCGP_con_sbcape_063.txt.gz
CAPE
0 0 0 0 0 0 0 0 0 0 283 227 252 305 339 772 730 999 922 576 582 571 485 305 224 121 69 94 273 433 882 2143 1114 809 690 697 813 998 1774 1641 1673 1759 1877 1916
0 0 0 0 0 0 0 0 0 0 43 238 222 292 410 648 706 948 975 750 580 636 518 336 253 149 80 175 452 1238 1374 2284 1359 794 1221 934 1281 787 811 814 1714 1773 1628 2016
0 0 0 0 0 0 0 0 0 0 0 142 226 282 297 363 628 808 926 975 514 650 687 503 343 206 122 258 476 1417 1956 2246 1763 1494 1200 1244 1307 1422 866 1560 1406 1874 1908 2058
0 0 0 0 0 0 0 0 0 0 0 10 79 250 161 58 687 726 918 1003 915 486 683 671 557 387 237 205 381 1523 1796 2354 1891 2012 826 1877 1016 805 651 1182 928 1578 1901 1980
0 0 0 0 0 0 0 0 0 0 0 0 2 30 381 386 690 663 830 956 950 808 559 658 623 606 400 254 377 581 2174 2571 2202 2060 1843 1140 1796 650 595 626 2912 2946 3367 2019
0 0 0 0 0 0 0 0 0 0 0 0 0 15 93 51 164 636 792 852 916 917 750 640 618 671 580 347 361 946 2256 2854 2822 2474 2000 2567 2094 1991 456 903 1535 1007 1631 1852
0 0 0 0 0 0 0 0 0 0 0 0 0 0 8 142 184 159 666 797 853 869 899 771 641 593 750 904 888 1237 2415 2966 2868 2697 1872 2059 2676 2745 3015 2515 1027 1299 579 708
0 0 0 0 0 0 0 0 0 0 0 0 0 0 0 1 89 99 17 539 796 819 829 858 787 688 1102 1209 1276 1463 2319 3146 3107 2699 2621 2151 2587 910 862 1890 976 692 473 618
0 0 0 0 0 0 0 0 0 0 5 0 0 0 0 0 0 64 2 310 423 824 860 815 864 816 1099 1279 1643 1654 2196 3038 3107 2201 3016 3134 2495 1759 856 2192 2675 1570 1942 807
0 0 0 0 0 0 5 2 0 0 4 0 0 0 0 0 0 0 14 94 259 625 920 1007 989 843 822 914 1048 1578 2089 2964 2572 2575 2873 2769 2546 2549 2398 2884 3391 2365 2440 2675
0 0 0 0 0 0 0 0 9 31 4 3 0 0 0 0 0 0 0 0 198 791 800 921 1042 1159 924 821 919 1091 1517 2238 2366 2652 2710 2437 2374 1997 2461 2948 3126 3050 2813 3270
0 0 0 0 0 0 0 2 0 65 42 13 0 10 0 1 0 0 2 8 27 129 537 756 876 1155 1286 1296 1026 1039 1100 1197 1819 2262 2754 2633 2829 2228 2183 2633 2739 3382 3453 3186
4 1 0 0 0 0 0 0 33 25 22 79 14 2 8 1 0 0 0 0 30 106 354 679 793 1039 1234 1466 1759 1156 1026 991 1154 2069 1891 2484 2596 2636 2271 2904 2757 3225 3552 3636
1 7 34 11 2 0 7 0 15 72 77 36 26 51 22 11 6 1 0 0 4 205 430 346 645 888 1177 1773 2469 2276 1338 1081 1040 1241 1460 2061 2512 2525 2381 2803 3143 3140 3574 3705
25 46 32 8 0 0 0 0 31 61 90 100 38 46 62 37 22 41 8 18 40 67 92 192 211 945 2530 2536 2925 2615 1688 1852 1427 1885 1669 2093 2682 2682 2793 2635 3211 3216 3587 3644
73 76 75 57 14 7 0 0 0 0 5 3 5 6 18 17 27 53 8 34 160 124 13 10 307 720 1104 1760 3124 2897 2602 2253 1882 2306 1906 2111 2877 2991 2966 2926 3171 3576 3711 3862
240 203 89 87 57 46 14 0 0 0 0 0 0 0 4 2 13 183 149 235 62 57 64 106 194 406 842 1363 2175 2602 2958 2459 2498 2855 2517 2609 2977 3089 3134 3117 3396 3647 3905 4090
256 260 241 210 117 91 22 0 7 12 0 0 0 2 0 3 4 3 255 133 123 163 165 197 206 268 472 768 1271 1866 2285 3126 3108 2825 3557 2984 3355 3442 3568 3627 3617 3882 4051 4100
119 189 228 140 154 56 36 221 206 183 102 1 31 0 0 0 5 1 155 66 134 298 484 548 517 470 481 504 750 1585 2055 3271 3223 3679 3244 3590 3538 3676 3904 3877 3975 4074 4171 4199
129 217 270 203 149 112 83 190 86 142 141 422 150 130 149 99 73 38 55 0 21 42 185 435 796 975 1061 1098 940 832 1533 2343 3394 3683 3571 3769 3782 4032 4086 4116 4189 4261 4320 4236
289 294 294 257 211 142 57 129 41 148 91 28 41 33 160 192 253 41 0 0 0 0 0 0 455 1955 2116 1944 1455 1621 1717 2476 3080 3341 3649 4086 4066 4186 4309 4426 4472 4473 4384 3629
130 256 298 358 262 156 435 210 63 130 15 13 14 3 0 0 0 0 0 0 0 0 0 0 25 887 3137 2437 2241 2951 2452 3008 3467 3549 3691 4087 4273 3688 3822 4474 4513 4549 4508 4451
61 110 250 204 224 335 249 98 109 30 15 0 30 3 6 1 10 0 1 0 0 0 2 0 0 3 129 1842 2307 3344 3094 4065 3858 3907 3990 4115 4207 4222 4189 4392 4530 4007 4377 3521
65 11 61 40 92 22 6 24 6 30 41 1 24 17 13 15 16 0 0 0 0 2 5 4 2 2 0 0 292 1292 3145 3928 4121 4145 4305 4208 4184 4137 4173 3665 3684 3374 3128 3423
11 8 11 25 0 1 1 24 14 12 14 11 16 8 7 8 13 10 6 4 9 17 11 3 9 7 6 1 1 0 319 2096 3043 3920 3767 4029 3321 3406 3985 3620 3536 3254 3404 2452
16 16 21 17 17 19 25 22 14 14 19 6 0 0 0 0 4 3 26 17 19 22 15 7 7 7 9 1 3 0 0 12 2564 3079 3205 3003 3053 3206 3161 3445 2600 2 674 45

GFSCGP_con_sbcape_066.txt.gz
CAPE
0 0 0 0 0 0 0 0 0 0 0 43 57 100 30 79 35 37 448 719 444 354 479 444 275 32 166 220 387 736 1397 2015 1532 1676 1561 1341 1193 1973 622 801 1627 3043 2605 2507
0 0 0 0 0 0 0 0 0 0 0 97 331 8 0 0 0 2 431 471 682 389 304 394 331 62 95 274 397 1155 1285 1942 1402 1807 1814 1696 1330 1558 968 1290 2159 2641 2666 3037
0 0 0 0 0 0 0 0 0 0 0 81 90 50 18 0 23 197 518 321 473 609 489 429 324 163 148 283 555 1031 1310 1798 1454 1825 1592 2492 2795 2238 1720 2489 2474 2791 2832 3028
0 0 0 0 0 0 0 0 0 0 0 0 15 140 0 33 194 14 10 397 371 612 603 454 352 291 123 359 746 989 1494 2120 1387 2148 1296 1976 1501 1492 1582 1799 2237 2492 3182 3068
0 0 0 0 0 0 0 0 0 0 0 0 0 7 206 168 9 4 0 296 281 487 601 519 331 358 176 498 675 976 1357 2024 1351 1434 2023 1852 1704 1424 2190 1598 2761 2624 3641 3526
0 0 0 0 0 0 0 0 0 0 0 0 0 0 0 247 13 0 0 119 387 268 564 742 494 447 316 426 528 1119 1310 1665 1684 1391 1522 2150 1428 2410 1941 1956 1796 2478 2586 2836
0 0 0 0 0 0 0 0 0 0 0 0 0 0 0 32 124 0 0 267 687 578 558 830 857 709 538 378 517 836 1350 1475 1562 1521 1089 2157 1602 1835 2870 3104 1870 1539 2041 1749
0 0 0 0 0 0 0 0 0 0 0 0 0 0 0 0 309 297 128 69 25 809 719 764 910 938 820 633 533 719 1405 1571 1586 1925 1102 1318 2241 1472 1729 2759 1698 2752 1530 1976
0 0 0 0 0 0 0 0 0 0 0 0 0 0 0 0 0 484 78 29 8 122 718 883 954 932 1161 959 709 897 1373 1652 1903 1667 1859 1048 1996 1981 1107 2265 2808 2042 2510 2199
0 0 0 0 0 0 0 0 1 0 0 0 0 0 0 0 0 0 186 157 175 58 1 198 1013 988 1168 1116 1116 978 1462 1772 2042 1745 2010 1635 997 1692 1777 1052 2916 2133 2688 2442
0 0 0 0 0 0 0 0 0 1 13 0 0 0 0 30 0 0 327 159 2 0 4 93 2 1091 1047 1132 1321 1203 1290 1984 2321 2285 1936 1917 1619 1258 1141 1616 1283 2098 2105 4008
0 0 0 0 0 0 0 0 0 16 1 6 2 0 0 0 10 0 0 259 160 91 17 0 0 280 1078 1103 1145 1403 1361 1702 2218 2398 2194 2046 2300 1675 1405 884 2044 2625 3407 2866
1 0 0 0 0 0 0 0 0 0 0 23 22 0 0 4 16 26 0 3 354 476 59 55 227 717 976 1049 1185 1249 1384 1313 2082 2446 2355 2244 2123 2208 1814 1086 1508 2408 2155 2806
0 0 0 4 0 0 0 0 0 0 5 0 0 0 0 23 1 17 15 43 55 508 402 562 899 587 1253 1247 1199 1260 1304 1348 1485 2119 2216 2278 2215 2174 1882 1914 1158 1959 2837 2580
0 2 7 0 0 0 0 0 0 0 0 4 0 0 0 72 100 17 83 133 79 62 226 381 1221 428 836 1927 1714 1510 1349 1243 1337 1634 1844 2190 2326 2199 2270 1929 2099 1865 2008 2490
51 43 36 15 5 2 0 0 0 0 0 0 0 0 0 0 10 11 106 332 370 515 428 649 718 1248 1622 2030 2258 2133 1753 1575 1365 1463 1694 1985 2207 2319 2430 2240 2246 2373 2340 2645
124 227 119 60 27 17 8 1 1 0 0 0 0 0 0 0 56 1 115 189 203 328 412 411 311 485 998 1107 2111 2575 2249 1942 1742 1821 1823 1905 2338 2297 2327 2504 2108 2595 2472 2632
76 111 242 69 90 69 1 0 1 0 0 0 0 0 0 0 19 0 0 26 147 294 379 477 207 364 304 450 570 2791 2646 2538 2572 1948 2360 2068 2349 2284 2509 2372 2509 2174 2605 2609
84 157 290 155 34 36 5 27 151 157 60 0 194 22 0 0 0 32 195 272 125 94 141 238 310 524 931 1164 1166 1096 2958 2637 2402 2859 2234 2516 2071 2459 2523 2592 2553 2463 2514 2862
199 223 279 180 87 61 15 111 61 34 16 166 86 62 143 205 7 63 86 16 0 21 12 40 0 51 760 1485 1254 1119 1265 3116 2572 2274 2827 2839 2310 2601 2665 2676 2696 2672 2759 2779
201 378 195 223 169 27 189 142 70 96 72 77 8 2 12 46 160 99 0 4 0 0 0 0 1 52 519 525 1112 1564 1569 1678 3228 2725 2498 3087 3567 2719 3121 3175 3161 3150 3103 3131
98 92 197 153 205 69 317 174 108 105 14 6 4 0 12 4 8 1 0 0 0 0 0 0 1 1 46 81 212 1064 2411 2084 2653 3482 3004 3670 3120 3518 3321 3612 3703 3545 3598 3573
96 42 149 165 128 350 125 10 5 10 15 8 10 3 6 17 7 8 0 0 0 0 3 3 5 2 1 7 6 61 1645 3166 2768 3487 3521 3558 4016 3654 3586 3880 3859 3899 3839 3686
10 6 18 5 46 19 2 6 13 5 12 17 26 17 16 27 18 14 7 0 1 6 2 2 3 0 1 3 8 8 145 679 3252 3296 4043 3663 4104 3919 3700 3688 3798 3856 3777 3783
13 9 14 19 5 3 4 13 7 5 3 6 1 2 1 3 2 1 7 8 12 11 6 7 7 5 2 1 1 6 8 47 1907 4210 3976 3721 3760 3426 3839 3390 3740 3769 3746 3624
16 15 27 35 11 20 11 23 9 9 11 10 15 4 0 0 1 0 0 6 18 19 16 17 15 9 3 1 0 8 12 10 546 3526 3731 3637 3390 3545 3530 3456 2203 0 757 443

GFSCGP_con_sbcape_069.txt.gz
CAPE
0 0 0 0 0 0 0 0 0 0 0 0 226 203 7 0 113 482 220 135 61 158 179 75 5 0 13 28 0 62 174 165 806 866 688 711 554 406 797 1342 1406 1596 1465 77
0 0 0 0 0 0 0 0 0 0 0 58 412 255 72 3 135 126 0 218 94 195 219 115 12 3 0 27 0 36 346 342 760 703 688 387 425 937 376 346 893 1569 1591 731
0 0 0 0 0 0 0 0 0 0 0 45 161 186 120 49 31 49 158 28 115 165 189 201 21 2 0 3 6 0 704 447 640 404 382 778 924 911 510 616 625 1428 1708 1425
0 0 0 0 0 0 0 0 0 0 0 0 50 102 85 41 57 160 206 14 8 76 110 205 37 0 8 0 30 10 727 504 403 521 117 514 557 417 650 754 1323 1567 1409 1754
0 0 0 0 0 0 0 0 0 0 0 0 0 0 108 48 44 97 43 0 1 8 67 85 93 0 4 6 49 185 792 498 255 618 135 246 319 592 487 798 1176 1548 1664 1692
0 0 0 0 0 0 0 0 0 0 0 0 0 0 15 29 50 5 28 0 30 43 26 129 110 37 0 53 0 314 734 379 257 283 771 202 290 332 781 555 1015 1373 1852 1953
0 0 0 0 0 0 0 0 0 0 0 0 0 0 0 160 162 0 1 51 44 17 259 211 155 71 1 20 100 186 384 799 247 181 243 1007 267 207 1054 1051 1309 1292 1533 1581
0 0 0 0 0 0 0 0 0 0 0 0 0 0 0 34 287 44 24 9 95 244 105 104 210 130 71 96 219 240 289 510 420 112 74 280 883 187 498 1102 880 1143 1339 1096
0 0 0 0 0 0 0 0 0 0 0 0 0 0 0 0 195 146 0 9 350 317 154 3 166 248 145 155 129 338 332 286 582 377 0 141 1003 212 385 680 1087 991 550 1032
0 0 0 0 0 0 0 0 0 0 0 0 0 0 0 0 16 218 58 339 51 78 101 206 216 191 196 166 197 216 487 391 613 566 254 20 353 909 382 419 764 1162 433 1114
0 0 0 0 0 0 0 0 0 0 0 0 0 0 0 0 0 62 275 273 44 55 155 293 300 59 10 25 189 218 611 554 639 493 705 141 17 734 712 347 206 953 927 1331
0 0 0 0 0 0 0 0 0 0 0 0 0 0 0 0 0 17 238 389 185 279 392 141 159 141 3 0 289 210 405 722 769 707 723 805 138 242 604 544 175 511 772 878
0 0 0 0 0 0 0 0 0 0 0 0 0 0 0 0 0 21 41 170 245 235 314 96 30 0 0 0 39 378 388 852 900 1060 697 971 832 97 374 280 493 139 1512 616
0 0 0 0 0 0 0 0 0 0 0 0 0 0 0 0 0 0 0 207 215 284 291 181 25 8 19 102 98 592 460 780 1140 1212 1238 964 970 954 167 182 29 932 943 1829
0 0 0 0 0 0 0 0 0 0 0 0 0 0 0 0 0 0 65 291 217 349 210 191 63 46 284 324 427 260 720 670 1219 1528 1493 1344 1151 1071 1122 586 328 13 1194 910
0 0 0 0 0 0 0 0 0 0 0 0 0 0 0 0 0 0 2 66 98 108 243 348 121 249 427 710 110 263 463 851 816 1476 1705 1588 1399 1269 1222 1163 976 164 318 1543
1 0 3 0 0 0 0 0 0 0 0 0 0 0 0 0 0 15 148 83 152 35 9 4 10 95 120 108 88 11 115 799 959 1027 1562 1596 1556 1505 1344 1326 1079 1054 393 496
0 3 16 0 19 1 0 0 0 0 0 2 0 0 0 0 0 0 61 49 39 7 0 24 0 0 108 87 3 18 192 227 599 923 1204 1472 1563 1527 1469 1428 1333 1223 1267 962
0 9 8 26 25 0 0 0 73 16 0 14 0 0 0 0 0 0 0 0 0 0 0 0 12 0 4 222 197 58 260 93 5 710 1163 1353 1501 1537 1560 1339 1471 1358 1462 1557
0 13 39 22 20 0 53 139 101 35 0 0 0 0 0 0 0 0 0 0 0 0 0 0 0 0 0 0 2 286 4 0 3 564 1436 1444 1341 1592 1426 1567 1427 1625 1328 1322
0 7 5 16 30 3 126 121 107 27 0 0 0 0 0 0 0 0 0 0 0 0 0 0 0 0 0 0 0 3 13 461 881 1253 1551 1731 1418 1525 1558 1542 1601 1503 1610 1447
29 58 10 17 19 9 13 159 86 5 0 0 0 0 0 0 0 0 0 0 0 0 0 0 0 0 0 0 1 1 2 3 15 250 1727 1953 1941 1462 1801 1698 1790 1750 1714 1706
4 9 14 29 59 12 12 1 0 0 0 0 0 3 2 0 0 0 0 0 0 0 0 0 0 0 0 0 0 0 1 3 2 1 1002 1776 2296 1818 1784 1995 1931 1987 1947 1922
6 0 4 0 0 1 3 2 5 0 4 1 2 7 7 10 1 6 0 0 0 0 0 0 0 0 0 0 0 0 0 2 3 1 787 2578 2596 2628 2016 2514 2248 2328 2284 2315
4 4 10 14 1 4 1 1 15 8 10 13 7 13 7 0 1 4 10 0 0 0 7 0 2 0 0 0 0 0 0 2 2 1 386 2761 2540 2417 2714 2703 2650 2552 2628 2588
0 1 4 2 6 12 9 10 10 12 19 19 29 12 5 3 2 3 4 0 3 3 9 5 0 1 1 0 0 0 0 2 3 2 274 1884 2774 2821 2920 2720 1037 1 446 2237

GFSCGP_con_sbcape_072.txt.gz
CAPE
0 0 0 0 0 0 0 0 0 0 0 0 255 367 365 241 170 410 254 124 35 65 93 5 0 14 1 0 0 0 45 18 70 165 239 116 369 439 893 659 709 900 743 334
0 0 0 0 0 0 0 0 0 0 0 66 390 420 166 202 343 371 401 241 140 83 91 61 1 3 10 0 0 0 90 24 181 210 108 199 99 124 842 719 1024 971 666 0
0 0 0 0 0 0 0 0 0 0 4 171 186 124 74 35 270 351 514 277 173 108 75 91 4 39 11 0 0 0 100 42 274 180 238 166 168 165 303 163 660 1087 1111 268
0 0 0 0 0 0 0 0 0 0 0 0 42 107 64 42 165 399 414 94 91 127 102 199 0 16 34 0 0 0 203 123 350 135 198 375 622 408 163 233 332 819 1252 791
0 0 0 0 0 0 0 0 0 0 0 0 0 0 0 27 56 268 457 148 229 118 189 245 2 0 40 7 0 259 276 203 360 174 66 214 135 119 191 283 609 843 885 1109
0 0 0 0 0 0 0 0 0 0 0 0 0 0 0 0 34 46 460 397 237 62 150 232 148 0 0 6 0 387 296 222 308 214 5 59 154 80 448 373 807 923 940 1033
0 0 0 0 0 0 0 0 0 0 0 0 0 0 0 6 88 47 222 360 233 40 160 205 100 17 0 0 0 172 329 218 177 253 297 15 94 24 351 394 805 810 1140 1266
0 0 0 0 0 0 0 0 0 0 0 0 0 0 0 0 129 139 108 194 235 81 44 95 97 1 0 0 37 74 339 221 131 216 270 353 37 30 153 449 584 809 1048 1332
0 0 0 0 0 0 0 0 0 0 0 0 0 0 0 0 4 162 73 111 206 280 169 206 191 49 44 10 20 108 213 182 127 100 61 152 496 148 55 466 680 776 695 818
0 0 0 0 0 0 0 0 0 0 0 0 0 0 0 0 0 34 113 106 196 377 222 230 333 296 128 38 6 9 123 216 263 106 0 5 88 553 25 166 402 776 552 686
0 0 0 0 0 0 0 0 0 0 0 0 0 0 0 0 0 0 103 66 49 337 293 356 337 223 178 78 63 69 17 76 335 322 106 0 9 101 380 40 136 360 411 509
0 0 0 0 0 0 0 0 0 0 0 0 0 0 0 0 0 35 127 19 50 216 307 270 311 313 186 75 14 130 237 134 128 373 318 78 0 4 431 373 94 162 460 518
0 0 0 0 0 0 0 0 0 0 0 0 0 0 0 0 4 67 100 88 69 38 19 77 117 153 192 157 38 76 213 387 255 369 367 376 34 0 87 469 372 3 354 417
0 0 0 0 0 0 0 0 0 0 0 0 0 0 0 0 0 0 49 54 69 60 162 94 87 59 0 0 4 2 208 468 476 471 438 505 535 104 0 157 265 319 0 283
0 0 0 0 0 0 0 0 0 0 0 0 0 0 0 0 0 0 19 56 65 144 157 110 57 38 13 29 0 258 296 341 670 631 663 429 730 677 164 0 142 32 310 249
0 0 0 0 0 0 0 0 0 0 0 0 0 0 0 0 5 19 42 105 66 14 0 0 55 338 324 169 157 195 137 266 734 794 834 802 548 837 774 264 11 29 5 497
0 0 0 0 0 0 0 0 0 0 0 1 0 0 0 0 0 0 0 4 11 34 4 6 10 0 122 282 121 39 36 93 217 810 1072 1108 1032 844 856 928 432 213 68 0
0 0 0 0 0 0 0 0 0 0 1 0 0 0 0 0 0 0 0 0 0 0 0 0 0 0 15 35 1 59 69 342 334 543 1106 1515 1438 1300 1104 997 1092 797 534 36
0 0 0 0 0 0 0 0 0 16 12 0 0 0 0 0 10 0 0 0 0 0 0 0 0 0 0 0 0 10 248 232 127 117 71 481 1627 1589 1397 1241 1166 1123 977 656
0 0 0 0 0 0 0 5 9 2 35 0 0 0 0 0 0 0 0 0 0 0 0 0 0 0 0 0 0 1 2 71 66 109 75 250 521 1436 1570 1498 1364 1307 1126 1091
0 0 0 0 1 0 0 0 5 18 0 0 0 0 0 0 0 0 0 0 0 0 1 0 0 0 0 0 0 0 0 3 1 0 0 18 154 1242 1506 1571 1460 1432 1389 1216
0 0 0 0 0 1 0 0 0 2 0 0 0 0 0 0 0 0 0 0 0 0 0 0 0 0 0 0 0 0 0 1 4 2 0 0 85 1300 1362 1519 1517 1376 1342 1418
1 0 0 0 34 1 1 1 0 0 0 0 0 1 1 1 0 0 0 0 0 0 0 0 0 0 0 0 0 0 0 0 1 3 3 1 4 876 1345 1504 1435 1472 1341 1426
0 0 1 0 0 0 0 0 0 3 0 0 0 4 4 4 0 0 0 0 0 0 0 0 0 0 0 0 0 0 0 0 3 3 1 1 20 938 1454 1451 1411 1431 1453 1375
0 0 0 0 0 1 0 0 1 7 4 9 13 4 20 18 8 0 0 0 0 0 1 1 0 0 0 0 0 0 0 2 2 1 1 2 67 679 1991 1471 1485 1546 1545 1545
0 0 0 0 0 1 1 5 12 14 6 10 11 20 21 27 8 4 2 0 0 0 7 20 1 0 0 0 0 0 0 3 6 3 1 3 3 29 1993 1975 356 1 171 1085

GFSCGP_con_sbcape_075.txt.gz
CAPE
0 0 0 0 0 0 0 0 0 0 0 0 176 281 263 282 205 262 122 68 39 38 14 0 0 1 20 4 62 23 87 0 110 64 134 137 224 334 577 495 624 660 543 334
0 0 0 0 0 0 0 0 0 0 0 11 223 309 191 442 252 424 273 87 46 35 21 0 0 4 0 18 0 80 13 0 80 85 127 138 178 193 363 397 675 716 560 124
0 0 0 0 0 0 0 0 0 0 0 156 124 310 286 229 277 356 425 289 89 10 30 0 0 0 0 0 0 55 10 0 26 49 77 108 194 167 398 318 722 895 669 0
0 0 0 0 0 0 0 0 0 0 0 0 28 98 105 17 85 268 492 441 244 44 43 0 0 0 0 0 0 0 20 0 19 35 107 200 231 281 263 275 268 819 1065 320
0 0 0 0 0 0 0 0 0 0 0 0 0 0 0 4 39 268 501 479 369 222 78 54 0 1 0 0 0 0 3 5 51 22 59 111 217 170 104 176 169 475 854 777
0 0 0 0 0 0 0 0 0 0 0 0 0 0 0 21 89 110 425 496 443 101 128 50 0 0 0 0 0 0 0 2 38 0 0 103 104 99 127 163 273 406 552 895
0 0 0 0 0 0 0 0 0 0 0 0 0 0 0 4 30 46 149 393 497 170 115 107 11 0 0 0 0 0 0 0 67 40 0 4 70 48 71 142 273 515 717 815
0 0 0 0 0 0 0 0 0 0 0 0 0 0 0 0 0 0 33 124 304 255 201 130 84 0 0 0 0 54 0 11 49 102 55 0 0 18 21 151 236 525 745 882
0 0 0 0 0 0 0 0 0 0 0 0 0 0 0 0 0 0 7 33 384 353 196 168 159 0 0 0 0 60 93 2 41 79 71 64 0 0 0 97 200 443 494 913
0 0 0 0 0 0 0 0 0 0 0 0 0 0 0 0 0 0 0 0 84 303 80 73 170 20 3 0 9 0 142 108 21 63 63 97 112 46 0 0 313 420 442 425
0 0 0 0 0 0 0 0 0 0 0 0 0 0 0 0 0 0 15 0 0 123 97 90 119 52 10 10 0 6 27 101 119 68 43 26 54 103 76 0 20 113 454 381
0 0 0 0 0 0 0 0 0 0 0 0 0 0 0 0 0 0 11 13 0 86 122 122 178 138 2 14 9 28 43 72 95 124 67 3 0 0 90 62 0 0 60 193
0 0 0 0 0 0 0 0 0 0 0 0 0 0 0 0 0 0 6 45 27 67 208 193 130 69 15 0 0 28 5 56 128 155 123 27 0 0 0 71 100 0 0 46
0 0 0 0 0 0 0 0 0 0 0 0 0 0 0 0 0 0 0 29 65 92 41 10 0 0 2 0 0 1 20 29 61 165 238 151 21 0 0 0 22 101 0 28
0 0 0 0 0 0 0 0 0 0 0 0 0 0 0 0 0 0 0 10 42 1 0 16 11 44 41 3 0 0 17 42 154 77 218 236 205 21 0 0 0 0 26 4
0 0 0 0 0 0 0 0 0 0 0 0 0 0 0 0 0 0 0 0 0 9 11 2 1 30 282 227 74 22 101 155 257 250 198 246 262 264 25 0 0 0 0 17
0 0 0 0 0 0 0 0 0 0 0 0 0 0 0 0 0 0 0 0 0 0 3 1 4 4 21 14 13 29 24 46 83 459 374 355 237 351 420 146 0 0 0 0
0 0 0 0 0 0 0 0 0 0 0 0 0 0 0 0 0 0 0 0 0 0 0 0 0 0 4 5 4 2 84 54 125 196 437 641 622 342 496 595 301 0 0 0
0 0 0 0 0 0 0 0 0 0 0 0 0 0 0 0 0 0 0 0 0 0 0 0 0 0 0 0 0 3 34 97 77 86 155 387 923 938 649 686 707 619 175 3
0 0 0 0 0 0 0 0 0 0 0 0 0 0 0 0 21 2 0 0 0 0 0 0 0 0 0 0 0 1 2 4 2 4 49 120 357 1223 1399 1071 852 839 792 571
0 0 0 0 0 0 0 0 0 0 0 0 0 0 0 0 0 0 0 0 0 0 0 0 0 0 0 0 0 1 3 3 8 7 6 1 0 118 406 1074 1319 1148 937 975
0 0 0 0 0 0 0 0 0 0 0 0 0 0 0 0 0 0 0 0 0 0 0 0 0 0 0 0 0 0 0 2 7 11 10 7 1 17 259 906 1237 1383 1224 1083
0 0 0 0 0 0 0 1 0 0 0 0 0 0 0 0 1 0 0 0 0 0 0 0 0 0 0 0 0 0 0 2 5 7 0 3 4 3 54 731 1246 1367 1334 1383
0 0 0 0 0 0 0 0 0 0 0 0 0 0 5 6 6 5 0 0 0 0 0 0 0 0 0 0 0 0 0 2 2 7 2 1 3 2 46 484 1261 1318 1348 1402
0 0 0 0 0 0 0 0 1 3 4 5 6 4 4 6 5 7 2 0 0 0 0 0 2 0 0 0 0 0 0 1 1 3 0 0 6 3 4 37 1295 1368 1398 1463
0 0 0 0 0 0 0 0 0 1 14 18 6 13 11 14 21 26 12 8 0 0 0 0 10 1 0 0 0 0 0 0 1 1 0 1 3 2 3 9 968 1 170 1054

GFSCGP_con_sbcape_078.txt.gz
CAPE
0 0 0 0 0 0 0 0 0 0 0 0 23 127 334 421 305 294 186 54 8 32 19 0 0 0 2 19 9 6 0 14 0 18 0 0 80 163 308 285 296 389 513 310
0 0 0 0 0 0 0 0 0 0 0 4 171 209 269 216 212 350 247 82 18 0 11 0 0 0 0 0 6 0 9 0 37 52 31 42 63 158 305 328 370 676 736 298
0 0 0 0 0 0 0 0 0 0 0 129 94 139 373 358 205 175 292 189 30 17 0 0 0 0 0 0 0 5 0 0 0 1 0 40 89 137 263 274 392 809 708 265
0 0 0 0 0 0 0 0 0 0 0 0 2 0 88 215 233 231 199 335 126 9 15 0 0 0 0 25 22 1 10 0 0 1 45 94 163 246 313 344 271 815 903 259
0 0 0 0 0 0 0 0 0 0 0 0 0 0 0 37 114 83 155 252 347 141 21 0 0 0 0 0 0 54 2 7 0 0 40 67 93 94 83 77 212 383 758 703
0 0 0 0 0 0 0 0 0 0 0 0 0 0 0 53 72 45 38 90 353 310 127 7 0 0 0 0 0 7 24 1 5 0 0 27 88 76 87 66 132 181 457 786
0 0 0 0 0 0 0 0 0 0 0 0 0 0 0 0 0 0 0 77 320 413 233 61 0 0 0 0 0 0 0 5 1 0 0 0 25 43 90 87 66 195 455 579
0 0 0 0 0 0 0 0 0 0 0 0 0 0 0 0 0 0 0 3 263 494 281 180 7 0 0 0 0 0 0 0 0 0 0 0 0 0 4 71 81 201 403 652
0 0 0 0 0 0 0 0 0 0 0 0 0 0 0 0 0 0 0 0 65 409 394 111 111 0 0 0 2 0 0 0 0 0 0 0 0 0 0 30 90 239 399 690
0 0 0 0 0 0 0 0 0 0 0 0 0 0 0 0 0 0 0 0 0 8 324 219 100 0 0 0 3 15 2 0 0 52 39 7 0 0 0 0 78 254 434 456
0 0 0 0 0 0 0 0 0 0 0 0 0 0 0 0 0 0 0 0 3 5 288 272 165 14 0 0 0 0 26 7 0 70 94 74 22 0 0 0 41 302 424 429
0 0 0 0 0 0 0 0 0 0 0 0 0 0 0 0 0 0 0 0 0 38 120 108 120 38 5 0 0 0 0 46 18 42 79 93 37 35 0 0 0 3 259 354
0 0 0 0 0 0 0 0 0 0 0 0 0 0 0 0 0 0 0 2 0 1 29 28 151 109 27 11 1 0 0 0 27 18 0 35 5 0 83 60 0 0 35 102
0 0 0 0 0 0 0 0 0 0 0 0 0 0 0 0 0 0 0 1 5 5 3 89 130 42 27 4 0 0 0 0 0 1 26 0 0 0 0 30 48 0 0 31
0 0 0 0 0 0 0 0 0 0 0 0 0 0 0 0 0 0 0 0 0 6 1 2 7 175 126 188 46 2 17 25 19 24 72 0 2 0 0 0 0 0 0 0
0 0 0 0 0 0 0 0 0 0 0 0 0 0 0 0 0 0 0 0 0 3 2 0 1 0 9 4 6 5 43 59 75 48 97 212 147 54 0 0 0 0 0 0
0 0 0 0 0 0 0 0 0 0 0 0 0 0 0 0 0 0 0 0 0 0 0 0 0 0 1 3 3 6 3 46 51 211 156 179 278 274 189 1 0 0 0 0
0 0 0 0 0 0 0 0 0 0 0 0 0 0 0 0 0 0 0 0 0 0 0 0 0 0 0 0 0 3 3 105 111 139 416 268 276 313 346 302 20 0 0 0
0 0 0 0 0 0 0 0 0 0 0 0 0 0 0 0 0 0 0 0 0 0 0 0 0 0 0 0 0 1 5 0 2 20 72 308 656 450 374 447 518 188 0 0
0 0 0 0 0 0 0 0 0 0 0 0 0 0 0 0 0 0 0 0 0 0 0 0 0 0 0 0 0 0 4 0 1 3 4 3 5 182 642 447 485 506 462 165
0 0 0 0 0 0 0 0 0 0 0 0 0 0 0 0 0 0 0 0 0 0 0 0 0 0 0 0 0 0 0 1 1 3 3 4 2 3 83 343 993 688 795 612
0 0 0 1 0 0 0 0 0 0 0 0 0 0 0 0 0 0 0 0 0 0 0 0 0 0 0 0 0 0 0 0 4 3 5 7 5 5 11 63 197 715 1132 980
0 0 0 0 0 0 0 0 0 0 0 0 0 0 1 0 0 0 0 0 0 0 0 0 0 0 0 0 0 0 0 1 8 7 1 2 11 10 11 14 56 258 987 1337
0 0 0 0 0 0 0 0 0 0 0 0 0 0 0 2 3 2 0 0 0 0 0 0 0 0 0 0 0 0 0 0 1 2 2 0 3 3 4 17 22 54 941 1393
0 0 0 0 0 0 0 0 0 0 0 2 7 2 4 10 10 6 1 0 0 0 0 0 0 0 0 0 0 0 0 2 2 0 0 0 4 3 3 4 6 4 173 1210
0 0 0 0 0 0 0 0 0 0 0 0 4 0 8 20 15 11 4 5 3 1 0 0 0 0 0 0 0 0 0 3 8 1 0 3 5 4 3 3 0 0 0 10

GFSCGP_con_sbcape_081.txt.gz
CAPE
0 0 0 0 0 0 0 0 0 0 0 0 0 1 199 752 247 383 195 118 63 58 124 171 139 130 21 57 45 260 632 791 732 679 519 817 1068 1119 1378 1388 1249 1129 1521 1537
0 0 0 0 0 0 0 0 0 0 0 0 200 257 281 376 357 313 373 154 189 116 95 89 104 109 70 83 142 289 576 820 830 683 728 909 1071 1094 1383 1520 1460 1121 1454 1651
0 0 0 0 0 0 0 0 0 0 0 322 295 337 345 555 549 614 614 333 172 193 169 116 67 88 125 126 176 355 645 834 869 849 846 931 1113 1238 1388 1463 1619 1636 1633 1636
0 0 0 0 0 0 0 0 0 0 0 0 116 3 370 324 486 451 689 610 407 259 220 222 93 50 65 184 238 450 571 796 860 993 882 1119 1020 1011 1109 1401 1674 1717 1867 1622
0 0 0 0 0 0 0 0 0 0 0 0 0 0 0 264 268 339 271 439 399 316 246 242 162 58 25 139 253 350 624 749 889 946 1174 1186 1453 1095 1301 1342 1670 1901 2232 1972
0 0 0 0 0 0 0 0 0 0 0 0 0 0 0 0 0 0 10 214 349 469 304 244 205 151 117 123 204 303 547 831 881 973 1076 1277 1594 1363 1347 1482 1497 1560 1815 2127
0 0 0 0 0 0 0 0 0 0 0 0 0 0 0 0 0 1 15 9 41 429 640 309 206 185 230 198 188 266 492 800 726 846 956 1086 1375 1635 1721 1701 1466 1537 1574 1587
0 0 0 0 0 0 0 0 0 0 0 0 0 0 0 0 0 0 6 34 78 235 534 632 275 227 283 229 263 299 446 862 704 740 1251 1128 1217 1095 1172 1557 1216 1354 1470 1612
0 0 0 0 0 0 0 0 0 0 0 0 0 0 0 0 0 0 36 75 103 64 609 732 534 226 304 259 268 358 558 746 668 693 1134 1154 1076 1036 1187 1311 1588 1362 1741 1452
0 0 0 0 0 0 0 0 0 0 0 0 0 0 0 0 0 2 3 7 115 273 93 779 850 292 261 283 241 270 399 596 943 726 866 798 698 882 1058 1146 1492 1493 1622 1848
0 0 0 0 0 0 0 0 0 0 0 0 0 0 0 0 5 1 4 30 61 621 235 480 844 771 225 243 255 251 291 386 553 604 1036 1011 768 609 745 799 1067 1444 1602 1884
0 0 0 0 0 0 0 0 0 0 0 0 0 0 0 0 0 0 1 13 26 204 591 692 639 724 368 292 298 263 293 295 346 649 839 940 1042 805 582 689 807 1163 1490 1665
0 0 0 0 0 0 0 0 0 0 0 0 0 0 0 0 0 0 0 6 3 2 0 0 437 596 489 223 261 296 293 350 360 390 305 487 600 778 804 775 769 814 1017 1368
0 0 0 0 0 0 0 0 0 0 0 0 0 0 0 0 0 0 0 7 5 0 0 0 1 4 22 364 520 315 319 313 332 441 464 480 590 573 684 1189 1071 868 912 1086
0 0 0 0 0 0 0 0 0 0 0 0 0 0 0 1 1 1 1 1 0 1 0 0 1 0 6 3 2 46 321 358 341 378 515 558 943 934 697 547 1142 1071 1025 998
0 0 0 0 0 0 0 0 0 0 0 0 0 0 0 0 1 0 0 1 0 1 0 0 0 0 0 0 1 8 10 99 543 508 531 855 804 929 1064 871 719 1322 1190 1049
0 0 0 0 0 0 0 0 0 0 0 0 0 0 0 0 0 0 0 0 1 3 3 3 1 0 1 2 0 1 8 9 379 441 688 924 881 865 930 861 995 1216 1084 1023
0 0 0 0 0 0 0 0 0 0 0 0 0 0 0 0 0 0 0 0 0 0 3 4 1 0 1 0 0 0 3 7 6 482 620 920 902 915 1010 973 876 1036 774 917
0 0 0 0 0 0 0 0 0 0 0 0 0 0 0 0 0 0 0 0 0 0 0 0 0 2 1 1 2 0 0 0 5 6 7 3 21 745 987 1091 1063 938 770 714
0 0 0 0 0 0 0 0 0 0 0 0 0 0 0 0 0 1 0 0 0 0 0 0 0 0 0 1 3 0 0 0 0 5 9 13 8 9 28 999 1347 1318 1266 926
0 0 0 0 0 0 0 0 0 0 0 2 0 0 0 0 0 0 0 0 0 0 0 0 0 0 0 0 3 6 0 0 0 0 4 10 9 9 5 62 205 1164 1535 1616
0 0 0 0 0 0 0 0 0 0 0 0 0 0 0 0 0 0 0 0 0 0 0 0 0 0 0 0 0 5 3 0 0 0 0 6 15 18 12 9 27 84 268 1172
0 0 0 0 0 0 0 0 0 0 0 0 0 0 0 0 0 0 0 0 0 0 0 0 0 0 0 0 0 3 5 7 0 0 0 1 6 7 14 9 8 80 179 456
0 0 0 0 0 0 0 0 0 0 0 0 0 0 1 3 3 2 1 0 0 0 1 1 1 1 0 0 0 0 11 19 5 0 0 0 0 0 7 24 11 20 160 225
0 1 0 0 0 0 0 0 0 0 0 0 0 0 0 3 4 8 5 7 9 3 8 8 7 4 3 2 1 1 13 17 15 4 0 0 0 0 7 12 11 11 20 51
0 1 0 0 0 0 0 0 0 0 0 0 0 0 11 13 5 4 5 9 18 17 12 25 25 23 9 5 0 0 21 27 10 10 1 0 0 0 1 10 6 4 0 0

GFSCGP_con_sbcape_084.txt.gz
CAPE
0 0 0 0 0 24 46 93 56 281 350 63 10 258 1045 1054 779 388 254 272 202 35 86 304 311 154 0 0 70 493 676 875 1016 1050 990 1357 1372 1460 1502 1510 1566 1558 1665 1750
0 0 0 0 0 0 4 9 0 0 0 0 0 2 741 919 561 816 598 287 227 40 212 413 392 344 121 0 0 313 715 1002 945 790 1065 1111 1347 1333 1538 1471 1855 1569 1683 1547
0 0 0 0 0 0 1 30 0 0 0 5 86 163 235 493 375 420 338 576 339 99 180 493 475 391 289 0 164 309 793 995 1137 1074 1359 1812 1774 1863 1929 1823 1751 1692 1892 1894
0 0 0 0 0 0 5 7 0 0 0 101 97 443 519 325 468 542 577 508 748 494 195 282 504 499 383 187 132 408 834 1050 1182 1441 1406 1588 1152 1011 1090 1392 1385 1900 1954 1841
0 0 0 0 0 0 14 0 0 0 0 0 0 100 338 381 341 649 507 678 710 605 552 423 491 558 432 453 311 293 888 1252 1275 1536 1639 1516 1716 1003 1113 1053 1839 1979 2186 2046
0 0 0 1 0 0 0 0 0 0 0 0 0 48 52 88 139 140 137 236 706 890 811 666 602 597 534 439 547 550 959 1618 1802 1708 1938 1866 1565 1508 1207 1415 1516 1484 1609 1928
0 0 0 0 10 0 0 0 0 4 0 0 0 0 34 0 0 37 175 227 179 914 735 874 910 758 628 475 494 676 964 1663 1670 1556 1714 1923 2045 2024 1787 1469 1283 1313 1374 1436
0 0 0 0 0 0 0 0 0 1 0 4 0 18 0 0 0 95 224 344 296 376 993 894 731 941 783 688 660 860 979 1503 1721 1600 1709 1888 2063 1715 1656 1329 788 1247 1305 1506
13 0 0 0 0 0 0 0 0 0 3 2 0 0 0 0 9 77 191 283 564 410 491 965 974 930 861 836 947 1028 1233 1567 1662 1570 1693 1924 2070 1980 1322 1127 1425 1246 1259 1300
0 0 0 0 0 0 0 0 0 0 0 3 0 0 0 0 0 52 90 136 386 802 529 837 1225 1250 916 912 969 1123 1293 1548 1702 1546 1524 1675 1825 1996 1864 1580 1522 1477 983 1656
0 0 0 0 0 0 0 0 0 0 0 0 9 0 0 2 7 5 46 51 111 243 804 967 1207 1126 1105 987 1027 981 1174 1411 1679 1546 1418 1479 1514 1598 1770 1598 1520 1532 1542 1739
0 0 0 0 0 0 0 0 0 1 0 0 10 0 0 7 6 7 42 5 6 25 196 36 110 701 1165 981 1005 983 991 1036 1304 1527 1635 1556 1582 1540 1423 1554 1349 1382 1636 1609
0 0 0 0 0 0 0 0 0 0 0 4 0 0 0 17 17 19 18 13 0 0 1 0 27 25 57 211 659 958 988 965 976 1135 1086 1323 1398 1490 1418 1298 1433 1395 1519 1652
0 0 0 2 0 0 0 0 0 0 2 17 1 0 8 19 18 37 7 8 1 0 0 0 0 1 0 10 75 104 653 844 864 1000 1082 1085 1061 1097 1122 1293 1297 1376 1564 1570
0 0 0 0 0 0 0 0 0 0 0 1 0 0 6 15 9 11 18 12 12 7 0 0 0 0 0 3 3 12 60 357 851 895 1032 1197 1331 1251 1154 1542 1216 1246 1498 1603
0 0 0 0 0 0 0 0 0 0 0 0 0 0 6 8 10 4 4 5 8 10 10 9 2 0 0 0 0 0 11 12 101 868 1133 1116 1304 1375 1504 1577 1473 1256 1512 1697
0 0 0 0 0 0 0 0 0 0 0 0 0 0 0 2 3 2 1 0 1 4 6 6 6 4 3 3 0 0 1 3 6 12 820 1020 1433 1523 1589 1483 1643 1715 1518 1438
0 0 0 0 0 0 0 0 0 0 0 0 0 0 0 0 0 0 0 0 0 0 0 0 0 0 1 0 1 3 0 0 0 0 2 3 256 896 1439 1678 1887 1655 1614 1639
0 0 0 0 0 0 0 0 0 0 0 0 0 0 0 0 0 6 0 0 0 0 0 0 0 0 0 0 0 0 0 0 0 0 0 1 5 10 212 1428 1593 1846 1811 1987
0 0 0 0 0 0 0 0 0 0 0 0 0 0 0 0 0 5 0 0 0 0 0 0 0 0 0 0 0 0 0 0 0 0 0 1 7 15 5 211 1082 1936 2677 1651
2 1 0 0 0 0 0 0 0 0 0 0 0 0 0 0 0 0 0 0 0 0 0 0 0 0 0 0 0 0 0 0 0 0 0 0 0 4 10 8 79 899 1797 2089
4 7 2 3 3 0 0 0 0 0 0 0 0 0 0 0 0 0 0 0 0 0 0 0 0 0 0 0 0 0 0 0 0 1 1 1 0 2 2 22 22 23 597 1181
2 2 10 0 13 0 0 1 0 0 0 0 0 0 0 0 0 0 0 0 0 0 0 0 0 0 0 0 1 0 0 0 3 0 0 0 0 0 0 0 16 31 101 518
0 0 0 0 0 0 0 0 0 0 0 0 0 0 0 0 0 0 0 0 2 3 4 1 2 2 2 2 5 4 2 2 3 6 1 0 0 0 0 0 0 5 64 121
3 0 0 0 0 0 0 0 0 0 0 0 0 0 0 0 2 5 1 1 1 2 7 13 21 28 30 31 19 8 8 7 1 6 1 0 0 0 0 0 0 0 2 21
0 0 1 0 0 0 0 0 0 0 0 0 0 0 2 4 7 7 8 11 9 8 10 19 20 21 31 25 31 37 28 19 10 19 1 0 0 0 0 0 0 0 0 0

GFSCGP_con_sbcape_087.txt.gz
CAPE
0 0 0 0 0 21 118 136 78 227 331 344 299 552 1043 299 484 423 376 180 141 90 113 28 91 22 10 11 402 660 637 907 1005 983 901 2175 1399 2293 2827 2445 1763 1662 1948 1600
0 0 0 0 0 4 75 140 82 136 277 144 242 439 950 812 668 682 444 279 229 174 56 115 213 32 12 4 146 609 805 1146 1284 1123 1665 1027 1450 1793 1399 1592 1671 2215 1543 1629
0 0 0 0 0 0 98 190 102 65 19 11 48 390 943 724 910 691 589 416 283 176 42 274 282 197 64 35 0 466 861 1292 1248 1435 1315 1234 1937 1767 1302 1583 1448 1543 1626 1552
0 0 0 0 0 0 59 101 40 90 81 146 168 235 524 871 671 826 493 521 510 271 123 328 242 443 178 2 0 369 950 1117 1108 1811 1941 2595 1269 1304 1456 2355 1915 1884 1588 1930
0 0 0 0 0 0 7 140 49 9 21 50 144 202 54 898 996 906 975 816 677 427 224 329 341 371 288 96 162 437 1066 1746 2094 2006 2521 1742 2360 1178 1093 1700 2415 2081 2255 1817
0 0 0 0 0 0 21 80 53 16 29 70 48 171 251 442 455 426 628 756 985 866 428 374 496 516 697 184 192 392 1233 1921 1735 1753 1904 2257 1645 1738 1449 1523 1364 1377 1489 1754
4 0 0 9 12 0 42 19 59 27 19 40 21 168 119 57 154 260 257 424 697 1025 712 694 357 639 893 330 264 400 1373 1960 1758 1694 1857 2078 2005 1771 1878 1793 1563 1193 1429 1534
3 1 11 0 54 14 4 9 22 10 21 29 64 210 35 34 180 270 392 549 401 518 1009 702 817 719 872 741 333 574 1306 2149 2016 1842 2642 2881 2391 1794 1265 1513 2281 1022 2560 1291
31 18 0 0 0 0 20 6 3 42 70 81 93 18 77 111 160 276 182 477 1278 502 1123 1061 1123 403 646 853 832 852 1587 1816 2080 2057 2284 2741 2870 2569 1800 2470 1889 1518 1698 1512
25 16 0 0 0 0 0 2 47 10 68 98 130 56 131 97 158 96 129 321 771 1118 689 1163 928 664 126 508 700 710 1050 1581 2093 2161 2108 2046 2182 2402 2225 1538 1835 1656 1871 1266
2 8 0 0 0 0 0 0 24 70 34 143 118 167 75 88 170 143 55 19 112 541 869 1275 771 308 768 985 840 992 1112 1442 1912 2155 2194 2237 2068 2120 2309 2009 1796 1818 1618 1711
0 1 0 0 0 0 0 9 4 21 21 3 37 88 82 85 238 135 17 2 43 93 85 18 49 107 158 628 354 152 922 1237 1580 1966 2163 1974 1873 2029 1947 2200 2013 2244 2248 1791
0 0 29 0 0 0 0 0 0 15 49 79 58 79 129 114 173 187 10 2 1 3 28 0 1 0 2 59 286 104 345 350 1036 1661 1792 2007 1949 1902 1867 2126 2048 2248 2209 2270
0 3 25 10 15 0 0 0 0 0 5 42 233 204 227 141 145 32 22 1 0 0 0 0 0 0 1 5 12 16 6 175 630 879 1235 1757 1859 1965 1959 2462 2249 1905 2649 2371
0 5 3 0 0 0 0 0 0 0 0 74 327 318 188 68 115 52 8 9 5 2 0 0 0 0 0 0 0 5 8 19 126 828 1216 929 1753 1811 1793 1862 1980 1834 2690 2618
3 20 0 0 0 0 0 0 0 0 0 5 128 164 33 25 20 25 33 16 3 7 6 7 2 2 0 0 0 0 0 2 10 11 48 509 1407 1761 2281 2110 1908 1967 1802 2746
15 37 5 1 0 0 0 0 0 0 0 3 233 149 20 31 18 15 18 16 11 8 7 6 3 3 3 3 3 0 0 0 0 1 0 1 38 118 359 1641 2430 2670 2787 2417
5 17 25 16 6 0 0 0 0 0 0 1 54 40 11 17 10 3 1 0 0 0 0 0 0 0 0 0 0 2 2 0 0 0 0 2 2 7 14 223 1657 2391 2439 2446
0 0 14 3 24 6 0 0 0 0 0 0 0 0 0 0 5 6 0 0 0 0 0 0 0 0 0 0 0 0 0 1 1 0 0 0 0 1 4 10 19 926 2151 2722
0 0 1 2 2 11 22 0 0 0 0 0 0 0 0 0 0 7 3 0 0 0 0 0 0 0 0 0 0 0 0 0 0 1 1 2 4 1 0 0 3 9 430 1774
0 0 0 4 5 33 0 0 0 0 58 0 0 2 0 0 0 1 0 0 0 0 0 0 0 0 0 0 0 0 0 0 0 0 0 2 3 0 0 0 1 3 5 216
9 10 9 8 43 24 0 0 0 6 0 0 0 0 0 0 0 0 0 0 0 0 0 0 0 0 0 0 0 0 0 0 0 0 0 2 3 2 0 0 5 0 8 11
37 46 108 42 190 32 0 0 0 0 1 0 0 0 0 0 0 0 0 0 0 0 0 0 0 0 1 3 1 0 0 0 0 0 0 1 0 0 0 0 0 1 14 33
1 0 1 0 8 0 0 0 0 0 0 0 0 0 0 0 0 0 0 0 0 0 0 0 0 1 7 8 9 16 12 2 0 0 0 0 0 0 0 0 0 0 0 0
25 5 0 0 10 5 1 0 0 0 0 0 0 0 0 0 0 0 0 1 1 1 1 1 3 4 5 9 12 16 22 24 17 2 0 0 0 0 0 0 0 0 0 0
0 5 20 124 2 1 7 1 0 0 0 0 0 0 0 0 1 1 2 4 6 6 9 9 10 11 9 7 14 22 17 25 47 33 6 0 0 0 0 0 0 0 0 0

GFSCGP_con_sbcape_090.txt.gz
CAPE
0 0 0 0 0 6 28 97 241 132 454 681 652 434 262 232 45 25 51 50 44 66 95 18 15 18 73 379 824 1322 1522 2028 1791 1764 1521 1979 1537 2656 2470 533 899 2462 2368 1956
0 0 0 0 0 0 6 43 148 8 5 81 620 518 501 392 190 124 124 42 70 54 71 25 27 16 30 368 817 1579 1927 2107 2350 1898 2431 2103 1657 2034 2183 1879 2615 2558 2425 2234
0 0 0 0 0 0 0 2 139 127 43 3 124 280 514 376 739 423 237 167 82 85 47 49 128 56 30 294 750 1389 2125 1939 2185 2645 2098 265 370 189 712 2423 2389 2392 2277 2358
0 0 0 0 0 0 0 62 66 79 0 103 232 571 606 693 651 644 504 280 178 114 91 127 128 87 27 132 393 1369 2154 1795 1554 2632 2227 1918 876 886 1709 2270 1299 2397 2657 2457
0 0 0 0 0 0 0 146 7 35 22 27 14 352 106 0 543 670 678 499 167 95 83 130 189 221 116 147 140 1146 1812 2304 1654 2219 2560 2261 2037 832 318 1087 1759 2265 2839 2661
0 0 0 0 0 0 10 17 63 32 5 19 0 21 391 9 10 544 587 450 414 410 80 212 223 146 178 11 51 917 1849 2385 2721 2345 2445 2028 1741 509 1141 2115 2642 2110 2295 2482
0 0 0 0 0 0 0 1 106 62 0 3 37 66 275 3 24 1 875 712 615 608 592 126 207 232 242 15 222 1087 1871 2241 2244 2360 2367 2545 1904 2101 794 1331 521 1213 664 1763
0 30 0 0 0 0 0 23 99 53 31 11 1 258 69 0 241 105 735 563 207 89 794 356 238 563 568 347 257 896 1904 2310 2275 2377 2676 3128 3055 2451 1859 2225 1968 926 1795 1568
17 52 0 21 28 49 6 0 54 73 38 65 224 68 86 222 293 375 420 610 801 435 775 1049 604 656 750 404 211 708 1921 2392 2471 2305 2831 3142 3221 2963 1947 2765 3297 2600 2226 794
42 68 49 0 0 0 5 7 5 29 88 114 280 174 287 323 382 263 220 145 300 356 868 757 313 463 674 720 405 1151 1758 2310 2720 2458 2554 2753 2957 3166 3265 3344 2244 3102 1870 367
1 19 0 0 0 0 0 0 0 22 63 90 189 201 274 242 307 214 149 164 101 31 58 122 157 75 551 233 49 62 489 2180 2623 2790 2801 2670 2644 2873 3179 3092 3231 2824 2584 1131
31 13 12 0 0 0 1 32 27 8 45 151 241 151 74 164 234 132 32 35 4 0 0 6 5 57 78 2 88 257 253 469 1692 2579 2958 2907 2806 2779 2901 3003 2987 3334 3288 3045
0 11 84 1 0 0 0 0 2 5 31 214 43 176 181 296 183 43 5 2 0 6 0 3 3 4 10 16 0 24 13 131 179 1627 2641 2712 2672 2844 2898 3163 2939 3295 3241 3109
0 0 21 4 25 0 0 0 0 0 0 56 265 302 250 156 135 51 3 0 0 3 5 0 0 0 0 1 6 10 20 35 54 93 1172 1026 2422 2446 2608 3138 3048 3012 3244 3009
0 0 0 1 0 0 0 0 0 0 0 383 437 309 292 104 43 29 8 6 3 2 3 3 3 0 0 0 0 7 4 8 7 9 18 304 354 1893 3164 2999 2826 2853 3345 2961
0 0 0 0 0 0 0 0 0 0 0 168 254 148 119 35 34 23 13 7 6 5 2 3 3 6 5 0 0 0 0 0 3 8 7 11 13 310 777 1697 2617 2512 2696 2682
4 6 0 0 0 0 0 0 0 0 0 523 428 61 23 76 8 20 14 7 4 2 0 0 0 0 0 0 6 0 0 0 0 0 3 3 6 7 71 245 905 2063 2545 2787
18 50 11 5 7 0 0 0 0 0 0 378 412 274 83 9 0 0 0 0 0 0 0 0 0 0 0 0 0 0 1 0 0 0 0 0 0 0 0 0 31 71 640 2159
0 1 16 9 2 6 0 0 0 0 0 181 304 82 5 0 0 0 0 0 0 0 0 0 0 0 0 0 0 0 0 7 0 0 2 2 0 0 0 0 0 0 15 264
0 0 0 35 26 6 6 0 0 0 12 8 51 43 3 0 0 0 0 0 0 0 0 0 0 0 0 0 0 0 0 0 0 0 1 4 10 3 0 0 0 0 4 76
0 0 0 6 36 73 0 0 0 0 69 14 6 0 1 1 1 0 0 0 0 0 0 0 0 0 0 0 0 0 0 0 0 0 0 1 2 2 12 10 9 1 0 10
15 4 3 0 40 81 0 0 0 37 42 0 2 1 1 0 0 0 0 0 0 0 0 0 0 0 0 0 0 0 2 5 3 2 0 0 4 0 0 2 0 0 0 11
138 94 228 163 270 36 0 8 4 0 0 0 0 0 0 0 0 0 0 0 0 0 0 0 0 0 0 3 0 0 9 9 18 9 3 1 0 0 0 0 0 0 0 73
45 0 104 153 226 102 5 6 0 0 0 0 0 0 0 0 0 0 0 0 0 0 0 0 0 0 0 1 1 6 15 19 18 16 19 6 0 0 0 0 0 0 0 0
235 49 4 49 22 9 2 0 0 0 0 0 0 0 0 0 0 0 0 0 0 0 0 0 1 3 6 4 4 5 17 10 12 14 12 6 0 0 1 4 3 0 0 0
19 3 227 177 23 39 25 1 0 0 0 0 0 0 0 0 0 0 0 0 0 0 0 2 2 3 6 7 10 15 14 18 12 10 5 4 1 0 0 0 0 0 0 0

GFSCGP_con_sbcape_093.txt.gz
CAPE
0 0 0 0 0 0 0 55 128 6 4 1 175 158 198 143 39 3 3 0 9 5 0 4 20 23 129 0 121 109 77 783 289 974 741 673 641 937 628 593 507 1274 566 87
0 0 0 0 0 0 0 0 148 55 27 44 148 212 199 195 42 11 7 3 5 0 1 0 3 17 80 70 87 540 184 520 121 592 872 834 836 862 704 487 669 1143 940 622
0 0 0 0 0 0 0 0 87 51 60 90 78 72 276 237 113 123 77 49 6 3 0 0 0 3 20 83 203 694 558 605 860 253 189 197 82 1 462 499 1021 1358 1393 1082
0 0 0 0 0 0 0 0 36 89 53 21 13 5 0 131 173 147 56 96 42 7 3 0 0 0 0 78 304 821 690 426 440 829 194 100 7 0 269 756 1120 1049 1179 1447
0 0 0 0 0 0 0 122 221 122 32 235 93 10 111 50 197 148 77 205 118 45 18 5 1 0 4 94 274 823 580 403 124 757 360 48 91 356 119 466 1063 1328 1220 1444
0 0 0 0 0 0 0 20 111 84 38 7 143 137 51 53 218 337 378 264 239 129 85 68 31 9 2 49 247 511 899 557 393 654 796 562 290 77 299 474 940 1003 1244 1272
0 0 0 0 0 0 0 0 0 39 23 0 0 130 82 60 32 120 71 61 367 181 111 104 135 105 13 29 265 425 896 1020 1022 809 908 610 687 212 600 597 548 780 1218 1204
0 0 0 0 0 0 0 0 0 2 0 0 28 91 52 39 24 213 447 299 163 137 48 93 146 109 69 11 186 446 733 1091 902 998 1152 919 750 525 343 640 328 712 526 731
0 0 0 0 0 0 1 0 0 0 0 13 228 43 0 1 0 137 283 113 145 257 859 343 92 149 153 10 163 478 885 911 903 1576 1268 1712 1031 858 981 958 1227 656 844 1612
15 0 0 0 0 0 0 0 0 0 4 76 160 87 56 139 259 262 164 101 82 193 592 477 471 361 93 156 124 565 586 1084 1230 1056 1602 1720 1368 1100 1169 1458 1507 899 685 821
0 0 1 27 0 0 0 0 0 0 0 31 79 57 127 68 55 66 52 17 15 37 73 287 84 22 35 95 79 28 30 191 243 1308 1590 1656 1770 1659 1564 1535 1747 1366 359 640
0 0 0 0 0 0 0 0 0 0 0 25 105 68 41 11 16 5 4 2 1 2 3 25 58 23 12 4 30 96 137 134 249 131 367 1711 1901 1820 1740 1794 2061 1417 889 644
0 0 0 5 0 0 0 0 0 0 0 59 35 80 212 69 42 2 0 4 0 1 3 1 1 2 3 2 14 54 3 100 173 122 167 535 1914 2003 1780 1829 2035 2098 1834 1038
0 0 0 0 0 0 0 0 0 0 11 71 68 174 78 89 0 0 0 1 0 0 0 0 0 0 0 0 0 2 2 23 30 52 92 164 155 405 1249 2123 2117 2367 2286 2099
0 0 0 0 0 0 0 0 0 0 228 3 84 274 143 149 6 0 0 0 0 0 0 0 0 0 0 0 0 0 0 4 0 2 18 23 82 221 138 243 1451 1915 2087 2333
0 0 0 0 0 0 0 0 0 0 483 135 132 254 84 32 0 0 8 5 4 1 1 3 0 0 0 0 0 0 0 0 0 0 2 17 9 5 17 91 187 1315 1508 1559
0 0 0 0 0 0 0 0 0 0 448 445 342 131 46 4 0 0 1 0 0 0 0 0 0 0 0 0 0 0 0 0 0 0 0 0 3 0 0 3 53 100 143 999
0 0 0 0 0 0 0 0 0 0 345 485 327 176 113 28 0 0 0 0 0 0 0 0 0 0 0 0 0 1 0 0 0 0 0 0 0 0 0 0 0 0 0 83
0 0 0 0 0 0 0 0 0 25 759 446 404 288 2 0 0 0 0 0 0 0 0 0 0 0 0 0 0 0 0 0 0 0 0 0 0 0 0 0 0 0 0 0
0 0 0 0 18 1 0 0 0 0 501 76 0 0 0 0 0 0 0 0 0 0 0 0 0 0 0 0 0 0 0 0 0 0 0 0 0 0 0 0 0 0 0 0
0 0 0 0 11 12 0 0 0 0 22 202 5 0 0 0 0 0 0 0 0 0 0 0 0 0 0 0 0 0 0 0 0 0 0 0 0 0 0 0 0 0 0 0
30 0 0 0 0 43 0 0 12 69 13 0 1 0 0 0 0 0 0 0 0 0 0 0 0 0 0 0 0 0 0 0 0 0 0 0 0 0 0 0 0 0 0 0
48 6 56 94 58 0 0 0 0 0 2 0 0 0 0 0 0 0 0 0 0 0 0 0 0 0 0 0 0 0 0 0 0 0 0 0 0 0 0 0 0 0 0 0
76 10 9 99 144 28 0 0 0 0 0 0 0 0 0 0 0 0 0 0 0 0 0 0 0 0 0 0 0 0 0 0 0 0 0 0 0 0 0 0 0 0 0 0
187 41 0 5 55 18 0 0 0 0 0 0 0 0 0 0 0 0 0 0 0 0 0 0 0 0 0 0 0 0 0 0 0 0 0 0 0 0 0 0 0 0 0 0
48 7 30 142 41 36 74 0 0 0 0 0 0 0 0 0 0 0 0 0 0 0 0 0 0 0 0 0 0 0 0 0 0 0 0 0 0 0 0 0 0 0 0 0

GFSCGP_con_sbcape_096.txt.gz
CAPE
0 0 0 0 0 0 0 0 39 45 212 59 119 278 253 170 162 109 6 0 13 20 18 8 48 63 25 0 0 0 249 407 474 463 325 379 351 474 435 522 903 941 519 28
0 0 0 0 0 0 0 0 214 144 76 127 32 339 228 210 76 129 0 0 0 15 20 34 73 47 0 0 0 0 260 233 391 384 407 534 383 455 433 300 299 865 286 26
0 0 0 0 0 0 0 0 149 211 7 0 21 95 142 284 188 27 62 2 0 2 0 46 90 31 0 36 116 0 281 14 104 479 247 144 20 25 342 474 523 809 771 805
0 0 0 0 0 0 0 0 87 349 128 121 14 1 1 3 138 115 143 122 5 3 0 44 114 111 37 131 269 86 181 95 303 183 125 164 116 59 129 295 653 715 1083 865
0 0 0 0 0 0 0 0 123 263 26 78 12 0 2 0 74 136 215 133 47 0 0 0 77 158 126 163 380 162 191 128 467 313 117 10 0 2 200 391 691 744 683 1136
0 0 0 0 0 0 0 113 123 60 1 16 15 73 103 6 65 145 156 84 172 54 18 1 22 134 164 181 499 261 151 46 232 600 258 29 26 192 256 376 701 785 794 954
0 0 0 0 0 0 0 0 0 42 18 2 39 120 23 70 152 190 185 164 112 232 115 70 0 111 164 207 426 547 195 85 65 370 461 312 168 53 268 352 646 695 816 1002
0 0 0 0 0 0 0 0 0 52 19 0 80 77 3 167 402 177 364 345 171 156 117 54 29 29 130 203 333 775 378 203 349 357 562 363 340 288 330 299 261 499 698 899
0 0 0 0 0 0 0 0 0 0 0 4 14 4 3 21 125 431 260 89 99 268 237 134 72 55 61 134 329 449 723 533 387 671 494 448 535 518 307 316 357 126 447 674
0 0 0 0 0 0 0 0 0 0 0 12 41 37 14 0 182 250 108 51 99 260 671 549 337 294 206 216 203 242 503 567 471 927 645 887 674 480 505 444 691 940 663 1039
0 0 0 0 0 0 0 0 0 0 0 7 93 81 298 189 287 172 61 52 53 46 153 106 166 195 162 149 89 82 95 206 239 330 294 612 1108 878 558 827 941 645 548 589
0 0 0 0 0 0 0 0 0 0 0 0 12 141 211 92 64 14 34 3 3 11 23 69 101 90 68 83 143 6 98 69 89 122 246 415 751 967 1143 1127 1090 772 497 399
0 0 0 0 0 0 0 0 0 0 0 1 6 104 153 32 3 11 2 2 4 2 1 2 2 3 18 78 154 142 124 77 49 84 140 156 217 781 940 1203 1284 899 340 306
0 0 0 0 0 0 0 0 0 0 17 4 44 132 100 17 5 3 0 1 1 0 1 1 1 1 1 1 1 1 42 124 83 9 60 53 125 104 117 302 669 934 990 588
0 0 0 0 0 0 0 0 0 3 2 0 211 203 0 2 2 0 0 0 0 0 0 0 0 0 0 0 0 1 9 12 20 62 14 28 41 57 2 38 104 325 885 1184
0 0 0 0 0 0 0 0 1 52 108 194 215 165 28 0 0 0 0 0 0 1 1 0 0 0 0 0 0 0 1 1 0 1 2 21 5 0 17 15 31 64 106 597
0 0 0 0 0 0 0 0 0 51 174 326 205 117 73 66 9 0 0 0 0 0 0 0 0 0 0 0 0 0 0 0 0 0 0 2 1 0 0 1 0 0 2 14
0 0 0 0 0 0 0 0 0 364 324 255 196 70 9 37 1 0 0 0 0 0 0 0 0 0 0 0 0 0 0 0 0 0 0 3 3 1 0 0 0 0 0 1
0 0 0 0 0 0 0 0 0 156 324 369 175 28 0 0 0 0 0 0 0 0 0 0 0 0 0 0 0 0 0 0 0 0 0 0 0 0 0 0 0 0 0 0
0 0 0 0 0 0 0 0 0 42 386 372 251 6 0 0 0 0 0 0 0 0 0 0 0 0 0 0 0 0 0 0 0 0 0 0 0 0 0 0 0 0 0 0
0 0 0 0 0 0 0 0 0 0 0 2 0 0 0 0 0 0 0 0 0 0 0 0 0 0 0 0 0 0 0 0 0 0 0 0 0 0 0 0 0 0 0 0
0 0 0 0 0 0 0 0 2 0 0 0 0 0 0 0 0 0 0 0 0 0 0 0 0 0 0 0 0 0 0 0 0 0 0 0 0 0 0 0 0 0 0 0
0 0 0 0 0 0 0 0 0 0 0 0 0 0 0 0 0 0 0 0 0 0 0 0 0 0 0 0 0 0 0 0 0 0 0 0 0 0 0 0 0 0 0 0
0 0 0 0 0 0 0 0 0 0 0 0 0 0 0 0 0 0 0 0 0 0 0 0 0 0 0 0 0 0 0 0 0 0 0 0 0 0 0 0 0 0 0 0
0 0 0 0 0 0 0 0 0 0 0 0 0 0 0 0 0 0 0 0 0 0 0 0 0 0 0 0 0 0 0 0 0 0 0 0 0 0 0 0 0 0 0 0
0 0 0 0 0 0 0 0 0 0 0 0 0 0 0 0 0 0 0 0 0 0 0 0 0 0 0 0 0 0 0 0 0 0 0 0 0 0 0 0 0 0 0 0

GFSCGP_con_sbcape_099.txt.gz
CAPE
0 0 0 0 0 0 0 0 151 132 270 79 149 173 8 76 118 0 0 3 32 78 163 144 106 226 23 10 55 109 211 249 164 250 158 175 164 366 511 552 677 576 404 262
0 0 0 0 0 0 0 14 229 143 45 158 240 214 154 172 105 10 0 1 10 62 103 143 94 148 61 0 0 54 213 261 148 187 145 162 227 289 160 239 371 664 381 0
0 0 0 0 0 0 0 0 251 272 71 46 82 92 282 189 187 146 10 0 10 32 53 141 113 136 89 20 0 75 151 203 136 190 119 18 7 69 332 342 306 612 363 279
0 0 0 0 0 0 0 0 40 191 3 4 1 11 0 55 83 109 57 0 3 2 60 121 97 77 116 30 21 93 132 0 178 154 177 157 165 93 119 201 332 538 684 690
0 0 0 0 0 0 0 0 132 107 79 3 0 0 0 0 1 58 22 35 0 0 45 83 89 71 100 94 51 139 50 3 132 161 118 61 11 0 1 185 451 548 498 593
0 0 0 0 0 0 0 38 37 1 0 0 0 0 0 0 1 59 115 97 9 0 9 124 107 62 69 185 110 151 84 124 123 137 60 3 0 0 70 100 409 410 495 511
0 0 0 0 0 0 0 5 11 15 0 0 0 13 0 4 0 110 109 108 15 0 9 19 71 86 65 223 203 134 88 98 240 312 140 37 0 48 80 122 403 422 455 660
0 0 0 0 0 0 0 0 1 6 0 1 11 14 0 30 49 118 114 179 297 81 114 12 19 120 153 156 363 190 120 55 94 247 273 186 102 29 91 176 333 434 444 618
0 0 0 0 0 0 0 0 0 0 0 0 0 0 0 156 258 179 135 191 185 147 178 135 52 100 122 153 383 381 173 44 64 126 248 248 198 207 145 181 133 298 317 480
0 0 0 0 0 0 0 0 0 0 0 0 1 0 7 120 317 111 39 53 68 322 385 306 101 22 74 122 229 547 424 248 165 207 205 252 294 410 254 120 251 346 176 250
0 0 0 0 0 0 0 0 0 0 0 0 8 0 216 4 107 58 75 44 46 49 295 253 305 158 58 184 178 141 216 213 374 511 329 390 517 362 293 377 471 715 569 491
0 0 0 0 0 0 0 0 0 0 0 0 2 4 228 151 45 33 5 12 5 13 53 39 124 182 72 97 101 89 73 91 72 154 326 456 537 553 580 448 494 760 680 435
0 0 0 2 0 0 0 0 0 0 0 6 0 46 211 63 16 15 1 4 3 2 2 2 2 10 117 166 160 130 78 104 48 21 57 125 164 228 498 568 392 661 614 311
0 0 0 0 0 0 0 0 0 0 0 0 0 160 222 126 73 2 2 3 1 1 2 2 2 3 4 52 97 145 131 92 88 68 21 36 96 0 0 9 105 281 674 354
0 0 0 0 0 0 0 0 0 0 0 0 47 193 156 62 26 0 0 0 0 0 0 0 0 0 1 2 3 14 25 45 125 93 18 9 49 30 12 12 13 12 114 493
0 0 0 0 0 0 0 0 0 14 121 80 166 148 120 19 0 0 0 0 0 0 0 0 0 0 0 0 0 0 1 1 1 23 54 19 12 20 12 0 0 0 0 9
0 0 0 0 0 0 0 0 0 43 265 205 118 88 73 38 31 4 0 0 0 0 0 0 0 0 0 0 0 0 0 0 0 1 2 1 2 1 1 0 0 0 0 0
0 0 0 0 0 0 0 0 91 341 291 185 155 107 64 33 1 2 0 0 0 0 0 0 0 0 0 0 0 0 0 0 0 0 0 0 0 0 0 0 0 0 0 0
0 0 0 0 0 0 0 0 0 24 204 250 186 83 50 3 0 0 0 0 0 0 0 0 0 0 0 0 0 0 0 0 0 0 0 0 0 0 0 0 0 0 0 0
0 0 0 0 0 0 0 0 0 51 256 412 215 136 0 0 0 0 0 0 0 0 0 0 0 0 0 0 0 0 0 0 0 0 0 0 0 0 0 0 0 0 0 0
0 0 0 0 0 0 0 0 0 0 0 258 176 0 0 0 0 0 0 0 0 0 0 0 0 0 0 0 0 0 0 0 0 0 0 0 0 0 0 0 0 0 0 0
0 0 0 0 0 0 0 0 0 0 0 30 0 0 0 0 0 0 0 0 0 0 0 0 0 0 0 0 0 0 0 0 0 0 0 0 0 0 0 0 0 0 0 0
0 0 0 0 0 0 0 0 0 0 0 0 0 0 0 0 0 0 0 0 0 0 0 0 0 0 0 0 0 0 0 0 0 0 0 0 0 0 0 0 0 0 0 0
0 0 0 0 0 0 0 0 0 0 0 0 0 0 0 0 0 0 0 0 0 0 0 0 0 0 0 0 0 0 0 0 0 0 0 0 0 0 0 0 0 0 0 0
0 0 0 0 0 0 0 0 0 0 0 0 0 0 0 0 0 0 0 0 0 0 0 0 0 0 0 0 0 0 0 0 0 0 0 0 0 0 0 0 0 0 0 0
0 0 0 0 0 0 0 0 0 0 0 0 0 0 0 0 0 0 0 0 0 0 0 0 0 0 0 0 0 0 0 0 0 0 0 0 0 0 0 0 0 0 0 0

GFSCGP_con_sbcape_102.txt.gz
CAPE
0 0 0 0 0 0 0 18 201 63 254 33 34 55 0 30 2 6 11 8 13 85 132 128 148 117 88 78 94 134 186 189 110 109 98 78 103 447 519 452 521 415 571 559
0 0 0 0 0 0 0 120 224 192 129 144 57 116 16 33 2 12 0 3 41 95 91 157 98 134 36 16 95 87 179 186 111 84 71 96 114 163 222 219 423 565 385 96
0 0 0 0 0 0 0 1 159 182 209 125 82 129 63 103 57 6 1 1 29 60 103 71 84 84 23 6 47 36 104 162 95 132 81 27 28 115 196 226 274 595 315 21
0 0 0 0 0 0 0 0 305 165 40 54 11 4 101 67 105 117 2 0 4 55 122 45 100 73 24 7 0 5 36 99 73 133 169 145 144 155 145 164 201 471 633 643
0 0 0 0 0 0 0 0 225 197 15 0 0 0 0 105 110 48 25 10 0 4 100 54 80 108 36 2 0 0 0 0 64 87 96 112 100 21 0 158 334 462 571 827
0 0 0 0 0 0 0 33 0 0 0 12 0 0 0 1 42 57 4 0 0 0 60 99 82 86 64 14 0 0 0 0 0 2 0 40 73 23 58 33 303 365 490 578
0 0 0 0 0 0 0 0 3 39 33 13 0 0 0 0 0 61 72 14 0 0 30 88 57 55 40 68 11 16 0 0 0 54 43 0 0 0 9 52 243 302 460 640
0 0 0 0 0 0 0 0 0 0 3 0 0 0 0 0 17 29 95 59 0 0 35 66 83 55 44 127 99 64 62 29 81 82 66 25 0 0 10 93 117 329 414 612
0 0 0 0 0 0 0 0 0 0 0 16 7 0 0 147 41 117 156 151 22 0 2 10 57 87 55 51 207 118 126 57 88 152 107 81 42 54 36 88 115 304 333 487
0 0 0 0 0 0 0 0 0 0 0 0 0 0 0 160 233 81 126 94 129 247 114 93 5 67 91 67 132 312 109 58 48 47 133 133 125 125 168 145 169 98 108 213
0 0 0 0 0 0 0 0 0 0 0 0 0 0 63 71 235 128 82 86 64 181 268 281 216 48 41 142 182 356 197 172 175 154 100 146 167 188 223 238 208 283 477 398
0 0 0 0 0 0 0 0 0 0 0 0 0 0 94 176 148 120 100 71 66 103 198 393 306 82 38 192 182 117 87 228 178 163 188 234 298 398 231 311 267 391 677 467
0 0 0 2 0 0 0 0 0 0 0 0 0 0 242 142 123 41 57 48 8 12 2 4 91 129 88 132 56 56 35 29 42 55 53 54 0 0 59 129 256 425 559 517
0 0 0 0 0 0 0 0 0 0 0 0 0 45 374 144 30 63 44 4 7 6 2 2 1 5 164 106 30 29 85 40 6 17 2 25 0 0 0 0 0 44 311 662
0 0 0 0 0 0 0 0 0 0 0 26 10 87 227 92 53 25 0 0 4 2 1 1 1 1 1 12 55 76 75 163 92 81 32 19 35 6 0 0 0 0 3 54
0 0 0 0 0 0 0 0 0 24 1 61 90 185 122 113 22 10 1 0 0 0 0 1 1 1 2 1 1 1 1 3 52 103 66 28 2 5 0 0 0 0 0 0
0 0 0 0 0 0 0 0 2 0 207 178 198 129 104 21 0 13 0 0 0 0 0 2 3 3 4 2 2 1 1 1 1 2 2 2 5 3 2 0 0 0 0 0
0 0 0 0 0 1 0 0 11 250 190 177 142 214 165 35 0 0 0 0 0 0 0 0 1 1 0 0 0 0 0 0 0 0 0 0 5 1 1 0 0 0 0 0
0 0 0 0 0 0 0 0 0 17 118 224 180 174 21 0 0 0 0 0 0 0 0 0 0 0 0 0 0 0 0 0 0 0 0 0 0 0 0 0 0 0 0 0
0 0 0 0 0 0 0 0 0 0 0 338 233 104 0 1 0 0 0 0 0 0 0 0 0 0 0 0 0 0 0 0 0 0 0 0 0 0 0 0 0 0 0 0
0 0 0 0 0 0 0 0 0 0 0 389 282 83 1 15 0 0 0 0 0 0 0 0 0 0 0 0 0 0 0 0 0 0 0 0 0 0 0 0 0 0 0 0
0 0 0 0 0 0 0 0 0 0 0 305 30 0 0 0 0 0 0 0 0 0 0 0 0 0 0 0 0 0 0 0 0 0 0 0 0 0 0 0 0 0 0 0
0 0 0 0 0 0 0 0 0 0 0 0 0 0 0 0 0 0 0 0 0 0 0 0 0 0 0 0 0 0 0 0 0 0 0 0 0 0 0 0 0 0 0 0
0 0 0 0 0 0 0 0 0 0 0 0 0 0 0 0 0 0 0 0 0 0 0 0 0 0 0 0 0 0 0 0 0 0 0 0 0 0 0 0 0 0 0 0
0 0 0 0 0 0 0 0 0 0 0 0 0 0 0 0 0 0 0 0 0 0 0 0 0 0 0 0 0 0 0 0 0 0 0 0 0 0 0 0 0 0 0 0
0 0 0 0 0 0 0 0 0 0 0 0 0 0 0 0 0 0 0 0 0 0 0 0 0 0 0 0 0 0 0 0 0 0 0 0 0 0 0 0 0 0 0 0

GFSCGP_con_sbcape_105.txt.gz
CAPE
0 0 0 0 0 0 0 0 156 390 181 149 162 309 99 7 45 145 135 158 222 242 288 325 380 449 449 541 672 786 1080 1408 1179 1044 1005 998 1020 1318 1404 1437 1443 1421 1778 1679
0 0 0 0 0 0 172 324 245 154 46 108 46 140 294 151 142 163 157 200 189 187 234 328 385 419 447 566 740 981 1169 1386 1223 1083 1051 908 1179 1175 1627 1682 1695 1706 1641 1543
0 0 0 0 0 0 0 2 232 239 156 161 24 118 93 108 60 86 40 175 204 201 237 340 303 386 436 504 770 916 1189 1199 1139 1057 1052 1103 1182 1340 1468 1574 1568 1732 1555 1107
0 0 0 0 0 0 0 0 316 172 97 56 31 29 111 140 53 90 80 19 131 194 249 350 380 412 385 483 630 786 1107 1239 1040 1159 1133 1344 1086 1726 2047 2260 1370 1567 1552 1363
0 0 0 0 0 0 0 0 334 293 210 157 111 47 71 203 166 48 28 56 38 143 210 290 355 436 408 459 489 646 927 1204 978 1104 1241 1179 1017 1118 1692 1323 1692 1417 2089 1671
0 0 0 0 0 0 34 140 229 175 152 99 119 115 54 237 320 226 88 68 51 56 174 249 330 414 413 433 394 466 772 994 1114 1032 1201 1408 1320 1119 988 1188 1503 2126 1662 2306
0 0 0 0 0 0 0 50 48 15 39 0 0 126 62 129 98 266 171 140 72 47 145 291 321 372 368 367 361 389 676 841 957 936 982 1097 1144 1379 1375 1200 1118 1419 1461 1637
0 0 0 0 0 0 0 0 14 6 0 1 23 119 108 86 95 135 304 206 103 55 83 256 331 337 358 342 366 356 467 708 794 910 1005 1000 1047 992 879 972 1044 1237 1525 1914
0 0 0 0 0 0 0 0 0 6 0 39 160 75 50 218 375 191 235 290 68 14 69 233 339 394 250 198 381 367 418 622 664 612 889 962 905 876 921 1128 1191 1226 1480 1268
0 0 0 0 0 0 0 0 0 0 15 1 110 132 183 408 267 300 393 352 122 45 123 178 198 310 309 225 410 414 408 378 467 700 856 969 1102 1056 1092 1067 1211 1304 1328 1558
0 0 0 0 0 0 0 0 0 0 0 30 92 166 203 457 522 639 603 443 304 101 211 306 381 405 423 399 609 657 687 703 246 552 984 1038 1204 1148 1255 1199 1134 1264 1294 1386
0 0 0 0 0 0 0 0 0 0 0 17 72 149 418 407 556 370 414 561 636 410 384 518 506 462 402 268 442 712 794 663 696 678 781 827 913 1088 1165 1255 1225 1119 1218 1565
0 2 28 3 0 0 0 0 0 0 15 72 10 93 515 648 600 516 419 422 263 390 513 465 676 469 361 256 172 386 375 412 596 559 731 921 1033 1168 1337 1263 1335 1591 1511 1691
0 0 26 27 6 0 0 0 0 3 3 39 27 315 526 534 514 434 402 324 240 180 124 128 472 421 244 125 71 113 178 95 147 154 153 258 591 625 532 582 700 1052 1416 1654
0 25 0 0 0 0 0 18 0 0 0 48 127 510 663 396 263 225 163 84 57 36 44 36 39 477 438 293 24 4 82 96 66 67 23 9 33 183 199 234 229 419 760 1017
0 38 0 2 0 0 0 13 35 45 9 146 160 512 637 337 341 180 110 48 49 6 3 6 7 2 9 99 50 70 76 152 161 149 65 83 56 155 87 98 67 123 242 344
7 72 60 61 0 4 0 0 163 206 263 363 451 539 732 333 243 153 97 44 20 6 4 4 5 5 3 4 2 3 4 2 3 5 53 28 3 2 2 22 19 12 78 133
1 9 0 127 71 68 1 0 23 435 513 555 528 541 609 277 94 59 88 7 1 3 7 5 2 4 4 3 0 0 0 0 0 0 1 2 3 3 2 0 0 0 0 7
0 0 0 2 51 16 0 0 0 0 60 571 630 521 267 158 24 3 0 4 6 9 1 1 0 1 1 0 0 0 0 0 0 0 0 0 0 0 0 0 0 0 0 0
0 0 0 0 0 32 7 0 0 39 34 656 549 356 181 41 47 2 0 0 0 0 0 0 0 0 0 0 0 0 0 0 0 0 0 0 0 0 0 0 0 0 3 2
0 0 0 0 7 0 0 0 0 0 1 268 698 440 151 395 350 0 0 0 0 0 0 0 0 0 0 0 0 0 0 0 0 0 0 0 0 0 0 0 0 0 0 0
0 0 0 0 0 0 0 0 5 0 0 199 822 493 415 9 0 0 0 0 0 0 0 0 0 0 0 0 0 0 0 0 0 0 0 0 0 0 0 0 0 0 0 0
6 0 8 0 0 0 0 0 0 0 0 106 501 194 0 0 1 0 0 0 0 0 0 0 0 0 0 0 0 0 0 0 0 0 0 0 0 0 0 0 0 0 0 0
0 0 30 11 0 0 0 0 0 0 0 1 89 0 0 0 2 0 0 0 0 0 0 0 0 0 0 0 0 0 0 0 0 0 0 0 0 0 0 0 0 0 0 0
5 0 1 12 24 0 0 0 0 0 0 1 0 0 0 0 1 0 0 0 0 0 0 0 0 0 0 0 0 0 0 0 0 0 0 0 0 0 0 0 0 0 0 0
0 29 267 164 16 21 0 0 0 0 0 0 1 0 0 0 0 0 1 0 0 0 0 0 0 0 0 0 0 0 0 0 0 0 0 0 0 0 0 0 0 0 0 0

GFSCGP_con_sbcape_108.txt.gz
CAPE
0 0 0 98 0 0 103 223 146 298 293 118 92 116 95 76 196 204 225 192 204 177 285 407 354 231 456 739 945 1077 1086 1333 1327 1204 892 871 918 1061 1292 1267 1635 1833 2104 2138
0 0 0 102 0 0 38 150 343 271 199 120 13 173 15 15 64 254 210 162 156 177 282 400 478 423 368 577 781 992 1115 1495 1938 1114 1005 844 1001 994 1008 1357 1319 1546 1947 2196
0 0 6 0 0 0 228 227 300 278 156 59 10 18 203 37 59 198 227 193 205 245 288 377 487 548 468 589 912 1171 1215 1158 1382 1144 1368 1290 1989 1820 1800 1431 1030 1258 1606 1774
0 0 0 0 0 0 5 23 297 297 206 78 22 69 73 56 27 222 211 265 261 196 330 409 450 503 527 565 943 1300 1379 1315 1132 1612 1255 1357 1417 1607 738 962 1112 1493 1773 1470
0 0 0 0 9 0 0 0 66 220 142 145 85 52 1 160 103 77 117 157 237 260 253 353 520 522 463 555 778 1182 1587 1567 1170 1682 1404 1872 790 623 825 804 1401 1715 1674 1451
0 0 0 0 0 0 0 1 16 207 160 35 167 168 23 115 359 23 71 192 154 232 274 315 422 513 537 543 694 954 1562 1751 1500 1562 1256 1278 1000 895 1095 1127 2180 1071 1171 1451
0 0 0 0 0 0 0 121 117 32 89 84 49 147 94 105 177 418 86 110 158 154 237 328 389 579 650 691 723 857 1335 1785 1562 1379 1213 1213 928 1068 1046 1251 1055 1189 1050 1253
0 0 0 0 0 0 0 19 94 82 89 141 120 195 245 168 306 418 530 236 235 275 199 212 423 566 681 753 830 774 1145 1498 1498 1425 1326 1399 1366 793 1567 1317 1157 1028 2325 1119
0 0 0 0 0 0 0 0 30 57 110 122 129 196 309 237 324 398 558 579 385 268 260 251 409 590 770 792 903 864 947 1359 1250 1153 1508 1382 1337 927 1995 1014 1975 1381 1545 1458
0 0 0 0 0 0 0 0 46 24 77 136 276 201 130 544 516 560 481 663 579 358 356 310 403 680 743 839 832 878 987 1173 1127 938 1151 914 889 1283 1091 965 726 1328 1625 1831
0 0 2 0 0 0 0 0 1 11 28 105 182 223 486 677 662 789 600 682 774 588 343 405 617 714 829 721 470 713 1061 1122 946 983 1009 884 894 711 1273 1247 908 1005 1358 2115
6 11 53 0 0 0 0 0 0 0 0 40 85 327 716 671 861 1005 1072 979 929 738 412 513 513 628 666 980 952 772 754 995 1180 990 902 1291 924 776 635 1001 817 1082 992 1595
53 36 86 69 10 0 0 0 0 3 2 45 61 107 907 1004 986 969 984 1136 1044 755 672 681 548 756 1020 795 633 1110 1072 963 1110 1091 974 1046 1174 688 806 855 1127 1051 1150 1030
2 88 100 108 128 64 1 0 0 2 36 47 75 193 1055 1072 1121 988 980 1069 1160 1102 990 1089 1221 643 501 886 393 352 328 249 820 1018 1081 1184 1143 653 960 1050 1298 1097 996 1215
69 138 115 84 8 5 15 2 0 0 3 51 68 83 292 1189 1077 912 713 592 652 655 432 551 986 977 672 634 234 177 165 184 155 204 728 924 1056 1233 1103 1216 1201 1269 1452 1393
65 230 178 108 26 3 7 54 17 5 29 15 70 108 869 1204 974 727 634 547 508 442 319 155 188 1003 884 595 360 241 170 170 160 117 58 11 120 107 521 683 713 836 978 1193
197 252 290 217 104 80 56 48 229 199 229 302 137 751 1189 1068 730 550 548 588 355 286 188 48 3 75 603 580 227 172 266 298 258 219 125 32 23 3 4 37 198 486 587 654
206 231 206 150 225 194 92 34 68 504 515 593 760 852 1246 932 712 575 504 346 182 93 9 4 5 3 10 15 101 35 50 14 6 4 24 21 17 19 3 4 14 89 275 412
91 248 216 168 208 249 85 19 24 131 246 721 867 906 937 568 454 291 276 181 193 16 6 4 2 6 4 3 1 1 0 1 0 1 1 2 1 7 22 8 1 1 10 248
0 115 220 219 131 165 96 6 0 21 353 913 999 913 645 385 551 145 361 161 11 4 1 2 2 2 2 6 0 0 0 0 0 0 0 1 0 2 8 2 5 28 6 1
50 59 8 130 155 136 12 0 0 170 214 43 719 710 485 552 583 241 123 54 8 3 2 0 0 0 0 0 0 0 0 0 0 0 0 0 0 0 4 5 20 14 1 0
248 155 43 59 57 110 80 120 318 188 115 158 834 866 467 184 103 94 36 5 6 2 1 0 0 0 0 0 0 0 0 0 0 0 0 0 0 0 0 5 9 3 0 0
162 175 409 197 306 248 110 120 213 294 305 201 829 835 449 298 183 41 36 4 0 0 0 0 0 0 0 0 0 0 0 0 2 2 1 1 0 1 3 1 1 0 0 0
120 160 401 353 323 193 79 188 159 276 458 584 688 726 476 310 44 10 25 6 1 0 0 0 0 0 0 0 0 0 0 1 0 1 0 0 0 0 0 0 0 0 0 0
273 223 206 199 381 239 142 138 185 275 430 525 463 456 468 362 44 26 42 14 6 1 0 0 0 0 0 0 0 0 0 0 0 0 0 0 0 0 0 0 0 0 0 0
217 161 173 301 530 452 319 63 60 130 345 501 419 281 272 266 39 13 13 0 0 1 0 0 0 0 0 0 0 0 0 0 0 0 0 0 0 0 0 0 0 0 0 0

GFSCGP_con_sbcape_111.txt.gz
CAPE
0 0 0 76 106 5 3 35 85 104 242 63 59 49 0 134 191 89 64 86 142 119 118 71 117 152 266 458 606 1270 1456 1248 1232 1129 1356 1221 2012 1435 1612 1725 1619 1762 1911 1980
0 0 0 45 113 21 0 180 88 191 181 26 34 107 49 71 193 122 88 104 162 122 103 143 108 165 193 424 703 1363 1435 1376 1799 1147 1846 1377 1125 1895 1572 1630 1568 1693 2123 2091
0 0 0 17 87 0 1 179 237 257 106 103 13 97 27 45 181 257 102 96 82 147 107 124 323 167 240 310 597 815 1794 1348 1628 1969 1324 1645 1841 2301 1379 1755 1361 1705 1729 1907
0 0 0 15 62 32 10 245 164 192 139 117 76 62 10 98 116 80 119 91 111 125 119 161 414 377 229 389 473 1056 1119 1833 1082 1891 1969 1678 909 1239 1272 1166 1248 2265 1593 1432
0 0 0 1 68 37 14 8 305 211 126 101 53 94 41 26 19 22 182 140 119 197 185 215 240 457 418 466 485 704 1128 1514 1610 1457 1468 1378 1918 1135 990 1533 2285 1790 1778 1656
3 0 0 0 84 10 1 2 178 182 121 128 66 62 120 206 56 63 100 245 107 117 204 182 412 335 344 331 349 624 1063 1447 1501 1437 1390 1451 1773 1437 1389 1198 1453 1329 1684 1465
1 0 0 0 43 0 0 66 223 160 137 153 103 120 53 133 87 109 125 150 257 161 168 204 415 221 476 448 269 507 1176 1446 1314 1301 1165 1198 1406 1208 1277 1508 1305 1317 1093 1342
0 0 0 0 16 2 8 114 207 148 113 100 144 158 155 61 122 166 129 126 175 282 261 254 274 308 406 399 387 370 1103 1545 1399 1149 1165 1221 1259 934 1087 1079 993 861 1399 930
8 2 0 0 0 3 1 83 207 31 63 174 165 230 394 282 274 401 291 157 119 318 225 283 412 428 442 551 584 614 1389 1543 1345 1106 1297 1415 1315 1068 1182 1395 1537 2066 1501 1653
30 32 10 0 0 0 0 26 67 142 78 26 144 98 140 456 496 556 605 212 222 298 340 319 244 288 785 494 653 713 1110 1400 1278 962 1124 1120 938 1107 1069 1236 1134 1578 525 1994
3 3 33 0 0 0 0 0 10 74 108 64 90 273 318 615 520 577 641 698 392 392 534 531 282 498 664 776 975 856 1043 1538 1456 1176 1222 1008 732 684 986 1087 1106 1267 1404 1589
0 20 1 20 2 0 0 0 0 7 32 23 2 88 57 709 797 842 749 699 826 772 450 458 383 756 1134 1253 1403 1366 1167 1306 1556 1931 2284 1375 1218 814 562 776 945 1123 1425 1497
66 3 77 29 25 0 0 0 0 1 18 47 60 494 908 1030 1068 1069 1023 968 1024 1084 801 580 514 1250 1342 1203 1376 1358 1207 1523 1607 1843 1412 1332 2240 1203 831 645 677 978 1540 1662
3 13 78 65 19 2 30 0 11 7 32 26 31 959 1162 1316 1228 1432 1372 1195 1215 1294 1377 855 743 854 1060 1299 1558 1574 1299 1464 1379 1207 1217 1882 1823 1486 1070 1190 751 814 1154 1433
33 64 24 3 7 56 26 3 0 15 11 82 85 119 659 1267 1288 1244 1249 1398 1557 1564 1359 1226 1137 1220 1221 1236 908 362 253 223 359 335 922 975 1885 2268 1525 1443 1214 973 1088 1204
104 99 62 129 1 5 52 42 31 19 12 3 11 20 255 1129 1373 1212 1121 1166 1193 1017 862 1422 1375 1258 988 1160 674 355 301 545 381 366 476 701 1210 824 1444 1650 1345 1610 1169 1269
238 216 168 165 78 25 58 41 58 65 53 42 181 737 126 1284 1434 1080 820 785 731 798 438 338 652 942 1342 977 737 747 618 585 469 348 301 140 291 40 85 136 683 1067 975 1045
307 284 270 284 236 149 126 113 95 143 286 306 316 311 808 1215 1345 950 884 885 762 514 223 86 3 95 408 669 694 436 405 335 576 342 232 106 26 3 2 0 1 17 223 818
215 354 254 244 434 33 0 112 134 213 511 510 572 720 1405 1016 898 688 633 796 621 371 25 7 4 3 1 18 64 99 278 96 4 2 4 28 98 110 66 5 0 3 163 66
169 216 320 292 265 5 1 37 13 64 253 81 871 1047 891 679 710 691 565 349 208 93 6 5 5 5 3 4 9 6 5 4 3 2 1 0 2 2 70 166 168 253 73 7
23 46 196 199 239 245 103 5 34 67 268 190 724 1098 782 686 924 860 323 192 4 7 4 4 2 2 4 3 2 1 0 1 1 0 0 4 11 17 23 70 105 8 0 0
422 438 252 238 11 164 106 190 298 385 314 220 672 1039 918 330 786 451 83 33 5 5 1 0 0 1 0 0 0 3 0 0 0 0 0 0 7 4 11 44 26 9 1 0
19 162 697 392 501 304 200 254 188 340 498 602 532 1053 1034 779 446 119 65 7 3 0 0 0 0 0 0 0 0 0 8 17 14 0 0 0 0 8 24 27 25 3 5 10
190 238 124 444 399 321 280 213 269 294 482 726 746 776 903 600 343 119 44 13 20 10 3 0 0 0 0 0 0 0 0 2 12 6 9 6 4 1 0 3 4 6 8 5
452 500 120 311 628 410 304 300 230 321 446 644 845 742 608 567 307 31 11 8 2 0 0 0 0 0 0 0 0 0 3 5 5 3 0 0 0 0 0 0 0 0 0 0
341 195 390 416 788 696 661 303 159 223 367 540 662 674 526 457 272 114 4 9 1 0 0 0 0 0 0 0 0 0 1 0 0 0 0 0 0 0 0 0 0 0 0 0

GFSCGP_con_sbcape_114.txt.gz
CAPE
0 0 0 0 59 48 24 93 130 96 121 70 12 19 41 112 97 143 97 66 87 57 63 54 120 332 118 360 1033 1547 1020 2610 1757 1862 510 1359 1971 1715 1089 2433 2658 3079 2631 2184
0 0 0 0 55 22 34 149 164 215 70 38 23 27 30 44 87 173 99 97 62 60 38 72 75 200 168 849 1226 1758 1944 2534 2026 2223 1377 1099 1849 996 1790 2625 2826 1340 2496 2469
0 0 0 0 2 60 107 157 247 186 91 45 22 37 0 3 54 111 167 95 94 94 10 87 116 179 503 1051 1087 1633 1870 2365 2105 1907 1693 477 1059 2034 1838 1847 2238 2178 2598 2646
0 0 0 0 19 98 144 353 150 220 42 93 37 26 31 10 70 106 195 138 139 49 149 120 62 78 291 1134 956 1594 1998 2231 1684 1778 1939 1171 1410 1511 2040 2076 2222 1909 2496 2171
0 0 0 0 0 156 8 87 322 122 116 86 96 27 59 4 14 98 123 127 94 204 83 168 71 142 51 228 1053 1545 2025 2509 2307 2638 1410 1873 1909 1926 2185 2303 2164 2860 2798 2266
0 0 0 0 13 50 0 206 49 34 58 109 69 25 1 10 2 25 98 108 110 43 116 156 115 124 518 294 811 1055 1878 1999 1887 2373 1715 1965 1300 466 1841 1726 1858 1965 2185 2339
0 1 2 0 0 114 14 113 229 131 207 126 52 56 16 23 9 5 8 66 110 55 127 86 111 374 411 265 719 1363 2017 1953 2011 2085 2004 1786 1104 487 1998 1795 1877 1134 1925 2031
0 0 0 0 0 77 15 9 158 94 109 78 47 37 55 3 36 57 41 53 164 207 198 194 82 246 222 324 420 957 2019 2048 1820 1945 2337 2068 1915 1768 1724 1891 1487 889 957 2239
14 0 0 0 0 11 13 7 33 224 16 111 0 26 72 74 36 32 47 79 164 139 142 97 570 285 249 214 382 1763 1976 1869 1809 1705 2237 2306 2289 2239 2016 2042 98 687 1939 1802
4 5 1 1 0 0 0 14 40 197 93 14 33 66 79 191 136 246 161 166 223 145 149 159 222 304 40 128 200 1565 1884 2017 1699 1390 1775 1700 2027 2187 2551 2332 2200 1654 1353 249
0 0 4 11 0 0 0 0 0 16 107 95 68 259 279 273 12 578 314 305 214 54 52 230 166 228 282 447 830 1331 1497 1767 1534 1490 1391 1618 1317 1432 2197 2206 2490 2580 411 71
0 0 4 9 0 0 0 0 0 2 5 15 66 48 45 194 318 536 519 412 500 293 415 623 532 126 290 1149 934 217 1155 1057 1339 1507 1317 1891 1548 1661 1551 1914 2042 1984 2226 1682
2 3 0 7 5 9 0 0 0 0 0 26 0 255 240 314 504 736 701 714 594 456 438 570 267 310 453 1090 283 91 0 696 1638 926 1882 1273 1470 1647 1980 1785 1998 2388 2604 2820
0 0 26 9 6 24 18 34 0 0 0 0 0 313 188 244 1061 795 1022 985 491 353 935 618 1226 955 55 177 1628 2005 1827 1691 2116 1725 1555 1737 1751 1142 949 1743 2282 1962 2823 2329
0 0 0 0 0 0 0 2 31 0 0 0 3 487 504 581 1040 1173 1217 1345 812 999 832 641 763 1276 1524 1400 1031 748 635 253 116 264 229 1165 903 790 1181 1022 1602 2367 1909 2489
26 16 0 2 0 10 0 2 20 14 0 0 0 19 142 949 6 0 1441 1608 1697 1013 651 1125 1288 1100 1224 1296 999 440 295 219 124 162 311 428 926 898 418 402 629 1622 1694 1680
75 140 136 84 71 1 0 24 6 48 21 79 78 1103 423 5 0 0 939 1396 1194 952 1038 885 718 1255 1417 869 813 520 393 392 432 534 605 677 455 245 244 96 305 50 863 1010
166 188 121 166 74 110 76 9 12 16 509 510 843 1301 770 90 0 283 1028 1080 873 651 347 151 107 213 1047 860 682 748 806 652 882 620 422 301 99 13 3 3 2 3 70 304
120 187 163 180 1 67 42 75 0 0 0 112 300 966 0 556 488 496 788 970 453 325 82 4 2 4 1 51 239 569 169 260 234 174 259 192 134 33 0 0 2 10 2 0
145 213 242 276 122 44 103 26 21 0 133 154 60 446 0 454 421 644 668 426 227 45 4 4 1 0 1 1 0 0 1 1 3 1 2 0 0 69 128 24 4 11 1 0
126 404 105 245 255 222 69 111 6 0 284 116 181 488 108 353 603 450 360 125 0 4 3 2 2 3 2 0 0 0 2 2 0 0 0 0 0 0 0 0 6 0 0 0
12 90 530 363 258 188 76 39 37 420 209 242 202 599 699 1049 569 493 204 8 3 1 3 1 1 2 2 0 0 0 1 0 0 0 0 0 0 1 0 0 0 0 0 0
124 292 408 285 248 248 147 197 221 238 341 360 457 1020 893 723 308 267 21 3 5 0 0 0 0 2 0 0 0 0 5 0 0 0 0 0 0 0 5 2 4 0 0 0
98 152 95 122 412 304 269 181 168 190 165 200 530 848 892 593 465 143 2 5 1 0 0 0 0 0 0 0 0 0 0 0 0 0 0 0 0 0 0 0 0 0 0 2
493 701 212 116 490 578 351 275 115 145 233 263 580 785 854 654 400 107 53 6 7 3 0 0 0 0 0 0 0 0 0 0 0 0 1 0 0 0 0 0 0 0 0 0
225 185 178 493 901 904 688 444 148 61 129 179 351 852 789 535 270 13 0 0 0 0 0 0 0 0 0 0 0 0 1 14 1 0 0 0 0 0 0 0 0 0 0 0

GFSCGP_con_sbcape_117.txt.gz
CAPE
0 0 0 0 0 0 185 281 103 110 143 68 68 0 0 1 69 107 55 6 31 17 30 7 72 16 34 129 207 181 213 529 310 855 236 359 242 734 1280 1277 1409 1364 1219 1493
0 0 0 0 27 77 47 193 102 141 53 70 21 3 2 24 25 105 123 73 26 31 13 59 24 12 24 250 712 340 766 645 540 729 871 895 363 617 999 1636 1210 990 1448 1240
0 0 0 0 4 63 41 115 80 138 80 29 7 16 14 16 11 20 66 122 64 53 19 53 65 13 81 421 561 675 837 758 749 308 252 268 889 855 964 1266 1242 1131 1254 1724
0 0 0 0 0 14 173 215 145 166 31 52 24 18 10 1 7 1 13 52 64 62 32 37 10 32 138 187 350 490 598 713 618 513 228 9 480 375 571 702 1038 1095 1459 1332
0 0 0 0 0 177 213 112 141 70 0 26 23 49 4 7 3 2 2 60 60 23 3 20 26 64 148 283 465 468 695 632 461 465 545 105 535 552 855 1146 1191 1131 1438 982
0 0 0 0 14 167 334 377 112 70 9 11 27 41 48 19 0 0 1 18 41 34 28 49 62 123 285 206 321 510 570 1031 689 635 494 448 234 233 748 1104 870 955 860 1232
0 0 0 0 100 157 202 97 40 39 18 75 29 61 89 7 3 1 6 4 52 31 0 45 92 25 226 341 471 668 381 638 615 810 523 565 119 52 399 539 529 584 647 863
0 0 0 0 0 93 227 184 29 40 80 77 0 44 36 0 0 0 11 4 80 70 34 62 7 154 84 282 371 723 559 782 324 820 778 550 164 23 507 680 426 184 474 604
0 0 0 0 0 12 40 3 0 72 22 15 21 17 1 9 38 0 0 48 75 64 12 59 130 87 214 63 103 731 820 895 389 775 976 706 786 745 532 717 126 253 831 1189
0 0 0 0 0 0 0 0 68 150 32 21 80 4 5 12 64 76 2 28 99 157 141 96 125 74 105 165 70 789 858 918 586 922 1040 598 745 854 834 725 7 587 380 19
0 0 0 8 0 0 0 0 0 34 67 65 46 126 83 80 203 136 81 19 48 132 53 72 151 168 140 162 43 957 926 932 753 886 854 733 772 1009 739 1062 846 795 131 0
0 0 0 0 0 0 0 0 0 0 0 40 72 18 242 61 236 159 116 100 36 137 69 23 105 148 39 6 191 1008 1183 980 729 708 743 764 849 657 1039 707 886 534 0 4
0 0 0 0 3 16 9 3 0 0 0 0 0 65 207 234 68 0 40 205 108 63 131 131 162 198 398 119 300 200 462 418 501 718 746 765 598 756 757 898 708 834 648 621
0 0 0 0 0 0 6 0 0 0 0 0 0 347 137 69 123 142 343 320 227 132 55 127 130 165 207 141 130 37 6 110 14 10 59 414 384 275 491 734 735 759 1022 1011
0 0 0 0 0 0 0 0 0 22 77 12 62 283 360 382 359 185 692 325 256 248 105 217 205 73 72 103 101 390 443 152 169 181 262 284 346 435 434 481 353 363 892 794
0 0 18 34 0 2 0 14 19 189 65 56 281 620 458 348 108 62 45 827 290 557 592 701 78 28 18 48 8 387 182 123 123 131 39 164 252 233 218 225 195 391 270 333
15 60 79 34 5 13 69 0 4 50 79 23 618 372 35 33 0 0 48 730 294 280 442 518 779 372 32 62 244 270 225 107 91 111 293 262 74 9 1 47 77 217 252 181
62 145 159 59 21 9 21 0 0 17 64 324 340 568 0 0 0 0 162 541 404 220 43 4 2 119 592 597 396 277 341 343 419 386 157 54 6 0 0 0 10 69 9 1
11 52 75 150 118 34 112 0 0 0 89 78 492 277 160 334 421 324 261 108 34 4 3 4 2 4 10 347 394 290 124 263 260 227 99 36 0 0 0 0 2 5 0 0
4 0 33 69 122 47 69 1 0 0 196 172 448 39 0 179 190 406 15 0 1 2 3 2 1 6 3 1 0 0 0 0 1 1 1 13 31 0 0 0 3 3 2 1
0 0 21 107 163 203 177 21 2 25 129 156 575 328 111 89 436 41 0 0 0 0 1 2 0 1 3 0 0 0 0 0 0 0 0 0 0 0 0 0 0 0 0 0
0 0 192 102 79 62 91 175 61 90 170 311 930 703 477 472 138 3 0 0 0 1 1 1 1 2 5 0 0 2 0 0 0 0 0 0 0 0 0 0 0 0 0 0
248 59 282 103 23 336 254 281 17 54 86 101 747 656 199 371 79 2 0 0 0 0 0 1 5 1 0 2 0 1 0 0 0 0 0 0 0 0 0 0 0 0 0 0
457 367 33 258 223 243 174 177 170 154 183 327 706 600 393 256 32 0 0 0 0 0 0 0 1 0 0 0 0 0 0 0 0 0 0 0 0 0 0 0 0 0 0 0
521 581 188 77 171 251 385 64 33 173 151 329 676 882 643 144 5 0 0 0 0 0 0 0 0 0 0 0 0 0 0 0 0 0 0 0 0 0 0 0 0 0 0 0
288 568 305 590 808 584 492 237 95 65 59 155 842 742 527 188 37 2 0 0 0 0 0 0 0 0 0 0 0 0 0 0 0 0 0 0 0 0 0 0 0 0 0 0